     2.10           OBSERVATION DATA    G (GPS)             RINEX VERSION / TYPE
teqc 2002Mar14 SOPAC 20050725 22:56:42UTC                   PGM / RUN BY / DATE
Linux 2.0.36|Pentium II|gcc -static|Linux|486/DX+           COMMENT
BIT 2 OF LLI FLAGS DATA COLLECTED UNDER A/S CONDITION       COMMENT
HPGN CA 10 12                                               MARKER NAME
1012                                                        MARKER NUMBER
Dick Roper                                                  OBSERVER / AGENCY
0220158629 TRIMBLE 4700 1.30                                REC # / TYPE / VERS
0220159582 TRM33429.00+GP NONE                              ANT # / TYPE
 -2508641.0000 -4314311.0000  3962053.0000                  APPROX POSITION XYZ
        2.0000        0.0000        0.0000                  ANTENNA: DELTA H/E/N
     1     1                                                WAVELENGTH FACT L1/2
     6    L1    L2    C1    P2    P1    D1                  # / TYPES OF OBSERV
    15.0000                                                 INTERVAL
Northern California Height Modernization 2004               COMMENT
                                                            COMMENT
SOPAC - Scripps Orbit and Permanent Array Center            COMMENT
IGPP - Institute of Geophysics and Planetary Physics        COMMENT
SIO - Scripps Institution of Oceanography                   COMMENT
UCSD - University of California, San Diego                  COMMENT
                                                            COMMENT
email: archive@gpsmail.ucsd.edu                             COMMENT
ftp://garner.ucsd.edu                                       COMMENT
http://sopac.ucsd.edu                                       COMMENT
                                                            COMMENT
                                                            COMMENT
Approximate Lat, Lon : 38.633, -120.177                     COMMENT
                                                            COMMENT
SNR is mapped to RINEX snr flag value [1-9]                 COMMENT
L1: 3 -> 1; 8 -> 5; 40 -> 9                                 COMMENT
L2: 1 -> 1; 5 -> 5; 60 -> 9                                 COMMENT
  2004     9    17    20    45   15.0000000     GPS         TIME OF FIRST OBS
                                                            END OF HEADER
 04  9 17 20 45 15.0000000  0  6G 3G 8G13G19G23G27
      5777.20659     -1986.75957  22797909.5944   22797908.6644
      -498.5944
    -16956.79159    -10684.39257  22519535.0474   22519532.4264
      1468.0164
     11961.32959       839.80358  20184215.1484   20184211.1524
     -1039.7504
    -16785.17859    -10613.43857  23355880.4304   23355877.3284
      1452.0004
     39725.72759     11045.67858  21701751.8594   21701746.9344
     -3385.6724
     -3369.52559     -5659.10858  21346134.3284   21346131.1334
       306.8594
 04  9 17 20 45 30.0000000  0  6G 3G 8G13G19G23G27
     13303.69549      3878.06447  22799341.7814   22799340.7704
      -505.5314
    -38980.65649    -27845.82347  22515343.2274   22515341.2624
      1467.8594
     27593.19449     13020.46348  20187189.9924   20187185.5554
     -1045.1564
    -38551.38349    -27574.06547  23351738.0004   23351735.7854
      1449.5784
     90531.47449     50634.53548  21711419.5704   21711414.9104
     -3389.0624
     -7976.33849     -9248.84048  21345257.9534   21345254.7974
       306.8284
 04  9 17 20 45 45.0000000  0  6G 3G 8G13G19G23G27
     20957.54749      9842.13047  22800798.4304   22800797.0554
      -515.4224
    -60978.23649    -44986.76547  22511157.7114   22511155.5004
      1464.7034
     43330.38949     25283.20948  20190184.5784   20190180.2504
     -1053.5474
    -60256.60449    -44487.19347  23347606.9064   23347605.4304
      1444.0784
    141413.14149     90282.54848  21721101.9614   21721097.1914
     -3395.5474
    -12557.37749    -12818.47048  21344385.7814   21344382.5664
       303.6094
 04  9 17 20 46  0.0000000  0  6G 3G 8G13G19G23G27
     28775.49449     15934.06847  22802286.1254   22802285.0744
      -527.3284
    -82912.80249    -62078.63147  22506984.0234   22506981.1994
      1459.5634
     59209.75949     37656.74348  20193206.1804   20193202.0704
     -1064.0944
    -81863.76449    -61323.89147  23343496.0394   23343493.1454
      1436.5314
    192407.18449    130018.13748  21730806.2274   21730801.3984
     -3403.9534
    -17075.81549    -16339.32348  21343525.9534   21343523.1764
       298.4534
 04  9 17 20 46 15.0000000  0  6G 3G 8G13G19G23G27
     36782.70849     22173.45347  22803809.8834   22803808.4344
      -540.6254
   -104759.20749    -79101.77247  22502826.5394   22502824.1294
      1452.9844
     75256.27449     50160.51148  20196259.7974   20196255.5004
     -1075.9064
   -103347.66049    -78064.57347  23339408.2734   23339405.2034
      1427.6414
    243538.41349    169860.61648  21740536.1804   21740531.5004
     -3413.8594
    -21506.74749    -19791.98548  21342682.8524   21342679.9734
       291.8914
 04  9 17 20 46 30.0000000  0  6G 3G 8G13G19G23G27
     44995.58849     28573.13747  22805373.1414   22805371.9104
      -554.9374
   -126501.17549    -96043.55147  22498689.2034   22498687.0984
      1445.5634
     91486.26749     62807.26348  20199348.2734   20199344.0744
     -1088.6414
   -124691.58749    -94696.17847  23335345.9614   23335342.9454
      1417.7664
    294822.97849    209822.59348  21750295.0944   21750290.0394
     -3424.6094
    -25833.90149    -23163.77848  21341859.5004   21341856.6094
       284.5164
 04  9 17 20 46 45.0000000  0  6G 3G 8G13G19G23G27
     53425.56849     35141.96247  22806977.3364   22806975.9734
      -569.4844
   -148127.26849   -112895.03247  22494573.8674   22494571.7504
      1437.6094
    107911.27849     75605.96548  20202473.8134   20202469.4694
     -1101.7974
   -145883.82149   -111209.60947  23331313.2894   23331309.7704
      1407.4534
    346272.02349    249912.71748  21760085.4534   21760080.8054
     -3435.7194
    -30046.06949    -26445.98248  21341058.1564   21341054.8054
       276.7194
 04  9 17 20 47  0.0000000  0  6G 3G 8G13G19G23G27
     62081.86849     41887.17847  22808623.8134   22808622.7624
      -584.6254
   -169628.34649   -129649.08947  22490481.9614   22490479.8244
      1429.2664
    124540.59349     88563.87648  20205638.1954   20205634.0824
     -1115.3914
   -166914.95849   -127597.48647  23327310.3284   23327308.1844
      1396.7344
    397894.63349    290138.09948  21769909.1024   21769904.1954
     -3447.2974
    -34134.04749    -29631.39748  21340280.0784   21340276.7384
       268.3914
 04  9 17 20 47 15.0000000  0  6G 3G 8G13G19G23G27
     70969.77949     48812.83247  22810315.6094   22810314.4534
      -600.0624
   -190999.52849   -146301.92747  22486415.3594   22486413.6454
      1420.6094
    141379.38949    101685.01048  20208842.5474   20208838.4344
     -1129.4064
   -187779.45449   -143855.51447  23323339.9384   23323338.1764
      1385.5314
    449695.89449    330502.68548  21779766.6724   21779761.6484
     -3459.2194
    -38092.64149    -32716.00648  21339527.0634   21339524.0354
       259.7814
 04  9 17 20 47 30.0000000  0  6G 3G 8G13G19G23G27
     80090.59249     55919.98947  22812050.9224   22812049.6094
      -615.9224
   -212239.65149   -162852.65247  22482373.4454   22482371.1374
      1411.5164
    158428.85149    114970.30448  20212086.9304   20212083.2154
     -1143.7194
   -208475.83749   -159982.52347  23319402.5944   23319400.2974
      1374.0474
    501676.72249    371007.19548  21789658.3984   21789653.5234
     -3471.4534
    -41920.88649    -35699.04548  21338798.2814   21338795.2974
       250.7664
 04  9 17 20 47 45.0000000  0  6G 3G 8G13G19G23G27
     89442.82949     63207.46647  22813831.2734   22813829.3204
      -631.2664
   -233350.19249   -179302.40047  22478355.9224   22478353.6884
      1402.9844
    175687.53449    128418.62848  20215371.1644   20215367.1094
     -1157.6414
   -229005.27749   -175979.44447  23315495.8204   23315493.9414
      1362.9224
    553835.45149    411650.34848  21799583.6564   21799578.5904
     -3483.3754
    -45620.20349    -38581.61348  21338094.3284   21338091.3554
       242.1884
 04  9 17 20 48  0.0000000  0  6G 3G 8G13G19G23G27
     99028.97149     70677.21847  22815654.7194   22815653.8594
      -646.7974
   -254328.61149   -195649.18747  22474364.1644   22474362.1724
      1394.3134
    193157.83549    142031.85448  20218695.7974   20218691.3834
     -1171.5944
   -249364.99449   -191844.12747  23311622.1564   23311618.9654
      1351.7344
    606174.43449    452433.94348  21809543.7664   21809538.4884
     -3495.1564
    -49188.23449    -41361.87748  21337414.8134   21337412.0314
       233.6884
 04  9 17 20 48 15.0000000  0  6G 3G 8G13G19G23G27
    108843.70849     78325.10847  22817522.4774   22817521.4414
      -662.0164
   -275180.03149   -211897.02947  22470396.4694   22470394.0554
      1385.7344
    210834.48449    155805.85748  20222059.1804   20222055.3164
     -1185.4374
   -269560.15649   -207580.59947  23307778.9694   23307776.3874
      1340.7344
    658688.01249    493353.57848  21819536.6564   21819531.6804
     -3506.8444
    -52630.48349    -44044.14348  21336760.4384   21336757.1374
       225.2504
 04  9 17 20 48 30.0000000  0  6G 3G 8G13G19G23G27
    118883.84449     86148.62247  22819433.7504   22819431.6054
      -676.5944
   -295908.27549   -228048.87747  22466451.7894   22466450.0664
      1378.0314
    228714.36649    169738.23248  20225461.9064   20225458.0044
     -1198.4844
   -289593.69449   -223191.11247  23303965.7274   23303963.3524
      1330.4694
    711372.69249    534406.55148  21829561.9614   21829557.2854
     -3517.7194
    -55950.34349    -46631.02448  21336128.6804   21336125.7304
       217.5474
 04  9 17 20 48 45.0000000  0  6G 3G 8G13G19G23G27
    129147.24349     94146.09447  22821386.4224   22821384.7034
      -691.5474
   -316515.38049   -244106.34447  22462530.6024   22462528.1414
      1369.8754
    246795.29249    183827.27048  20228902.5164   20228898.7274
     -1211.9374
   -309467.52449   -238677.19247  23300184.7894   23300182.3054
      1319.7034
    764226.24549    575591.11448  21839619.4844   21839615.1414
     -3529.0474
    -59149.95249    -49124.21048  21335519.7114   21335516.5044
       209.4064
 04  9 17 20 49  0.0000000  0  6G 3G 8G13G19G23G27
    139630.76749    102315.09747  22823381.5084   22823379.6174
      -706.1874
   -337004.47549   -260071.84947  22458631.7344   22458628.9454
      1361.9844
    265073.95949    198070.39148  20232381.0704   20232376.8404
     -1225.2194
   -329184.55749   -254041.08947  23296431.6334   23296428.9064
      1309.2664
    817245.18249    616904.53148  21849709.2424   21849704.1374
     -3540.0624
    -62232.49049    -51526.18048  21334933.0394   21334929.9104
       201.5944
 04  9 17 20 49 15.0000000  0  6G 3G 8G13G19G23G27
    150331.76649    110653.54947  22825418.0314   22825416.3014
      -720.2814
   -357378.31949   -275947.54247  22454754.2664   22454751.7584
      1354.7504
    283547.97049    212465.72348  20235896.6484   20235892.1484
     -1237.7814
   -348746.94049   -269284.49147  23292709.2194   23292706.2114
      1299.2974
    870426.68749    658344.64748  21859828.8984   21859824.2274
     -3550.5784
    -65200.70649    -53839.05948  21334368.2194   21334364.6294
       194.3754
 04  9 17 20 49 30.0000000  0  6G 3G 8G13G19G23G27
    161245.35349    119157.68147  22827494.2034   22827493.2664
      -734.2974
   -377641.99249   -291737.38447  22450898.2664   22450895.7464
      1347.5474
    302212.30749    227009.36548  20239447.9454   20239443.7664
     -1250.4224
   -368159.40149   -284411.07847  23289015.7114   23289012.5044
      1289.4384
    923765.63649    699907.42848  21869979.4534   21869974.2384
     -3560.8444
    -68059.67549    -56066.81148  21333824.1024   21333821.3794
       187.2344
 04  9 17 20 49 45.0000000  0  6G 3G 8G13G19G23G27
    172368.47449    127825.09047  22829611.1094   22829610.1024
      -748.4224
   -397798.56949   -307443.78447  22447062.5084   22447060.1724
      1340.3284
    321063.89149    241698.90948  20243035.2734   20243031.3874
     -1262.9844
   -387424.93749   -299423.13247  23285348.4534   23285346.7974
      1279.4844
    977258.70449    741590.31048  21880158.6564   21880153.6844
     -3571.2664
    -70812.46049    -58211.82848  21333300.4924   21333296.8364
       180.0314
 04  9 17 20 50  0.0000000  0  6G 3G 8G13G19G23G27
    183697.04149    136652.56747  22831766.4224   22831765.0434
      -761.9224
   -417852.04649   -323069.84047  22443246.5474   22443244.1414
      1333.7194
    340098.60249    256531.15148  20246657.6174   20246653.3554
     -1274.9534
   -406547.26549   -314323.61747  23281709.8674   23281708.1564
      1270.1094
   1030901.45749    783389.84348  21890366.6024   21890361.8134
     -3580.9534
    -73463.40749    -60277.48248  21332795.7894   21332792.7934
       173.5164
 04  9 17 20 50 15.0000000  0  6G 3G 8G13G19G23G27
    195226.77249    145636.80147  22833961.0704   22833959.4064
      -775.2194
   -437806.84549   -338619.00647  22439449.4534   22439447.1334
      1327.1564
    359312.17449    271502.76748  20250313.7344   20250309.4694
     -1286.7344
   -425530.30649   -329115.55347  23278097.8674   23278096.1954
      1261.0004
   1084689.54949    825302.61148  21900602.2344   21900597.7304
     -3590.6254
    -76016.71549    -62267.06348  21332309.7274   21332307.1914
       167.1254
 04  9 17 20 50 30.0000000  0  6G 3G 8G13G19G23G27
    206953.62349    154774.62647  22836192.5634   22836190.8874
      -788.3594
   -457667.11049   -354094.50447  22435670.1334   22435668.1174
      1320.9534
    378700.58049    286610.61248  20254003.2664   20253999.1994
     -1298.3284
   -444377.89949   -343801.93547  23274511.8054   23274509.5124
      1252.0004
   1138618.59849    867325.22148  21910864.7034   21910859.8014
     -3599.9534
    -78476.65149    -64183.87848  21331841.5864   21331838.8014
       160.9224
 04  9 17 20 50 45.0000000  0  6G 3G 8G13G19G23G27
    218879.27849    164067.36447  22838461.5394   22838460.0784
      -801.5784
   -477431.37349   -369495.20147  22431909.3284   22431907.4774
      1314.6094
    398265.42749    301855.95848  20257726.3984   20257722.1054
     -1310.0004
   -463088.14049   -358381.31147  23270951.1254   23270948.4804
      1242.9224
   1192690.09149    909458.83248  21921154.2664   21921149.0704
     -3609.2504
    -80841.70049    -66026.76048  21331391.5164   21331388.7504
       154.7194
 04  9 17 20 51  0.0000000  0  6G 3G 8G13G19G23G27
    230999.80249    173511.95047  22840768.2114   22840766.6294
      -814.5784
   -497103.44949   -384824.05547  22428165.7194   22428163.8284
      1308.3444
    418002.85749    317235.76748  20261482.0784   20261478.1454
     -1321.5624
   -481664.65649   -372856.46847  23267415.5474   23267413.3054
      1233.8754
   1246899.93849    951700.23748  21931469.8134   21931464.2114
     -3618.6414
    -83115.62749    -67798.64148  21330958.9924   21330956.0124
       148.5314
 04  9 17 20 51 15.0000000  0  6G 3G 8G13G19G23G27
    243312.72249    183106.45147  22843111.3284   22843109.7114
      -826.9844
   -516685.87249   -400083.06247  22424438.8594   22424437.2344
      1302.7664
    437910.47549    332748.20648  20265270.5234   20265266.1724
     -1332.5944
   -500109.64049   -387229.14047  23263905.9534   23263903.5084
      1225.5474
   1301245.33549    994047.26948  21941810.9924   21941806.3244
     -3627.2344
    -85301.22049    -69501.68448  21330543.0634   21330539.7154
       143.0634
 04  9 17 20 51 30.0000000  0  6G 3G 8G13G19G23G27
    255813.54749    192847.38147  22845489.8594   22845488.4964
      -839.5624
   -536183.28549   -415275.81547  22420728.7034   22420727.1454
      1297.0784
    457983.59649    348389.59748  20269090.4224   20269086.2464
     -1343.6094
   -518427.35349   -401502.64547  23260419.9694   23260416.9414
      1217.0164
   1355721.53049   1036496.22248  21952177.9924   21952173.0004
     -3636.0314
    -87403.03149    -71139.44848  21330143.1334   21330139.8244
       137.4224
 04  9 17 20 51 45.0000000  0  6G 3G 8G13G19G23G27
    268500.84549    202733.59547  22847904.4774   22847903.0234
      -851.7194
   -555597.23749   -430403.54347  22417034.3834   22417032.0744
      1291.7344
    478220.89749    364158.92448  20272941.4384   20272937.2704
     -1354.3124
   -536618.95149   -415677.83347  23256958.0704   23256955.9654
      1208.9844
   1410327.11149   1079045.99448  21962568.8594   21962564.1684
     -3644.3914
    -89422.45349    -72713.00848  21329758.5784   21329755.3164
       132.1884
 04  9 17 20 52  0.0000000  0  6G 3G 8G13G19G23G27
    281370.16649    212761.65747  22850353.3754   22850351.5394
      -864.0164
   -574932.13349   -445469.65947  22413355.2894   22413353.0004
      1286.3594
    498617.87049    380052.67348  20276822.6414   20276818.4304
     -1365.0474
   -554688.76449   -429758.14147  23253519.2584   23253516.7544
      1200.7344
   1465057.20849   1121692.80048  21972983.6414   21972978.9964
     -3652.8124
    -91364.13649    -74225.99248  21329389.1094   21329386.1334
       126.9064
 04  9 17 20 52 15.0000000  0  6G 3G 8G13G19G23G27
    294420.98649    222931.14147  22852836.6564   22852835.4104
      -875.8594
   -594188.46349   -460474.56247  22409690.7584   22409688.0204
      1281.4534
    519174.12649    396070.53848  20280734.8754   20280730.2074
     -1375.4694
   -572636.76249   -443743.52247  23250104.7814   23250101.3204
      1192.7344
   1519911.17349   1164436.10948  21983422.3364   21983417.8634
     -3660.7194
    -93228.61349    -75678.82648  21329034.5314   21329031.3094
       122.0004
 04  9 17 20 52 30.0000000  0  6G 3G 8G13G19G23G27
    307650.52349    233239.89347  22855354.3204   22855352.8594
      -887.8594
   -613369.23949   -475420.59147  22406040.8524   22406037.9064
      1276.3444
    539886.80349    412210.29248  20284675.9774   20284672.0314
     -1386.0314
   -590465.67149   -457636.11547  23246712.2194   23246709.1054
      1184.6094
   1574885.78849   1207273.45348  21993883.7194   21993878.9144
     -3669.0164
    -95018.82149    -77073.77348  21328693.6094   21328690.9924
       116.8914
 04  9 17 20 52 45.0000000  0  6G 3G 8G13G19G23G27
    321060.88949    243689.53747  22857905.9144   22857903.6994
      -900.0944
   -632472.31249   -490306.08447  22402405.4384   22402402.5124
      1270.9694
    560757.84349    428473.43348  20288647.7274   20288643.5044
     -1396.6874
   -608173.14649   -471434.08647  23243341.8834   23243338.9304
      1176.5164
   1629983.03649   1250206.33348  22004368.0554   22004363.5944
     -3677.1564
    -96732.75749    -78409.30348  21328367.3674   21328364.3244
       111.7664
 04  9 17 20 53  0.0000000  0  6G 3G 8G13G19G23G27
    334649.57649    254278.12847  22860492.0004   22860489.8014
      -911.7034
   -651500.39249   -505133.13247  22398784.7664   22398782.4884
      1266.2194
    581784.82549    444858.10248  20292648.9144   20292644.8524
     -1406.8284
   -625761.28749   -485139.05947  23239995.2664   23239992.1994
      1168.7344
   1685200.28049   1293232.73148  22014875.5784   22014870.6294
     -3684.9844
    -98372.95149    -79687.35948  21328055.3834   21328051.9884
       107.1254
 04  9 17 20 53 15.0000000  0  6G 3G 8G13G19G23G27
    348411.81749    265001.98147  22863111.1094   22863108.8984
      -923.4224
   -670458.30349   -519905.51247  22395176.8594   22395174.2304
      1261.3754
    602963.04949    461360.61448  20296678.9224   20296674.7894
     -1417.0164
   -643234.65749   -498754.61447  23236669.7664   23236666.5234
      1160.9844
   1740532.41649   1336348.64548  22025404.9774   22025400.1644
     -3692.7974
    -99944.34249    -80911.81748  21327756.4384   21327753.3834
       102.3284
 04  9 17 20 53 30.0000000  0  6G 3G 8G13G19G23G27
    362350.32149    275863.14847  22865763.5474   22865760.7154
      -935.1414
   -689343.14649   -534620.93947  22391582.9694   22391580.8324
      1256.5944
    624295.23449    477983.09948  20300738.0784   20300734.2974
     -1427.2974
   -660590.15449   -512278.24747  23233366.3444   23233364.7344
      1153.0784
   1795982.01349   1379556.09948  22035956.5004   22035951.6254
     -3700.5314
   -101444.18649    -82080.50048  21327470.9384   21327468.3364
        97.5784
 04  9 17 20 53 45.0000000  0  6G 3G 8G13G19G23G27
    376464.26649    286861.03147  22868449.5864   22868447.6134
      -946.3914
   -708155.81049   -549280.14347  22388003.8134   22388000.7194
      1252.1094
    645780.42749    494724.79648  20304826.7974   20304822.5594
     -1437.0314
   -677828.50849   -525710.64247  23230086.8674   23230083.9804
      1145.7814
   1851547.96049   1422854.20248  22046530.4064   22046525.4184
     -3707.8914
   -102873.44549    -83194.21448  21327199.1954   21327195.8444
        93.2974
 04  9 17 20 54  0.0000000  0  6G 3G 8G13G19G23G27
    390749.44549    297992.35747  22871167.3134   22871165.6564
      -958.0314
   -726900.70449   -563886.52747  22384436.4064   22384434.1524
      1247.3134
    667414.53349    511582.55948  20308943.6884   20308939.6214
     -1447.3594
   -694953.49349   -539054.71547  23226828.6724   23226823.8134
      1137.8134
   1907225.97349   1466239.64448  22057125.7034   22057120.8834
     -3715.6564
   -104236.36449    -84256.20748  21326939.6484   21326936.7504
        88.5784
 04  9 17 20 54 15.0000000  0  6G 3G 8G13G19G23G27
    405204.53449    309256.09447  22873918.4694   22873916.0554
      -969.1254
   -745579.29249   -578441.24647  22380881.6804   22380878.8284
      1243.2504
    689196.22449    528555.29548  20313088.7584   20313085.1484
     -1456.8914
   -711966.22649   -552311.33647  23223590.7664   23223586.2664
      1130.6254
   1963014.46549   1509711.15648  22067742.6954   22067737.6054
     -3722.7504
   -105534.33849    -85267.61348  21326692.8754   21326689.7304
        84.5634
 04  9 17 20 54 30.0000000  0  6G 3G 8G13G19G23G27
    419827.23549    320650.39647  22876700.5084   22876698.5704
      -980.5004
   -764193.97049   -592946.15747  22377339.5314   22377336.9774
      1238.7194
    711123.10549    545641.18348  20317261.1644   20317257.3404
     -1466.7194
   -728868.85349   -565482.13847  23220374.2344   23220370.6484
      1123.1094
   2018910.76749   1553266.67348  22078378.7734   22078374.1294
     -3730.0784
   -106769.77849    -86230.28148  21326457.4224   21326454.1564
        80.2194
 04  9 17 20 54 45.0000000  0  6G 3G 8G13G19G23G27
    434618.85949    332176.35047  22879515.6334   22879513.1884
      -991.8284
   -782743.37449   -607400.21847  22373809.5704   22373807.0274
      1234.3444
    733196.58249    562841.28848  20321461.5164   20321457.3834
     -1476.5784
   -745659.82949   -578565.91547  23217178.4384   23217175.5554
      1115.5784
   2074915.92449   1596907.02648  22089035.9304   22089031.6604
     -3737.4694
   -107941.47149    -87143.28548  21326234.5634   21326231.1374
        75.9224
 04  9 17 20 55  0.0000000  0  6G 3G 8G13G19G23G27
    449577.50249    343832.43847  22882362.4774   22882359.7814
     -1002.7664
   -801229.29649   -621804.80447  22370291.9614   22370289.6134
      1230.2974
    755414.80649    580154.19648  20325689.6644   20325685.6214
     -1486.0004
   -762340.71749   -591563.93447  23214004.1024   23214001.2664
      1108.4064
   2131028.00249   1640630.69448  22099714.3284   22099709.6174
     -3744.2974
   -109051.21149    -88007.99948  21326023.5944   21326019.8594
        71.9384
 04  9 17 20 55 15.0000000  0  6G 3G 8G13G19G23G27
    464702.14649    355617.88347  22885240.1334   22885238.8204
     -1013.8124
   -819652.88249   -636160.81247  22366786.2344   22366783.5704
      1226.2814
    777776.75849    597579.08548  20329945.0234   20329940.9454
     -1495.5004
   -778912.14049   -604476.63747  23210850.4224   23210847.0824
      1101.2034
   2187245.72649   1684436.66348  22110411.8754   22110407.5984
     -3751.2504
   -110100.29049    -88825.46648  21325823.6804   21325820.4844
        67.9844
 04  9 17 20 55 30.0000000  0  6G 3G 8G13G19G23G27
    479991.54949    367531.72347  22888149.4454   22888147.3284
     -1025.0784
   -838015.50749   -650469.33847  22363291.6644   22363289.0984
      1221.8284
    800281.09449    615114.94248  20334227.3284   20334223.0084
     -1505.3284
   -795375.06349   -617304.81147  23207718.2584   23207714.7384
      1093.5784
   2243567.56349   1728323.77748  22121129.5474   22121125.3714
     -3758.5624
   -111089.88349    -89596.56148  21325635.3054   21325631.8754
        63.7664
 04  9 17 20 55 45.0000000  0  6G 3G 8G13G19G23G27
    495447.78749    379575.55647  22891091.1804   22891089.0354
     -1035.9374
   -856314.82549   -664728.51847  22359809.7584   22359806.9064
      1217.9224
    822929.93149    632763.38948  20338537.3834   20338533.1294
     -1514.7034
   -811727.09449   -630046.56847  23204606.5704   23204602.7894
      1086.4844
   2299995.39149   1772293.48948  22131867.8284   22131862.6054
     -3765.3284
   -112018.01449    -90319.76348  21325458.9694   21325455.7894
        59.9224
 04  9 17 20 56  0.0000000  0  6G 3G 8G13G19G23G27
    511067.94149    391747.11747  22894062.4064   22894061.5904
     -1046.7194
   -874553.98749   -678940.83147  22356338.4144   22356335.8954
      1213.9534
    845720.46749    650522.25348  20342874.2894   20342869.7734
     -1524.0314
   -827970.94249   -642704.02747  23201514.8914   23201511.6564
      1079.3284
   2356526.23249   1816343.46148  22142624.7194   22142620.4534
     -3772.0784
   -112887.56649    -90997.33648  21325293.4384   21325289.9534
        56.0784
 04  9 17 20 56 15.0000000  0  6G 3G 8G13G19G23G27
    526851.19849    404045.76347  22897066.5004   22897064.8284
     -1057.4534
   -892733.81749   -693106.92047  22352879.2274   22352876.5084
      1210.1724
    868651.78949    668390.81148  20347237.7664   20347233.4224
     -1533.2504
   -844107.10849   -655277.58647  23198443.9694   23198441.0274
      1072.3284
   2413159.02549   1860472.89048  22153402.0084   22153397.6024
     -3778.7664
   -113699.50449    -91630.00048  21325139.1724   21325135.8014
        52.3284
 04  9 17 20 56 30.0000000  0  6G 3G 8G13G19G23G27
    542794.52749    416469.15947  22900100.3674   22900098.6644
     -1068.1254
   -910857.30949   -707229.08947  22349430.4924   22349427.5084
      1206.4384
    891720.93149    686366.76848  20351627.7424   20351623.6684
     -1542.3914
   -860138.40649   -667769.42847  23195393.2504   23195390.0434
      1065.3594
   2469890.44849   1904679.15248  22164197.5084   22164193.1484
     -3785.2814
   -114456.87249    -92220.15448  21324994.7664   21324991.6334
        48.7814
 04  9 17 20 56 45.0000000  0  6G 3G 8G13G19G23G27
    558901.49749    429020.05947  22903165.8754   22903163.7304
     -1079.2664
   -928921.10849   -721304.76247  22345992.9924   22345990.1174
      1202.2664
    914931.40749    704452.85248  20356044.7114   20356039.9454
     -1552.0314
   -876060.97949   -680176.56947  23192363.5084   23192359.8094
      1057.9224
   2526723.67849   1948964.75348  22175012.5864   22175007.7114
     -3792.2344
   -115156.35649    -92765.19148  21324861.5704   21324858.3954
        44.6724
 04  9 17 20 57  0.0000000  0  6G 3G 8G13G19G23G27
    575170.44449    441697.17047  22906261.5314   22906259.4614
     -1090.1724
   -946926.84649   -735335.18647  22342566.8834   22342564.0474
      1198.3754
    938281.51249    722647.73148  20360488.0944   20360483.5044
     -1561.4064
   -891876.30949   -692500.13247  23189354.2274   23189350.4384
      1050.6564
   2583657.06549   1993328.40048  22185846.6564   22185842.1724
     -3799.0944
   -115799.48449    -93266.32648  21324739.1094   21324735.9384
        40.8594
 04  9 17 20 57 15.0000000  0  6G 3G 8G13G19G23G27
    591599.55349    454499.08247  22909388.0084   22909385.7384
     -1100.9224
   -964876.44949   -749321.86147  22339150.3134   22339148.3714
      1194.5164
    961769.53349    740950.09048  20364957.5944   20364953.0204
     -1570.7664
   -907585.68849   -704741.14747  23186364.1564   23186360.5704
      1043.5784
   2640688.46449   2037768.42148  22196699.8444   22196694.7894
     -3805.5944
   -116388.02149    -93724.92248  21324627.3284   21324624.2154
        37.1564
 04  9 17 20 57 30.0000000  0  6G 3G 8G13G19G23G27
    608188.97649    467425.93247  22912544.2114   22912542.5084
     -1111.2194
   -982769.75149   -763264.66547  22335745.8054   22335743.0704
      1191.1724
    985395.66149    759360.06248  20369453.4614   20369449.6524
     -1579.5474
   -923188.84149   -716899.36847  23183395.0004   23183391.5514
      1036.7814
   2697817.92349   2082284.85348  22207571.1484   22207566.8364
     -3811.8124
   -116922.07449    -94141.04848  21324525.8834   21324522.4384
        33.9224
 04  9 17 20 57 45.0000000  0  6G 3G 8G13G19G23G27
    624936.75149    480476.16347  22915731.8984   22915729.4574
     -1121.9224
  -1000608.77649   -777165.18347  22332350.8754   22332348.5634
      1187.3594
   1009157.82149    777876.03548  20373975.3204   20373970.9224
     -1588.8124
   -938687.37649   -728976.06947  23180445.5634   23180442.5084
      1029.6564
   2755043.26549   2126875.98348  22218460.5474   22218456.3164
     -3818.2664
   -117403.54449    -94516.20748  21324434.1644   21324430.5394
        30.2504
 04  9 17 20 58  0.0000000  0  6G 3G 8G13G19G23G27
    641845.47649    493651.79747  22918949.4614   22918947.4264
     -1132.6874
  -1018390.78549   -791021.28547  22328967.5704   22328964.7464
      1183.5784
   1033058.49349    796499.93348  20378523.2034   20378519.2814
     -1598.0164
   -954078.52249   -740969.09847  23177516.4614   23177513.8874
      1022.5314
   2812366.90149   2171543.70748  22229368.9304   22229364.5864
     -3824.9064
   -117829.90749    -94848.42848  21324352.6954   21324349.4144
        26.6094
 04  9 17 20 58 15.0000000  0  6G 3G 8G13G19G23G27
    658915.62849    506953.23347  22922197.2114   22922195.8984
     -1143.4064
  -1036115.26049   -804832.52847  22325594.5554   22325592.1914
      1179.7344
   1057098.41749    815232.34048  20383097.7664   20383093.5784
     -1607.3124
   -969361.43349   -752877.78747  23174608.7344   23174605.6094
      1015.2974
   2869789.07949   2216288.22748  22240296.3284   22240291.3714
     -3831.5164
   -118200.79349    -95137.42248  21324282.1334   21324278.9384
        22.8594
 04  9 17 20 58 30.0000000  0  6G 3G 8G13G19G23G27
    676143.67649    520377.71247  22925475.8594   22925474.0594
     -1153.9844
  -1053785.87749   -818601.82347  22322231.8284   22322229.3444
      1176.0474
   1081274.01849    834070.46748  20387698.4774   20387694.3324
     -1616.4374
   -984539.25649   -764704.60947  23171720.8754   23171717.4104
      1008.1724
   2927306.00149   2261106.59148  22251241.2734   22251236.0664
     -3837.8914
   -118519.62049    -95385.85348  21324221.3134   21324218.1954
        19.3444
 04  9 17 20 58 45.0000000  0  6G 3G 8G13G19G23G27
    693529.19549    533924.89447  22928784.4774   22928782.4614
     -1163.8594
  -1071403.05649   -832329.47347  22318879.6884   22318876.8364
      1173.1414
   1105585.03849    853014.12648  20392324.6644   20392320.5514
     -1624.8594
   -999612.07649   -776449.61747  23168852.2734   23168847.5944
      1001.7814
   2984917.22549   2305998.42048  22262204.5084   22262199.7894
     -3843.4374
   -118786.72849    -95593.97848  21324170.6724   21324167.2074
        16.4844
 04  9 17 20 59  0.0000000  0  6G 3G 8G13G19G23G27
    711068.24249    547591.70147  22932121.7894   22932119.6604
     -1174.7344
  -1088970.73249   -846018.55248  22315536.4924   22315534.3094
      1169.2664
   1130027.34049    872060.07148  20396975.9144   20396971.8164
     -1634.1724
  -1014583.73049   -788115.78847  23166003.1254   23165999.9884
       994.4384
   3042618.56249   2350960.47148  22273184.3754   22273179.5984
     -3850.0944
   -119006.38949    -95765.13848  21324128.8284   21324125.4454
        12.7664
 04  9 17 20 59 15.0000000  0  6G 3G 8G13G19G23G27
    728764.82049    561381.25447  22935489.3984   22935487.1294
     -1185.0784
  -1106484.94249   -859665.96548  22312203.5234   22312201.1914
      1165.7664
   1154604.97749    891211.47948  20401653.1254   20401648.8714
     -1643.1094
  -1029449.79149   -799699.68047  23163174.0704   23163170.7344
       987.4384
   3100413.65749   2395995.59348  22284182.5864   22284178.1214
     -3856.1724
   -119174.56449    -95896.16748  21324097.2034   21324093.5514
         9.4384
 04  9 17 20 59 30.0000000  0  6G 3G 8G13G19G23G27
    746619.39949    575293.93747  22938886.9064   22938884.8134
     -1195.6874
  -1123945.26849   -873271.38448  22308881.0164   22308878.3714
      1162.2034
   1179318.34649    910468.64948  20406355.7734   20406351.7194
     -1652.1564
  -1044209.67449   -811200.83147  23160365.0394   23160362.5204
       980.3594
   3158302.83549   2441104.01448  22295198.7424   22295194.3054
     -3862.5314
   -119290.78149    -95986.71748  21324074.5944   21324071.1374
         5.9224
 04  9 17 20 59 45.0000000  0  6G 3G 8G13G19G23G27
    764633.34549    589330.79547  22942314.9454   22942313.5824
     -1206.1564
  -1141350.30349   -886833.73247  22305568.8914   22305566.0234
      1158.5634
   1204168.96049    929832.76648  20411084.8914   20411080.2504
     -1661.2034
  -1058861.55949   -822617.81347  23157576.8204   23157574.2274
       973.2814
   3216287.33949   2486286.70248  22306232.6334   22306228.3404
     -3868.7194
   -119353.65149    -96035.69948  21324062.7664   21324059.0864
         2.4534
 04  9 17 21  0  0.0000000  0  6G 3G 8G13G19G23G27
    782805.13349    603490.65847  22945772.7194   22945771.3754
     -1216.4374
  -1158701.55349   -900354.17247  22302266.7814   22302263.7854
      1155.1884
   1229155.40349    949302.71748  20415839.1094   20415835.3204
     -1670.0004
  -1073406.66149   -833951.61647  23154808.8054   23154805.8484
       966.3914
   3274365.37149   2531542.26848  22317284.2584   22317280.6294
     -3874.7194
   -119364.73249    -96044.32148  21324060.7194   21324057.4654
        -0.6874
 04  9 17 21  0 15.0000000  0  6G 3G 8G13G19G23G27
    801133.90449    617772.84647  22949260.6094   22949259.1994
     -1226.9064
  -1175999.67049   -913833.20047  22298974.8204   22298972.5984
      1151.7344
   1254276.83749    968877.85748  20420620.1724   20420615.7974
     -1679.0004
  -1087845.48249   -845202.59347  23152061.8914   23152057.8324
       959.3134
   3332535.91849   2576869.94448  22328354.2734   22328349.7504
     -3880.8284
   -119324.96249    -96013.32148  21324068.3284   21324064.7234
        -4.0944
 04  9 17 21  0 30.0000000  0  6G 3G 8G13G19G23G27
    819616.38749    632174.77947  22952777.9384   22952775.8754
     -1237.4534
  -1193248.21349   -927273.59948  22295693.0474   22295689.9774
      1148.0944
   1279529.89349    988555.56648  20425425.5704   20425420.7704
     -1688.1254
  -1102181.00449   -856373.09247  23149333.1484   23149330.0234
       951.9844
   3390795.48949   2622266.97748  22339440.6724   22339436.4384
     -3887.1724
   -119237.53849    -95945.19348  21324085.0944   21324081.5394
        -7.6254
 04  9 17 21  0 45.0000000  0  6G 3G 8G13G19G23G27
    838259.68749    646702.04447  22956325.2664   22956323.0704
     -1248.0314
  -1210440.18249   -940669.92848  22292421.3914   22292418.3134
      1144.4224
   1304921.60149   1008341.32048  20430257.1564   20430253.0124
     -1697.2034
  -1116406.06949   -867457.51147  23146627.0864   23146623.0164
       944.8444
   3449151.02149   2667738.79248  22350545.1334   22350540.9414
     -3893.3754
   -119095.52249    -95834.52548  21324112.0944   21324108.5394
       -11.0944
 04  9 17 21  1  0.0000000  0  6G 3G 8G13G19G23G27
    857059.05749    661350.93047  22959902.7814   22959900.7624
     -1258.5944
  -1227580.04649   -954025.64648  22289159.7894   22289157.8794
      1140.9064
   1330447.41349   1028231.55048  20435114.7194   20435109.9734
     -1706.2034
  -1130524.88149   -878459.14347  23143939.9454   23143935.9184
       937.6254
   3507597.52949   2713281.50148  22361667.2424   22361662.3984
     -3899.5164
   -118903.57049    -95684.93748  21324148.4454   21324145.2664
       -14.5164
 04  9 17 21  1 15.0000000  0  6G 3G 8G13G19G23G27
    876012.86649    676120.15547  22963509.5084   22963507.9694
     -1268.7344
  -1244669.47449   -967342.05648  22285907.9844   22285904.9654
      1137.5314
   1356105.77749   1048225.08348  20439997.3444   20439993.1134
     -1715.0164
  -1144538.77849   -889379.01047  23141272.8674   23141269.7424
       930.6884
   3566133.37249   2758893.81747  22372806.1884   22372801.8554
     -3905.4374
   -118663.26849    -95497.67948  21324194.1094   21324190.6414
       -17.6414
 04  9 17 21  1 30.0000000  0  6G 3G 8G13G19G23G27
    895123.14049    691011.30147  22967145.7504   22967144.3714
     -1279.1414
  -1261706.54749   -980617.67748  22282665.9304   22282662.5984
      1134.2034
   1381898.53449   1068323.33748  20444905.3524   20444900.9774
     -1723.8594
  -1158445.48949   -900215.37347  23138626.7894   23138623.4884
       923.6414
   3624760.25449   2804577.07847  22383962.4534   22383958.1214
     -3911.3444
   -118372.80349    -95271.33148  21324249.4304   21324245.7234
       -20.9534
 04  9 17 21  1 45.0010000  0  6G 3G 8G13G19G23G27
    914389.49249    706024.05547  22970812.9194   22970810.8174
     -1289.4064
  -1278694.09849   -993854.70648  22279432.8564   22279430.4034
      1130.6564
   1407825.79049   1088526.39348  20449838.9974   20449835.0484
     -1732.7974
  -1172247.29749   -910969.98747  23136000.1464   23135996.4784
       916.4844
   3683480.14849   2850332.81847  22395136.6144   22395131.8604
     -3917.3914
   -118033.72649    -95007.10948  21324314.0134   21324310.5834
       -24.2194
 04  9 17 21  2  0.0010000  0  6G 3G 8G13G19G23G27
    933807.46249    721154.97347  22974507.5674   22974505.6494
     -1299.8754
  -1295631.79649  -1007052.88848  22276210.1304   22276207.0874
      1127.2664
   1433882.18849   1108830.08948  20454797.2084   20454793.3374
     -1741.7814
  -1185944.02049   -921642.72447  23133394.1774   23133390.6104
       909.3914
   3742283.20649   2896153.35447  22406326.4664   22406321.6384
     -3923.3754
   -117648.02749    -94706.54648  21324387.4424   21324384.2084
       -27.5314
 04  9 17 21  2 15.0010000  0  6G 3G 8G13G19G23G27
    953380.15349    736406.44747  22978231.9034   22978230.3414
     -1309.9844
  -1312518.88049  -1020211.62448  22272996.3804   22272993.8804
      1124.1724
   1460071.37449   1129237.24348  20459781.2164   20459777.1384
     -1750.3594
  -1199534.40449   -932232.60047  23130807.8254   23130803.7744
       902.4694
   3801175.03949   2942043.06347  22417533.3644   22417528.8494
     -3929.0164
   -117213.84349    -94368.21448  21324469.9974   21324466.1494
       -30.5314
 04  9 17 21  2 30.0010000  0  6G 3G 8G13G19G23G27
    973104.54149    751776.09847  22981985.4424   22981983.1964
     -1320.0474
  -1329358.42249  -1033333.32148  22269791.9354   22269789.3964
      1121.0944
   1486390.19649   1149745.41548  20464789.4274   20464785.1654
     -1758.9694
  -1213021.19549   -942741.75047  23128240.8174   23128237.1774
       895.7034
   3860152.31049   2987999.34748  22428756.8804   22428751.5794
     -3934.7344
   -116734.32849    -93994.55848  21324561.2084   21324558.0834
       -33.5164
 04  9 17 21  2 45.0010000  0  6G 3G 8G13G19G23G27
    992983.05749    767265.88447  22985767.9584   22985766.4074
     -1330.3444
  -1346147.91249  -1046416.01048  22266596.7474   22266593.9814
      1117.5784
   1512841.26549   1170356.64148  20469822.9194   20469818.9504
     -1767.8284
  -1226401.72949   -953168.10147  23125694.3724   23125690.6734
       888.3914
   3919217.21749   3034023.93348  22439996.3644   22439991.7864
     -3940.6414
   -116206.96949    -93583.61348  21324661.6384   21324658.0794
       -36.8444
 04  9 17 21  3  0.0010000  0  6G 3G 8G13G19G23G27
   1013016.81249    782876.61647  22989580.1854   22989578.7434
     -1340.8284
  -1362886.13049  -1059458.74848  22263411.9974   22263408.9704
      1114.1094
   1539425.64049   1191071.74548  20474881.7554   20474877.6884
     -1776.7664
  -1239674.47549   -963510.47947  23123169.3884   23123165.5444
       881.1724
   3978370.73849   3080117.54648  22451253.2394   22451248.4814
     -3946.5944
   -115630.60249    -93134.49048  21324771.4354   21324767.6264
       -40.1564
 04  9 17 21  3 15.0010000  0  6G 3G 8G13G19G23G27
   1033204.07649    798606.98247  22993421.6854   22993420.1494
     -1350.7974
  -1379574.88449  -1072462.93347  22260235.9744   22260233.3764
      1111.1094
   1566141.72049   1211889.46848  20479965.6064   20479961.4744
     -1785.2814
  -1252840.85949   -973769.95747  23120663.5284   23120660.5364
       874.5004
   4037611.02649   3126278.78348  22462525.9274   22462521.5284
     -3952.0624
   -115007.00849    -92648.56348  21324890.0364   21324886.7474
       -43.0004
 04  9 17 21  3 30.0010000  0  6G 3G 8G13G19G23G27
   1053541.63449    814454.43847  22997291.5364   22997290.0754
     -1360.8594
  -1396217.30049  -1085431.02748  22257068.6614   22257065.7864
      1107.8914
   1592986.21649   1232807.25148  20485074.3104   20485069.9584
     -1793.9694
  -1265903.86849   -983948.90147  23118177.3254   23118174.1574
       867.3914
   4096934.61049   3172504.91248  22473814.7714   22473810.2244
     -3957.6724
   -114339.46849    -92128.38848  21325016.8964   21325013.1534
       -45.9534
 04  9 17 21  3 45.0010000  0  6G 3G 8G13G19G23G27
   1074030.46649    830419.79447  23001189.8804   23001189.5524
     -1371.1094
  -1412812.50049  -1098362.31848  22253911.2164   22253908.1034
      1104.6414
   1619960.15349   1253825.91748  20490207.0524   20490202.6884
     -1802.6724
  -1278862.18149   -994046.24447  23115711.7784   23115709.0524
       860.2814
   4156342.42749   3218796.69648  22485119.4974   22485115.4154
     -3963.4064
   -113626.94749    -91573.16748  21325152.3024   21325149.0404
       -49.0944
 04  9 17 21  4  0.0010000  0  6G 3G 8G13G19G23G27
   1094674.20749    846505.84147  23005119.3024   23005117.6854
     -1381.4374
  -1429356.83549  -1111253.98247  22250762.7864   22250759.5834
      1101.2194
   1647066.99949   1274948.13148  20495365.1774   20495361.1264
     -1811.6094
  -1291711.83649  -1004058.93047  23113266.7394   23113263.7314
       853.0634
   4215837.73649   3265156.63747  22496440.7394   22496436.9114
     -3969.3124
   -112865.83449    -90980.07948  21325297.3254   21325294.1144
       -52.3284
 04  9 17 21  4 15.0010000  0  6G 3G 8G13G19G23G27
   1115470.63349    862710.86347  23009076.6854   23009074.8724
     -1391.5314
  -1445852.23049  -1124107.52748  22247623.8804   22247620.9784
      1098.0314
   1674304.83649   1296172.41948  20500548.4974   20500544.2714
     -1820.2504
  -1304454.69749  -1013988.39347  23110841.1774   23110838.1534
       845.8914
   4275418.25649   3311582.98647  22507778.5834   22507774.3994
     -3974.8754
   -112058.30549    -90350.83348  21325450.9424   21325447.3764
       -55.4064
 04  9 17 21  4 30.0010000  0  6G 3G 8G13G19G23G27
   1136417.79049    879033.33647  23013062.8104   23013060.7674
     -1401.3594
  -1462300.79049  -1136924.54748  22244493.2784   22244490.3644
      1095.1414
   1701671.79549   1317497.32648  20505756.1924   20505751.7004
     -1828.6874
  -1317092.36549  -1023835.91547  23108436.6854   23108432.8064
       839.0944
   4335081.87849   3358074.10147  22519132.3174   22519127.7044
     -3980.2664
   -111206.26149    -89686.88348  21325613.1304   21325609.7944
       -58.1874
 04  9 17 21  4 45.0010000  0  6G 3G 8G13G19G23G27
   1157518.13249    895475.16847  23017077.7554   23017075.7474
     -1411.5474
  -1478700.08549  -1149703.20348  22241372.6384   22241370.1184
      1091.9384
   1729170.28149   1338924.71248  20510988.6774   20510984.6344
     -1837.3284
  -1329622.06349  -1033599.28047  23106052.3254   23106049.0404
       831.9844
   4394830.88349   3404631.74648  22530502.8804   22530497.9974
     -3985.7664
   -110307.14449    -88986.26548  21325783.9354   21325780.5244
       -61.2034
 04  9 17 21  5  0.0010000  0  6G 3G 8G13G19G23G27
   1178772.98549    912037.41047  23021122.4504   23021120.2594
     -1422.1254
  -1495048.97049  -1162442.55848  22238261.3724   22238259.1424
      1088.2034
   1756801.55049   1360455.57948  20516246.7634   20516243.0404
     -1846.5314
  -1342042.21949  -1043277.29947  23103689.8414   23103685.8374
       824.3444
   4454666.38549   3451256.78248  22541888.5284   22541884.3884
     -3991.8914
   -109359.86649    -88248.11548  21325964.4194   21325960.6464
       -64.7664
 04  9 17 21  5 15.0010000  0  6G 3G 8G13G19G23G27
   1200179.35649    928717.72947  23025196.1854   23025193.9894
     -1432.2034
  -1511350.23449  -1175144.81648  22235159.5914   22235157.1034
      1085.1884
   1784562.61749   1382087.57848  20521529.9664   20521525.6534
     -1855.0944
  -1354355.60349  -1052872.10147  23101345.5444   23101342.1854
       817.2664
   4514585.12449   3497946.67947  22553291.4664   22553287.0364
     -3997.4224
   -108367.26249    -87474.64848  21326153.2714   21326150.0834
       -67.7814
 04  9 17 21  5 30.0010000  0  6G 3G 8G13G19G23G27
   1221735.71949    945514.89247  23029298.6224   23029296.3294
     -1442.2034
  -1527605.38849  -1187811.13448  22232066.4504   22232064.3724
      1082.0164
   1812452.15049   1403819.68048  20526836.9744   20526832.9784
     -1863.7194
  -1366563.26549  -1062384.54347  23099022.9114   23099019.4194
       810.2344
   4574585.52349   3544700.19247  22564708.7944   22564704.1224
     -4002.8284
   -107330.82749    -86667.02348  21326350.5364   21326346.8024
       -70.5944
 04  9 17 21  5 45.0010000  0  6G 3G 8G13G19G23G27
   1243444.86349    962431.13847  23033429.5674   23033427.4814
     -1452.4064
  -1543811.31949  -1200439.10648  22228982.9894   22228980.1884
      1078.6884
   1840472.96849   1425654.07948  20532169.2634   20532164.6814
     -1872.4694
  -1378662.11149  -1071812.19147  23096720.6384   23096717.2824
       802.8914
   4634670.24049   3591519.42748  22576142.4114   22576138.4354
     -4008.5004
   -106247.77749    -85823.07848  21326556.5674   21326553.9154
       -73.8594
 04  9 17 21  6  0.0010000  0  7G 3G 8G13G19G23G27G28
   1265305.19149    979465.17647  23037589.4274   23037587.0954
     -1462.5004
  -1559970.10749  -1213030.34948  22225907.6464   22225905.3924
      1075.5634
   1868623.39649   1447589.49248  20537526.2244   20537521.7634
     -1881.1254
  -1390653.57449  -1081156.14347  23094438.1854   23094434.8604
       795.7344
   4694837.29449   3638402.80947  22587591.5364   22587587.2394
     -4013.9374
   -105119.74849    -84944.08548  21326771.3024   21326767.2514
       -76.7974
    -98113.10659    -75389.16056  24440624.5674   24440624.5794
      2277.1254
 04  9 17 21  6 15.0010000  0  7G 3G 8G13G19G23G27G28
   1287315.94249    996616.41847  23041777.5994   23041775.5874
     -1472.2194
  -1576081.97449  -1225585.01148  22222841.7314   22222839.0564
      1072.6884
   1896902.72049   1469625.32148  20542907.3414   20542903.7784
     -1889.4694
  -1402537.99149  -1090416.69247  23092176.9354   23092173.3764
       788.8914
   4755085.90749   3685349.75447  22599056.8104   22599052.5284
     -4019.1724
   -103947.53349    -84030.66648  21326994.1694   21326991.0674
       -79.5474
   -132249.25849   -101988.56346  24434129.0994   24434128.5634
      2274.3134
 04  9 17 21  6 30.0010000  0  7G 3G 8G13G19G23G27G28
   1309478.19849   1013885.72047  23045994.4814   23045992.8564
     -1482.3284
  -1592146.05049  -1238102.45648  22219784.6464   22219781.9424
      1069.4844
   1925311.94649   1491762.38548  20548313.2164   20548309.4034
     -1898.1094
  -1414313.90549  -1099592.71447  23089936.1924   23089931.9314
       781.6094
   4815416.86349   3732360.84948  22610537.5134   22610532.6264
     -4024.5474
   -102729.93249    -83081.87448  21327226.1144   21327222.6814
       -82.5164
   -166339.16649   -128552.06347  24427642.0364   24427641.5244
      2271.3134
 04  9 17 21  6 45.0010000  0  7G 3G 8G13G19G23G27G28
   1331790.31649   1031271.80547  23050240.5054   23050239.0634
     -1492.4064
  -1608163.93549  -1250583.90148  22216736.7944   22216733.7594
      1066.3754
   1953849.49549   1513999.43748  20553744.0214   20553739.8924
     -1906.7034
  -1425982.75549  -1108685.29947  23087715.5914   23087712.1184
       774.3594
   4875828.60249   3779434.90648  22622033.3964   22622029.2744
     -4030.0474
   -101468.69349    -82099.08248  21327466.0914   21327462.7314
       -85.4844
   -200384.24849   -155080.53646  24421163.5284   24421162.6854
      2268.2344
 04  9 17 21  7  0.0010000  0  7G 3G 8G13G19G23G27G28
   1354253.45249   1048775.56947  23054514.8104   23054513.8104
     -1502.6874
  -1624134.31749  -1263028.33448  22213697.7784   22213694.6144
      1063.0164
   1982516.59149   1536337.43348  20559199.3254   20559194.9114
     -1915.5314
  -1437542.97049  -1117693.23447  23085515.8174   23085511.5794
       766.9534
   4936321.91649   3826572.51448  22633545.2004   22633540.1734
     -4035.7664
   -100162.49749    -81081.25848  21327714.5284   21327711.2824
       -88.6724
   -234383.00949   -181573.01146  24414692.9744   24414693.1264
      2264.9694
 04  9 17 21  7 15.0010000  0  7G 3G 8G13G19G23G27G28
   1376871.65549   1066400.14347  23058819.9814   23058817.7314
     -1512.7664
  -1640053.51049  -1275432.87248  22210668.2634   22210665.2314
      1059.7814
   2011317.22349   1558779.48148  20564679.6064   20564675.4854
     -1924.2504
  -1448990.33949  -1126613.22947  23083337.3024   23083333.7784
       759.6254
   4996900.55949   3873776.61447  22645073.1534   22645068.5444
     -4041.1874
    -98807.35749    -80025.30348  21327972.6924   21327969.2554
       -91.6874
   -268331.41449   -208026.17446  24408233.0604   24408232.1384
      2261.7504
 04  9 17 21  7 30.0010000  0  7G 3G 8G13G19G23G27G28
   1399638.46149   1084140.52647  23063152.0054   23063149.9384
     -1522.6254
  -1655927.43749  -1287802.15248  22207647.5524   22207644.1064
      1056.9224
   2040245.12249   1581320.70348  20570184.4744   20570179.9974
     -1932.7034
  -1460330.88049  -1135449.97347  23081179.0444   23081175.7904
       752.6094
   5057558.07749   3921042.19847  22656615.6774   22656610.8764
     -4046.3124
    -97409.68549    -78936.19148  21328238.0674   21328235.0214
       -94.4064
   -302235.63649   -234444.89946  24401780.7944   24401780.3644
      2259.0944
 04  9 17 21  7 45.0010000  0  7G 3G 8G13G19G23G27G28
   1422553.50949   1101996.44247  23067511.9814   23067511.1424
     -1532.5164
  -1671756.55149  -1300136.49748  22204635.3254   22204632.1384
      1053.8444
   2069299.95549   1603960.83748  20575713.3174   20575709.5244
     -1941.1724
  -1471564.59349  -1144203.49447  23079041.8644   23079038.0134
       745.4064
   5118293.96549   3968368.82447  22668173.3334   22668168.7204
     -4051.5474
    -95969.72449    -77814.14248  21328512.3254   21328509.1224
       -97.3914
   -336095.81149   -260829.36446  24395337.5444   24395337.3174
      2256.0004
 04  9 17 21  8  0.0010000  0  7G 3G 8G13G19G23G27G28
   1445619.20449   1119969.71347  23071901.3724   23071899.6224
     -1542.5474
  -1687538.71749  -1312434.27648  22201631.9114   22201628.9354
      1050.6724
   2098484.06649   1626701.69948  20581267.0524   20581262.6534
     -1949.6874
  -1482688.88049  -1152871.72847  23076924.5364   23076920.8024
       738.1254
   5179110.47949   4015758.27747  22679746.1694   22679741.6304
     -4056.9064
    -94485.13449    -76657.31048  21328794.4424   21328791.5444
      -100.3124
   -369909.39749   -287177.48846  24388902.7004   24388903.5634
      2252.8444
 04  9 17 21  8 15.0010000  0  7G 3G 8G13G19G23G27G28
   1468834.01449   1138059.19347  23076319.1064   23076317.0444
     -1552.6254
  -1703275.01049  -1324696.29948  22198637.4974   22198634.9234
      1047.6414
   2127796.14649   1649542.28048  20586844.9504   20586840.3564
     -1958.3754
  -1493704.77949  -1161455.50847  23074828.8024   23074824.8254
       730.8284
   5240005.88149   4063209.21147  22691333.7944   22691329.6694
     -4062.3124
    -92957.24849    -75466.73748  21329085.7784   21329082.1184
      -103.2814
   -403677.48949   -313490.15146  24382477.3644   24382476.9424
      2249.7194
 04  9 17 21  8 30.0010000  0  7G 3G 8G13G19G23G27G28
   1492197.33149   1156264.39147  23080764.5754   23080763.2164
     -1562.5624
  -1718965.95949  -1336922.99448  22195651.5214   22195648.4664
      1044.5004
   2157235.41149   1672481.97048  20592447.2244   20592442.7864
     -1966.8754
  -1504612.64949  -1169955.12147  23072752.6534   23072749.1184
       723.5634
   5300979.46949   4110721.05547  22702936.9034   22702933.0284
     -4067.5314
    -91386.80549    -74243.00948  21329384.2634   21329381.0524
      -106.1564
   -437400.60849   -339767.74546  24376060.0054   24376059.1034
      2246.6724
 04  9 17 21  8 45.0010000  0  7G 3G 8G13G19G23G27G28
   1515711.13449   1174586.84547  23085239.5604   23085238.0214
     -1572.4064
  -1734609.65449  -1349112.85048  22192675.0604   22192672.0604
      1041.4844
   2186804.00049   1695522.42848  20598073.5834   20598069.6034
     -1975.3754
  -1515410.08549  -1178368.66747  23070698.0754   23070694.1574
       716.3594
   5362032.98949   4158295.18847  22714555.3174   22714551.5754
     -4072.7664
    -89771.62349    -72984.40648  21329691.7314   21329688.4194
      -109.0164
   -471076.46949   -366008.63246  24369651.4504   24369650.5714
      2243.7034
 04  9 17 21  9  0.0010000  0  8G 3G 8G13G19G23G27G28G10
   1539371.96749   1193023.87247  23089742.8804   23089740.2394
     -1582.4064
  -1750209.58149  -1361268.61548  22189705.8564   22189702.4234
      1038.4224
   2216498.41349   1718660.93248  20603724.2714   20603720.3724
     -1983.9374
  -1526100.44449  -1186698.77347  23068663.4354   23068659.7784
       708.9844
   5423162.66549   4205928.67047  22726188.0054   22726183.9584
     -4077.9844
    -88115.36549    -71693.80848  21330006.5364   21330003.5674
      -111.8914
   -504708.55349   -392215.30546  24363251.0444   24363250.7354
      2240.5164
    -38729.73659    -32719.75556  24386983.2084   24386980.9154
       910.4534
 04  9 17 21  9 15.0010000  0  8G 3G 8G13G19G23G27G28G10
   1563180.34149   1211575.86947  23094272.6534   23094270.7474
     -1592.3124
  -1765765.16449  -1373389.83648  22186745.9894   22186743.4154
      1035.3594
   2246319.21049   1741897.91648  20609398.8884   20609394.6534
     -1992.4694
  -1536682.74949  -1194944.69947  23066650.1064   23066645.6264
       701.7504
   5484369.01749   4253621.89947  22737835.3644   22737831.0214
     -4083.1724
    -86417.23349    -70370.58848  21330329.7944   21330327.1964
      -114.7814
   -538296.03149   -418387.25546  24356859.6144   24356858.5484
      2237.5314
    -52326.38349    -43314.54846  24384395.8104   24384393.0754
       902.0944
 04  9 17 21  9 30.0010000  0  8G 3G 8G13G19G23G27G28G10
   1587137.35749   1230243.68647  23098831.4354   23098829.6774
     -1602.3284
  -1781275.28249  -1385475.62348  22183794.4194   22183791.5404
      1032.2664
   2276267.58549   1765234.30948  20615098.0754   20615093.4384
     -2001.1094
  -1547155.51149  -1203105.24047  23064656.5364   23064652.9784
       694.2814
   5545652.96049   4301375.57647  22749497.3024   22749493.1264
     -4088.4224
    -84676.21849    -69013.94848  21330661.5284   21330657.7784
      -117.7664
   -571837.59149   -444523.42747  24350476.8804   24350475.9544
      2234.3754
    -65797.42749    -53811.41946  24381832.3804   24381829.9074
       893.6884
 04  9 17 21  9 45.0010000  0  8G 3G 8G13G19G23G27G28G10
   1611246.83549   1249030.31347  23103419.5754   23103417.9194
     -1612.4064
  -1796735.92349  -1397522.84848  22180852.1064   22180849.0754
      1029.0944
   2306347.38149   1788673.11948  20620822.1854   20620817.9854
     -2009.6564
  -1557514.68949  -1211177.29047  23062685.3884   23062681.7554
       686.8134
   5607018.14549   4349192.57147  22761174.4894   22761170.8134
     -4093.6724
    -82888.37849    -67620.80548  21331001.5364   21330998.2244
      -120.6564
   -605329.14949   -470620.65946  24344103.0994   24344102.9424
      2231.1254
    -79138.70349    -64207.23447  24379293.7944   24379291.0954
       885.1414
 04  9 17 21 10  0.0010000  0  8G 3G 8G13G19G23G27G28G10
   1635505.85349   1267933.44747  23108035.3884   23108034.1144
     -1622.3284
  -1812150.04549  -1409533.83448  22177918.9664   22177916.0564
      1025.9534
   2336555.68349   1812212.04648  20626570.9504   20626566.2944
     -2018.2504
  -1567762.80749  -1219162.79747  23060735.2864   23060731.8254
       679.3914
   5668461.54149   4397070.50147  22772867.1534   22772862.3994
     -4098.9064
    -81056.59349    -66193.44548  21331350.0284   21331346.9854
      -123.6254
   -638773.37549   -496680.96647  24337739.3804   24337738.7124
      2227.9534
    -92352.94749    -74504.03246  24376778.6614   24376776.5284
       876.7974
 04  9 17 21 10 15.0010000  0  8G 3G 8G13G19G23G27G28G10
   1659912.28049   1286951.46247  23112680.8334   23112678.4034
     -1632.0784
  -1827519.88649  -1421510.32148  22174994.5914   22174991.1964
      1023.1414
   2366890.40849   1835849.50748  20632342.8254   20632338.6614
     -2026.5164
  -1577901.80849  -1227063.26847  23058805.8804   23058801.7314
       672.2814
   5729980.73849   4445007.50147  22784573.3174   22784569.7944
     -4103.8444
    -79183.02749    -64733.51548  21331706.3564   21331703.3374
      -126.2814
   -672172.26049   -522705.97847  24331384.0444   24331382.7904
      2225.1094
   -105441.99549    -84703.24746  24374287.5834   24374285.2984
       868.3754
 04  9 17 21 10 30.0010000  0  8G 3G 8G13G19G23G27G28G10
   1684467.86049   1306085.69947  23117352.5444   23117350.7824
     -1642.1564
  -1842843.29349  -1433450.60848  22172078.2784   22172074.7674
      1019.7974
   2397353.35749   1859586.86248  20638139.7314   20638135.6534
     -2035.3914
  -1587929.46449  -1234876.96647  23056897.1384   23056894.1964
       664.5784
   5791577.32849   4493004.81347  22796294.4034   22796290.9074
     -4109.1874
    -77265.91549    -63239.65448  21332071.2554   21332068.0094
      -129.4534
   -705523.85749   -548694.11246  24325035.8884   24325035.4034
      2221.7814
   -118403.96849    -94803.49746  24371821.4584   24371818.8534
       859.7194
 04  9 17 21 10 45.0010000  0  8G 3G 8G13G19G23G27G28G10
   1709171.58549   1325335.35347  23122055.0604   23122052.1774
     -1651.8284
  -1858121.26649  -1445355.50548  22169171.2244   22169167.7434
      1017.0474
   2427943.59249   1883423.40248  20643961.2714   20643956.8214
     -2043.5314
  -1597846.51249  -1242604.50647  23055010.7554   23055006.5914
       657.5164
   5853250.35249   4541061.66947  22808030.6224   22808026.6184
     -4113.9694
    -75306.19549    -61712.59048  21332444.3174   21332441.1494
      -132.0314
   -738828.97849   -574646.03047  24318698.4974   24318698.0954
      2218.9064
   -131239.47149   -104805.17447  24369378.7084   24369376.8024
       851.6094
 04  9 17 21 11  0.0010000  0  8G 3G 8G13G19G23G27G28G10
   1734021.86349   1344699.22147  23126782.4274   23126781.0134
     -1661.6414
  -1873355.41549  -1457226.24748  22166272.0524   22166268.3844
      1014.1094
   2458659.53149   1907357.90648  20649806.1694   20649801.6264
     -2051.9374
  -1607654.06149  -1250246.68947  23053143.6694   23053140.4354
       650.2034
   5914997.99049   4589176.67247  22819780.8414   22819776.7984
     -4119.0624
    -73305.18949    -60153.34948  21332825.1614   21332822.0714
      -134.7974
   -772088.78449   -600562.66647  24312370.6614   24312369.3254
      2215.7814
   -143949.74949   -114709.25647  24366960.5054   24366957.2984
       843.1254
 04  9 17 21 11 15.0010000  0  8G 3G 8G13G19G23G27G28G10
   1759020.69049   1364178.82847  23131539.6064   23131537.9584
     -1671.6254
  -1888543.65949  -1469061.22248  22163381.7004   22163379.0174
      1010.9534
   2489503.23349   1931391.95648  20655675.5834   20655671.4384
     -2060.5474
  -1617349.91049  -1257801.85347  23051298.9504   23051295.0524
       642.5784
   5976822.10749   4637351.25447  22831545.7394   22831541.6924
     -4124.1254
    -71260.97249    -58560.45148  21333214.3804   21333211.1034
      -137.7504
   -805301.13749   -626442.34247  24306050.2244   24306049.1304
      2212.5634
   -156532.61749   -124514.08846  24364565.4974   24364563.2354
       834.4694
 04  9 17 21 11 30.0010000  0  8G 3G 8G13G19G23G27G28G10
   1784169.68549   1383775.48547  23136325.5284   23136323.9424
     -1681.4374
  -1903684.12949  -1480858.96448  22160500.5914   22160497.2244
      1008.0004
   2520476.25649   1955526.78148  20661569.7394   20661565.7824
     -2069.0314
  -1626932.19149  -1265268.53447  23049475.6304   23049471.5174
       635.2504
   6038724.16249   4685586.60347  22843325.7714   22843321.3254
     -4129.1874
    -69171.84549    -56932.54148  21333611.9814   21333608.3924
      -140.5624
   -838464.24449   -652283.62147  24299738.5054   24299738.3024
      2209.4534
   -168986.30049   -134218.26546  24362195.6694   24362193.4154
       826.1414
 04  9 17 21 11 45.0010000  0  8G 3G 8G13G19G23G27G28G10
   1809466.74349   1403487.49447  23141139.6614   23141137.6064
     -1691.2344
  -1918779.04849  -1492621.21848  22157628.0604   22157625.0094
      1004.9844
   2551576.48249   1979760.71948  20667487.6614   20667483.7084
     -2077.5004
  -1636402.56249  -1272647.98547  23047672.7394   23047669.1494
       627.8134
   6100701.80949   4733880.83647  22855119.2004   22855115.5954
     -4134.2344
    -67040.05049    -55271.39748  21334017.2314   21334013.5834
      -143.4374
   -871580.14649   -678088.11147  24293437.0674   24293435.9744
      2206.3754
   -181312.68449   -143823.22546  24359849.9034   24359847.8534
       817.5944
 04  9 17 21 12  0.0010000  0  8G 3G 8G13G19G23G27G28G10
   1834911.71649   1423314.75147  23145981.2554   23145979.6144
     -1701.2194
  -1933828.62149  -1504348.14648  22154764.4424   22154761.5054
      1001.7814
   2582804.02149   2004093.88048  20673430.3564   20673425.9114
     -2086.0624
  -1645760.92749  -1279940.14647  23045892.3494   23045888.7984
       620.2034
   6162754.87049   4782233.82947  22866927.7864   22866923.2594
     -4139.2814
    -64865.42949    -53576.88548  21334430.9584   21334427.8454
      -146.3594
   -904648.53149   -703855.58347  24287144.0524   24287143.2634
      2203.0314
   -193511.64949   -153328.90647  24357529.5834   24357527.0524
       809.0474
 04  9 17 21 12 15.0010000  0  8G 3G 8G13G19G23G27G28G10
   1860505.11749   1443257.66047  23150851.6854   23150849.4314
     -1711.2814
  -1948832.04849  -1516039.10448  22151909.4034   22151906.0404
       998.5474
   2614159.25449   2028526.52148  20679396.7944   20679392.3134
     -2094.7664
  -1655006.39549  -1287144.37247  23044133.1464   23044128.4274
       612.4694
   6224883.63249   4830645.81947  22878751.0914   22878746.5484
     -4144.6414
    -62647.54649    -51848.65248  21334852.8884   21334849.8454
      -149.4374
   -937668.77049   -729585.53747  24280860.5914   24280859.4894
      2199.5474
   -205582.34449   -162734.59347  24355232.4354   24355229.6734
       800.1414
 04  9 17 21 12 30.0010000  0  8G 3G 8G13G19G23G27G28G10
   1886245.68849   1463315.26047  23155750.4584   23155747.7784
     -1721.2194
  -1963790.57749  -1527695.08048  22149062.7714   22149059.7944
       995.4384
   2645641.05549   2053057.78748  20685387.9274   20685383.1814
     -2103.3124
  -1664139.68849  -1294261.17647  23042395.0994   23042391.6144
       604.8444
   6287086.56449   4879115.60047  22890587.1614   22890583.4274
     -4149.5944
    -60387.53749    -50087.59548  21335283.2784   21335280.3844
      -152.3594
   -970641.88749   -755278.75547  24274585.4584   24274584.6464
      2196.3594
   -217525.82849   -172041.22347  24352959.3174   24352956.6264
       791.7974
 04  9 17 21 12 45.0010000  0  8G 3G 8G13G19G23G27G28G10
   1912137.28049   1483490.53347  23160676.9194   23160674.9274
     -1731.1254
  -1978700.21949  -1539312.95948  22146225.4354   22146222.6304
       992.3444
   2677253.36249   2077690.75548  20691403.3174   20691398.9384
     -2111.8914
  -1673156.87149  -1301287.50347  23040679.4974   23040675.0244
       597.2814
   6349367.46449   4927646.12447  22902438.8564   22902435.6494
     -4154.7504
    -58081.47949    -48290.65548  21335722.2164   21335718.5994
      -155.3124
  -1003563.83349   -780932.14247  24268321.6064   24268320.1144
      2193.1254
   -229338.06749   -181245.54247  24350711.8024   24350709.0564
       783.1884
 04  9 17 21 13  0.0010000  0  8G 3G 8G13G19G23G27G28G10
   1938175.76149   1503780.26947  23165632.0604   23165630.2314
     -1740.7194
  -1993565.07449  -1550895.93148  22143396.5754   22143393.5524
       989.4694
   2708992.15049   2102422.27848  20697442.5604   20697438.6574
     -2120.1094
  -1682061.67549  -1308226.26047  23038984.7474   23038980.7824
       589.8914
   6411722.21849   4976234.20847  22914304.3174   22914300.9384
     -4159.5474
    -55733.28249    -46460.88848  21336169.4974   21336165.9424
      -157.9534
  -1036438.31349   -806548.50247  24262065.2634   24262064.5214
      2190.0634
   -241022.74949   -190350.48946  24348487.7394   24348485.6694
       774.6724
 04  9 17 21 13 15.0010000  0  8G 3G 8G13G19G23G27G28G10
   1964362.61749   1524185.63647  23170615.6464   23170613.0674
     -1750.4534
  -2008383.75449  -1562442.93048  22140576.7314   22140573.7634
       986.7194
   2740858.73049   2127253.37548  20703506.9894   20703502.3964
     -2128.3914
  -1690852.38749  -1315076.11447  23037311.8724   23037308.1694
       582.5634
   6474151.94149   5024880.72547  22926184.3884   22926180.5994
     -4164.1254
    -53341.63349    -44597.25148  21336624.1614   21336620.8764
      -160.5944
  -1069263.82449   -832126.73447  24255819.3254   24255817.8884
      2187.0004
   -252578.31649   -199354.80146  24346288.9504   24346286.6034
       766.3284
 04  9 17 21 13 30.0010000  0  8G 3G 8G13G19G23G27G28G10
   1990699.00849   1544707.50247  23175626.4354   23175623.9384
     -1760.5004
  -2023154.82949  -1573952.85048  22137765.6224   22137762.7314
       983.3914
   2772854.45549   2152185.11448  20709595.9114   20709591.4704
     -2137.2034
  -1699527.34249  -1321835.77147  23035661.0524   23035656.9814
       574.5944
   6536657.82249   5073586.54847  22938079.3494   22938075.3964
     -4169.4534
    -50905.13749    -42698.68248  21337087.6694   21337084.2204
      -163.7034
  -1102038.80649   -857665.59847  24249581.1534   24249580.6814
      2183.4694
   -264003.22349   -208257.28547  24344114.7244   24344112.6854
       757.4844
 04  9 17 21 13 45.0010000  0  8G 3G 8G13G19G23G27G28G10
   2017181.71449   1565343.39147  23180665.8494   23180664.5994
     -1770.6414
  -2037881.48249  -1585428.14648  22134963.6534   22134960.0524
       980.0634
   2804975.97749   2177214.86548  20715708.2084   20715704.1884
     -2145.9064
  -1708089.60749  -1328507.60247  23034031.8174   23034027.9424
       566.8594
   6599236.31549   5122348.98047  22949987.9584   22949984.0634
     -4174.4534
    -48427.10549    -40767.73948  21337559.1064   21337555.4154
      -166.7814
  -1134766.44349   -883167.54347  24243353.5914   24243352.7474
      2180.1094
   -275300.50449   -217060.39647  24341965.3414   24341962.3104
       748.7504
 04  9 17 21 14  0.0010000  0  8G 3G 8G13G19G23G27G28G10
   2043813.85349   1586095.72147  23185733.9114   23185731.9624
     -1780.4374
  -2052560.33849  -1596866.19948  22132170.1854   22132167.0794
       976.9844
   2837226.60249   2202345.23048  20721845.1064   20721841.0324
     -2154.3594
  -1716535.53349  -1335088.78847  23032423.9584   23032420.0604
       559.1724
   6661890.51549   5171170.38147  22961910.2474   22961906.8294
     -4179.4844
    -45904.22849    -38801.85048  21338039.4664   21338035.8884
      -169.7504
  -1167443.25849   -908629.90247  24237135.9744   24237134.6614
      2176.7504
   -286466.72249   -225761.35846  24339840.1384   24339837.0994
       740.0784
 04  9 17 21 14 15.0010000  0  8G 3G 8G13G19G23G27G28G10
   2070593.50749   1606962.98547  23190830.3564   23190828.7354
     -1790.1724
  -2067193.20549  -1608268.41248  22129385.7864   22129382.6854
       974.0634
   2869604.53949   2227574.77948  20728006.4664   20728002.1264
     -2162.7504
  -1724866.61849  -1341580.48847  23030838.7004   23030834.7004
       551.6884
   6724618.46049   5220049.27747  22973847.2004   22973843.2594
     -4184.2344
    -43338.18749    -36802.32848  21338527.8414   21338524.1144
      -172.3914
  -1200070.87649   -934053.92047  24230927.0834   24230925.6144
      2173.5634
   -297503.41049   -234361.33347  24337740.1064   24337737.2634
       731.5474
 04  9 17 21 14 30.0010000  0  8G 3G 8G13G19G23G27G28G10
   2097521.53749   1627945.87447  23195954.3804   23195951.5404
     -1800.0944
  -2081779.50649  -1619634.33348  22126609.9194   22126607.0754
       970.9064
   2902110.46749   2252904.07948  20734192.1774   20734187.5754
     -2171.3284
  -1733081.91249  -1347981.96847  23029275.5604   23029272.2984
       543.8444
   6787420.72549   5268986.07547  22985798.2634   22985794.0674
     -4189.3594
    -40728.32349    -34768.65948  21339023.8564   21339020.6144
      -175.4224
  -1232648.30749   -959438.82147  24224726.8964   24224726.0284
      2170.0784
   -308409.64649   -242859.69847  24335664.0134   24335661.6614
       722.7194
 04  9 17 21 14 45.0010000  0  8G 3G 8G13G19G23G27G28G10
   2124596.71649   1649043.41447  23201106.7084   23201103.9664
     -1810.0474
  -2096320.15349  -1630964.69748  22123843.3254   22123840.0244
       967.6094
   2934743.26049   2278332.22348  20740401.9034   20740397.8064
     -2179.8914
  -1741182.18449  -1354293.81447  23027733.9114   23027730.7164
       536.0314
   6850295.91449   5317979.66547  22997763.3174   22997758.8924
     -4194.2194
    -38075.70549    -32701.68548  21339528.8494   21339525.5244
      -178.5164
  -1265176.50849   -984785.39847  24218537.7394   24218536.1184
      2166.7034
   -319186.38449   -251257.13447  24333613.8334   24333610.5214
       713.9694
 04  9 17 21 15  0.0010000  0  8G 3G 8G13G19G23G27G28G10
   2151819.33149   1670255.85847  23206286.9894   23206284.7284
     -1819.7034
  -2110814.93949  -1642259.31648  22121084.5994   22121081.7394
       964.8444
   2967503.37849   2303859.58048  20746635.8414   20746631.5484
     -2188.2194
  -1749166.74449  -1360515.48247  23026214.6144   23026210.4744
       528.4844
   6913244.20149   5367030.24847  23009742.0284   23009737.3254
     -4198.9064
    -35379.97749    -30601.10548  21340042.2004   21340038.7864
      -181.1094
  -1297654.97749  -1010093.21147  24212356.8024   24212355.3414
      2163.5784
   -329833.13649   -259553.29547  24331587.5214   24331585.0754
       705.4694
 04  9 17 21 15 15.0010000  0  8G 3G 8G13G19G23G27G28G10
   2179187.44049   1691581.66947  23211494.6464   23211493.2284
     -1829.2034
  -2125265.58749  -1653519.54148  22118334.9354   22118331.4114
       962.0944
   3000388.80349   2329484.58648  20752893.7864   20752889.7084
     -2196.3124
  -1757037.36949  -1366648.37847  23024716.9354   23024713.2474
       521.0944
   6976263.55149   5416136.20447  23021733.7864   23021729.5244
     -4203.4694
    -32642.93649    -28468.33848  21340563.0054   21340559.2474
      -183.6724
  -1330085.42949  -1035363.62147  24206185.3024   24206184.6464
      2160.6564
   -340351.51549   -267749.44247  24329586.4194   24329583.7044
       697.1564
 04  9 17 21 15 30.0010000  0  8G 3G 8G13G19G23G27G28G10
   2206701.56949   1713021.25447  23216730.7164   23216728.8924
     -1839.0474
  -2139671.24849  -1664744.71248  22115593.3804   22115590.3804
       958.9384
   3033400.29849   2355207.82948  20759175.5604   20759171.6184
     -2204.9224
  -1764792.98149  -1372691.66647  23023240.9354   23023237.5874
       513.3134
   7039354.41549   5465297.87847  23033739.9504   23033735.6814
     -4208.3444
    -29863.84149    -26302.79348  21341091.4974   21341087.9384
      -186.6414
  -1362466.90549  -1060595.84946  24200022.9194   24200022.0214
      2157.1884
   -350740.55249   -275844.78947  24327609.2634   24327607.0174
       688.3594
 04  9 17 21 15 45.0010000  0  8G 3G 8G13G19G23G27G28G10
   2234361.80049   1734574.67847  23221994.8104   23221992.7004
     -1848.7974
  -2154031.90449  -1675934.80848  22112860.9664   22112857.5994
       955.9534
   3066537.82749   2381029.27148  20765481.5284   20765477.3064
     -2213.3124
  -1772433.28349  -1378645.09447  23021787.2084   23021783.0604
       505.5944
   7102516.66049   5514515.16547  23045758.9744   23045755.3454
     -4213.0474
    -27042.73349    -24104.52548  21341628.5444   21341624.9354
      -189.3754
  -1394799.20449  -1085789.74347  24193870.4114   24193869.5404
      2153.9384
   -361000.15449   -283839.28247  24325656.6774   24325654.8534
       679.7664
 04  9 17 21 16  0.0010000  0  8G 3G 8G13G19G23G27G28G10
   2262171.63449   1756244.67947  23227285.8334   23227284.0174
     -1858.8594
  -2168343.84849  -1687086.95248  22110137.5284   22110134.3994
       952.6254
   3099804.94549   2406951.70248  20771811.9814   20771807.7394
     -2222.0784
  -1779954.47649  -1384505.72447  23020355.4974   23020351.6344
       497.5164
   7165753.65849   5563790.70747  23057792.4274   23057788.7634
     -4218.2504
    -24175.89849    -21870.62248  21342174.2864   21342170.6734
      -192.5784
  -1427078.68049  -1110942.50047  24187728.2314   24187726.7824
      2150.3754
   -371126.50749   -291729.95647  24323729.7784   24323727.1224
       670.7974
 04  9 17 21 16 15.0010000  0  8G 3G 8G13G19G23G27G28G10
   2290126.46049   1778027.65347  23232605.6534   23232603.8454
     -1868.6564
  -2182611.84449  -1698204.85248  22107422.4194   22107419.3764
       949.5634
   3133197.10749   2432971.56548  20778166.3884   20778161.9464
     -2230.4844
  -1787360.77649  -1390276.81047  23018946.2554   23018942.9704
       489.7194
   7229060.75049   5613120.87447  23069839.7474   23069835.7124
     -4223.0164
    -21267.94649    -19604.68148  21342727.3644   21342724.1964
      -195.4064
  -1459309.63349  -1136057.44747  24181594.7944   24181593.3684
      2146.9384
   -381123.86449   -299520.05647  24321826.9744   24321824.9154
       661.9694
 04  9 17 21 16 30.0010000  0  8G 3G 8G13G19G23G27G28G10
   2318228.59749   1799925.44147  23237953.3644   23237951.8644
     -1878.4224
  -2196833.44849  -1709286.59848  22104715.7084   22104712.9544
       946.5784
   3166716.65849   2459090.69348  20784544.9894   20784540.9624
     -2238.8754
  -1794649.50749  -1395956.28947  23017559.4354   23017554.9384
       481.9534
   7292439.97049   5662507.23147  23081900.3804   23081896.1614
     -4227.6874
    -18316.34949    -17304.71948  21343289.2314   21343285.6224
      -198.2664
  -1491489.44549  -1161132.52747  24175471.0604   24175469.6184
      2143.6094
   -390989.71849   -307207.73747  24319950.3804   24319947.9704
       653.2664
 04  9 17 21 16 45.0010000  0  8G 3G 8G13G19G23G27G28G10
   2346476.45649   1821936.77547  23243328.6304   23243327.2314
     -1888.0784
  -2211009.67949  -1720332.99248  22102017.9354   22102015.2314
       943.4694
   3200362.13449   2485307.94748  20790947.4194   20790943.0014
     -2247.4534
  -1801821.87249  -1401545.09147  23016194.3494   23016189.8884
       474.1254
   7355889.74349   5711948.58647  23093974.4114   23093970.7394
     -4232.4844
    -15322.59449    -14971.91548  21343858.7784   21343855.5604
      -201.0784
  -1523619.37849  -1186168.78447  24169356.8564   24169355.5054
      2140.2194
   -400725.24049   -314793.85547  24318098.1464   24318094.4784
       644.6094
 04  9 17 21 17  0.0010000  0  8G 3G 8G13G19G23G27G28G10
   2374872.21749   1844063.34147  23248731.9974   23248730.6424
     -1897.8284
  -2225138.48749  -1731342.43848  22099329.5524   22099326.3924
       940.4224
   3234135.85849   2511625.12948  20797374.2944   20797370.3134
     -2255.6724
  -1808875.27849  -1407041.20647  23014852.2164   23014848.0834
       466.3594
   7419412.08549   5761446.47047  23106062.7554   23106058.3684
     -4237.1094
    -12284.36949    -12604.46948  21344437.0054   21344433.5834
      -203.9224
  -1555697.01049  -1211164.25447  24163252.1304   24163251.1184
      2136.9064
   -410328.07449   -322276.59647  24316270.2004   24316267.9544
       635.8914
 04  9 17 21 17 15.0010000  0  8G 3G 8G13G19G23G27G28G10
   2403414.80349   1866304.32147  23254164.5604   23254162.1534
     -1907.8284
  -2239220.89349  -1742315.72748  22096650.2474   22096646.4464
       937.2504
   3268036.79849   2538041.44148  20803825.4194   20803821.1034
     -2264.3594
  -1815810.51849  -1412445.24047  23013532.4194   23013528.1104
       458.3594
   7483005.93149   5811000.08147  23118163.9664   23118160.0284
     -4242.0474
     -9202.69849    -10203.15748  21345023.1304   21345019.7314
      -206.9534
  -1587723.17849  -1236119.61747  24157157.7634   24157156.4934
      2133.3754
   -419799.09149   -329656.54747  24314467.9034   24314465.5324
       626.9694
 04  9 17 21 17 30.0010000  0  8G 3G 8G13G19G23G27G28G10
   2432107.12549   1888661.98147  23259624.3334   23259621.7714
     -1917.8914
  -2253253.78049  -1753250.42148  22093979.4034   22093976.4464
       933.8444
   3302067.79549   2564559.09648  20810301.0674   20810297.0634
     -2273.1414
  -1822624.28149  -1417754.61347  23012235.4354   23012231.5404
       450.2034
   7546673.98649   5860611.49647  23130279.6614   23130276.0714
     -4247.0784
     -6074.60649     -7765.67448  21345618.6534   21345615.3454
      -210.1564
  -1619694.82649  -1261032.50847  24151074.0674   24151073.0634
      2129.5164
   -429135.04849   -336931.33147  24312690.7164   24312689.0364
       617.8594
 04  9 17 21 17 45.0010000  0  8G 3G 8G13G19G23G27G28G10
   2460945.84449   1911133.72047  23265111.5134   23265109.7514
     -1927.4694
  -2267240.46049  -1764149.11048  22091318.1534   22091315.0994
       930.9224
   3336225.58449   2591175.55248  20816801.1854   20816797.6344
     -2281.4224
  -1829319.65949  -1422971.74847  23010961.5914   23010957.0324
       442.3754
   7610412.63549   5910277.92747  23142408.0754   23142405.4034
     -4251.6254
     -2903.24249     -5294.47548  21346221.8334   21346219.0674
      -212.8284
  -1651614.99149  -1285905.26847  24144999.9114   24144998.8644
      2126.2344
   -438339.04349   -344103.25647  24310938.4664   24310937.1184
       609.1564
 04  9 17 21 18  0.0010000  0  8G 3G 8G13G19G23G27G28G10
   2489931.71349   1933720.12847  23270627.2554   23270625.3174
     -1937.3124
  -2281180.17149  -1775011.20848  22088665.0284   22088662.1064
       927.7814
   3370510.81249   2617891.31348  20823325.4974   20823321.5874
     -2289.9374
  -1835895.68649  -1428095.87047  23009710.1464   23009705.9354
       434.3914
   7674222.43949   5959999.81347  23154552.0444   23154547.3374
     -4256.3914
       312.08249     -2789.01648  21346833.8724   21346830.9704
      -215.8444
  -1683482.78749  -1310737.25847  24138935.7164   24138933.9504
      2122.7814
   -447410.24249   -351171.72047  24309212.6854   24309210.8994
       600.3444
 04  9 17 21 18 15.0010000  0  8G 3G 8G13G19G23G27G28G10
   2519065.28249   1956421.60747  23276171.0754   23276169.2434
     -1947.4694
  -2295072.28349  -1785836.21648  22086021.3104   22086018.7674
       924.3134
   3404924.11549   2644706.86548  20829874.4894   20829870.4464
     -2298.7344
  -1842351.35649  -1433126.22147  23008481.7164   23008477.5134
       426.0634
   7738103.92549   6009777.55247  23166707.3024   23166703.2714
     -4261.3124
      3572.02949      -248.79148  21347454.1854   21347450.9464
      -219.1094
  -1715297.41449  -1335527.79547  24132881.1854   24132879.9544
      2119.0314
   -456347.65049   -358135.91647  24307512.1614   24307509.7204
       591.0004
 04  9 17 21 18 30.0010000  0  8G 3G 8G13G19G23G27G28G10
   2548345.64649   1979237.48747  23281743.6224   23281740.8994
     -1956.7344
  -2308917.58749  -1796624.73848  22083386.6924   22083383.8064
       921.7034
   3439464.75749   2671621.65448  20836447.4504   20836442.9744
     -2306.6724
  -1848687.21449  -1438063.19547  23007276.3964   23007271.5484
       418.6254
   7802056.10549   6059610.38747  23178877.5524   23178873.3964
     -4265.6094
      6875.94649      2325.69548  21348082.8494   21348079.3724
      -221.5004
  -1747059.35749  -1360277.26847  24126836.2784   24126835.4154
      2115.9534
   -465151.86949   -364996.35647  24305837.5524   24305834.4624
       582.6564
 04  9 17 21 18 45.0010000  0  8G 3G 8G13G19G23G27G28G10
   2577770.11049   2002165.65747  23287342.5754   23287341.1424
     -1966.5314
  -2322718.41149  -1807378.61148  22080760.3804   22080757.9234
       918.5164
   3474130.19049   2698633.66948  20843043.6854   20843039.7164
     -2315.2664
  -1854905.45749  -1442908.54547  23006092.8644   23006088.6884
       410.4844
   7866076.25049   6109496.16847  23191059.9424   23191056.0914
     -4270.3594
     10221.30749      4932.47948  21348719.8024   21348716.1104
      -224.4694
  -1778771.06649  -1384987.59547  24120802.7244   24120800.9784
      2112.3914
   -473825.32649   -371754.88547  24304186.7554   24304184.2434
       573.7814
 04  9 17 21 19  0.0010000  0  8G 3G 8G13G19G23G27G28G10
   2607342.02049   2025208.70347  23292969.6384   23292968.1924
     -1976.2974
  -2336471.39149  -1818095.20148  22078143.5134   22078140.4464
       915.3594
   3508923.74249   2725745.52348  20849664.7474   20849660.4664
     -2323.7814
  -1861002.46449  -1447659.40247  23004932.2944   23004928.0404
       402.5004
   7930167.62249   6159437.45847  23203255.9744   23203252.6814
     -4275.0314
     13611.52149      7574.21348  21349364.8334   21349361.2284
      -227.4064
  -1810428.87449  -1409655.94947  24114778.4194   24114776.8414
      2108.7664
   -482364.45549   -378408.74847  24302562.0364   24302559.7474
       564.8284
 04  9 17 21 19 15.0010000  0  8G 3G 8G13G19G23G27G28G10
   2637063.38649   2048368.21647  23298624.9354   23298623.3294
     -1986.2504
  -2350174.49849  -1828772.93248  22075535.7314   22075532.8454
       912.0004
   3543847.44749   2752958.80548  20856310.2714   20856306.3334
     -2332.5164
  -1866975.93249  -1452314.00147  23003795.7004   23003791.3454
       394.2034
   7994331.85549   6209435.52347  23215465.9584   23215461.8884
     -4279.8914
     17048.60249     10252.47048  21350018.8024   21350014.9354
      -230.5784
  -1842030.75249  -1434280.69747  24108764.7634   24108763.0524
      2105.0784
   -490767.06249   -384956.19047  24300962.4894   24300961.0914
       555.6564
 04  9 17 21 19 30.0010000  0  8G 3G 8G13G19G23G27G28G10
   2666927.63549   2071639.07847  23304308.4114   23304306.6304
     -1995.8594
  -2363833.90449  -1839416.59448  22072936.8964   22072933.3994
       909.0634
   3578894.72649   2780268.36448  20862979.5834   20862975.8964
     -2340.7344
  -1872831.98049  -1456877.11647  23002681.1854   23002676.9854
       386.3914
   8058562.43149   6259485.27347  23227689.3724   23227684.9314
     -4284.4374
     20526.19049     12962.28448  21350680.5604   21350677.3924
      -233.2974
  -1873582.84649  -1458866.66047  24102759.8964   24102758.7044
      2101.6564
   -499039.31649   -391402.11847  24299388.6304   24299387.3924
       547.0164
 04  9 17 21 19 45.0010000  0  8G 3G 8G13G19G23G27G28G10
   2696940.07249   2095025.40447  23310020.4354   23310017.9504
     -2005.9064
  -2377444.38349  -1850022.14948  22070346.7394   22070343.4194
       905.6414
   3614071.11949   2807678.54348  20869673.2554   20869669.7554
     -2349.5004
  -1878564.99449  -1461344.35747  23001590.4194   23001586.0324
       377.9844
   8122864.51649   6309590.77947  23239925.4274   23239921.3804
     -4289.3124
     24049.73449     15707.91348  21351350.9894   21351347.4384
      -236.5784
  -1905079.55649  -1483409.49547  24096766.4744   24096765.0914
      2097.7974
   -507175.54849   -397742.03647  24297839.8254   24297838.2314
       537.7194
 04  9 17 21 20  0.0010000  0  8G 3G 8G13G19G23G27G28G10
   2727101.17049   2118527.57247  23315758.5914   23315757.3294
     -2015.7814
  -2391005.36449  -1860589.13948  22067766.0674   22067762.5094
       902.3754
   3649376.99049   2835189.60148  20876392.1384   20876388.2434
     -2358.1254
  -1884174.23549  -1465715.15447  23000522.8804   23000518.0914
       369.7034
   8187238.44549   6359752.21647  23252175.9034   23252171.5834
     -4294.1564
     27619.76349     18489.76148  21352030.4034   21352026.6964
      -239.6254
  -1936520.31949  -1507908.72347  24090783.5674   24090781.9814
      2094.1094
   -515175.25349   -403975.56547  24296318.1614   24296316.4234
       528.6564
 04  9 17 21 20 15.0010000  0  8G 3G 8G13G19G23G27G28G10
   2757406.62949   2142142.23947  23321525.5054   23321524.3964
     -2025.2194
  -2404520.97249  -1871120.75848  22065193.9894   22065191.0054
       899.4844
   3684808.24149   2862798.36648  20883134.3174   20883130.5214
     -2366.3754
  -1889663.65649  -1469992.58547  22999478.1064   22999473.5094
       361.8914
   8251679.92749   6409966.31247  23264438.1384   23264434.2084
     -4298.4534
     31232.16749     21304.64048  21352717.8254   21352714.4034
      -242.3594
  -1967908.97349  -1532367.34247  24084810.5054   24084809.2984
      2090.7194
   -523042.37349   -410105.77347  24294820.7474   24294818.3804
       519.9534
 04  9 17 21 20 30.0010000  0  8G 3G 8G13G19G23G27G28G10
   2787860.45449   2165872.49747  23327321.4034   23327319.3924
     -2035.2504
  -2417987.17849  -1881613.89048  22062631.3494   22062628.3724
       896.1414
   3720368.79049   2890507.88048  20889901.3254   20889897.0444
     -2375.0474
  -1895028.77849  -1474173.15347  22998457.5054   22998452.1224
       353.5004
   8316192.72849   6460235.98247  23276714.6614   23276710.7554
     -4303.2194
     34891.05749     24155.72548  21353414.0674   21353410.9744
      -245.4224
  -1999241.32949  -1556782.07247  24078848.2084   24078846.8724
      2086.9694
   -530772.66849   -416129.37747  24293350.0604   24293347.7864
       510.8444
 04  9 17 21 20 45.0010000  0  8G 3G 8G13G19G23G27G28G10
   2818462.51749   2189718.26947  23333144.7004   23333142.6304
     -2044.8754
  -2431403.85949  -1892068.43248  22060077.8564   22060075.2784
       892.9224
   3756058.48649   2918318.02748  20896692.9814   20896689.0794
     -2383.4534
  -1900269.60349  -1478256.85947  22997459.7394   22997455.5014
       345.4384
   8380776.54349   6510560.97447  23289004.5284   23289001.0014
     -4307.7974
     38596.33049     27042.95648  21354119.0524   21354115.6854
      -248.4534
  -2030517.33849  -1581152.90747  24072896.3964   24072894.9854
      2083.3134
   -538366.04049   -422046.29547  24291905.7164   24291902.7714
       501.7974
 04  9 17 21 21  0.0010000  0  8G 3G 8G13G19G23G27G28G10
   2849208.94449   2213676.53647  23338995.7784   23338993.3764
     -2054.7504
  -2444774.61549  -1902487.19848  22057533.8334   22057530.8964
       889.6884
   3791873.83049   2946226.08448  20903508.4354   20903504.2004
     -2392.0314
  -1905389.45549  -1482246.31948  22996485.6924   22996481.0874
       337.0164
   8445427.44149   6560938.24147  23301306.8024   23301303.5364
     -4312.4694
     42344.38149     29963.51648  21354832.5524   21354828.8644
      -251.5164
  -2061740.38349  -1605482.49347  24066954.4584   24066953.1924
      2079.5784
   -545826.05149   -427859.27047  24290485.3104   24290483.1184
       492.6884
 04  9 17 21 21 15.0010000  0  8G 3G 8G13G19G23G27G28G10
   2880102.25149   2237749.24947  23344874.5214   23344872.3174
     -2064.4694
  -2458097.04149  -1912868.28948  22054998.6224   22054995.6814
       886.6884
   3827817.29149   2974233.96648  20910348.3334   20910344.2004
     -2400.4064
  -1910385.50549  -1486139.30848  22995534.7474   22995530.0564
       329.0314
   8510147.83249   6611369.68047  23313623.3724   23313619.5284
     -4316.9064
     46137.89049     32919.51048  21355554.1144   21355550.8644
      -254.3444
  -2092907.85649  -1629768.76147  24061023.4814   24061021.9274
      2076.0164
   -553149.88149   -433566.13747  24289091.6924   24289089.4704
       483.7034
 04  9 17 21 21 30.0010000  0  8G 3G 8G13G19G23G27G28G10
   2911137.49549   2261932.58147  23350780.0914   23350778.2124
     -2073.7504
  -2471375.80949  -1923215.36448  22052472.0994   22052468.8684
       883.7974
   3863883.82149   3002337.75648  20917211.5994   20917207.4624
     -2408.5474
  -1915262.40949  -1489939.45048  22994606.4354   22994602.0994
       321.1414
   8574932.72949   6661851.37947  23325951.2944   23325947.4894
     -4321.1414
     49971.85649     35907.01848  21356283.9504   21356280.4974
      -257.0004
  -2124024.37549  -1654015.32447  24055102.4974   24055100.7244
      2072.6884
   -560342.15249   -439170.50247  24287722.8644   24287720.3534
       474.9694
 04  9 17 21 21 45.0010000  0  8G 3G 8G13G19G23G27G28G10
   2942317.73549   2286228.87947  23356713.4274   23356711.8534
     -2083.4064
  -2484607.82849  -1933526.01448  22049953.8494   22049951.0484
       880.7034
   3900076.51949   3030539.86148  20924098.6064   20924094.7204
     -2416.9064
  -1920016.68549  -1493644.03347  22993702.5444   22993697.7284
       312.9384
   8639785.00349   6712385.57947  23338292.1614   23338288.5484
     -4325.6874
     53849.61549     38928.66248  21357021.7314   21357018.4704
      -259.8444
  -2155086.61549  -1678219.58947  24049190.8564   24049189.6694
      2069.0634
   -567399.57149   -444669.80247  24286380.0214   24286377.9744
       466.1094
 04  9 17 21 22  0.0010000  0  8G 3G 8G13G19G23G27G28G10
   2973645.68949   2310640.29847  23362674.5054   23362673.2904
     -2093.5004
  -2497790.15549  -1943797.94448  22047445.6464   22047442.5754
       877.0784
   3936398.27049   3058842.51548  20931010.8334   20931006.7594
     -2425.7974
  -1924645.11649  -1497250.57047  22992821.2244   22992816.9274
       304.2344
   8704707.32849   6762974.35347  23350646.5284   23350642.5444
     -4330.5474
     57774.06849     41986.67648  21357768.3804   21357765.2044
      -263.2344
  -2186091.58149  -1702379.23647  24043291.1464   24043289.7004
      2064.9694
   -574319.13049   -450061.66346  24285063.6534   24285060.6384
       456.7344
 04  9 17 21 22 15.0010000  0  8G 3G 8G13G19G23G27G28G10
   3005118.77649   2335164.79647  23368663.8414   23368662.1064
     -2102.9374
  -2510925.03949  -1954032.90848  22044946.0134   22044942.6694
       874.1094
   3972846.55049   3087243.77548  20937946.8174   20937942.6264
     -2434.0784
  -1929150.11149  -1500760.91448  22991963.9354   22991959.9784
       296.3284
   8769697.00249   6813615.61247  23363013.5214   23363009.5674
     -4334.8284
     61742.68349     45079.10948  21358523.7554   21358520.4464
      -266.0314
  -2217041.55249  -1726496.02147  24037400.8804   24037399.9624
      2061.5164
   -581103.13249   -455347.87447  24283772.0444   24283769.7824
       447.7814
 04  9 17 21 22 30.0010000  0  8G 3G 8G13G19G23G27G28G10
   3036737.09049   2359802.45447  23374681.1144   23374678.5284
     -2112.7344
  -2524012.51949  -1964230.93048  22042455.5444   22042452.3024
       870.8754
   4009421.47149   3115743.70948  20944906.5134   20944902.7354
     -2442.6414
  -1933531.17749  -1504174.69047  22991130.2634   22991125.4744
       287.8134
   8834753.89749   6864309.25647  23375393.7714   23375390.2744
     -4339.4374
     65755.65249     48206.11248  21359287.4664   21359284.1734
      -269.1414
  -2247936.15649  -1750569.70047  24031522.2714   24031520.5994
      2057.6564
   -587751.27149   -460528.23447  24282507.8644   24282505.2784
       438.5314
 04  9 17 21 22 45.0010000  0  8G 3G 8G13G19G23G27G28G10
   3068501.24449   2384553.74547  23380725.2164   23380723.5094
     -2122.5004
  -2537051.69749  -1974391.31048  22039974.4274   22039971.3604
       867.6724
   4046123.79149   3144342.92048  20951890.6774   20951886.7984
     -2451.0944
  -1937787.27349  -1507491.09047  22990320.2554   22990315.3374
       279.5164
   8899878.67749   6915055.76647  23387786.7004   23387782.6854
     -4344.0004
     69813.86749     51368.35448  21360059.9504   21360056.6534
      -272.1254
  -2278774.61949  -1774599.60547  24025654.1144   24025652.1574
      2054.0474
   -594262.68149   -465602.07047  24281267.9974   24281266.1884
       429.4224
 04  9 17 21 23  0.0010000  0  8G 3G 8G13G19G23G27G28G10
   3100409.34749   2409417.21747  23386796.6304   23386794.6654
     -2131.8594
  -2550044.29049  -1984515.39848  22037501.6304   22037498.4894
       864.8754
   4082951.65149   3173039.94948  20958898.8414   20958894.5094
     -2459.1094
  -1941920.10549  -1510711.44247  22989533.9664   22989529.0674
       271.7034
   8965069.36349   6965853.67447  23400191.5284   23400188.4274
     -4347.9374
     73915.56849     54564.49548  21360840.4034   21360836.5914
      -274.6724
  -2309558.36749  -1798586.86747  24019796.2554   24019794.6964
      2050.7194
   -600638.84249   -470570.49847  24280055.0674   24280052.3134
       420.8134
 04  9 17 21 23 15.0010000  0  8G 3G 8G13G19G23G27G28G10
   3132459.01549   2434390.99047  23392895.7314   23392893.5634
     -2141.3284
  -2562992.48249  -1994604.88948  22035038.1924   22035034.3414
       861.6724
   4119902.83549   3201833.08248  20965930.6304   20965926.2944
     -2467.5944
  -1945931.49249  -1513837.15147  22988770.4274   22988765.8924
       263.3134
   9030323.51549   7016701.01047  23412609.3494   23412605.8644
     -4352.4064
     78058.52849     57792.79248  21361628.4194   21361624.8414
      -277.6414
  -2340289.49449  -1822533.12647  24013947.9974   24013946.2354
      2046.9064
   -606881.89849   -475435.23447  24278867.0134   24278864.6034
       411.7814
 04  9 17 21 23 30.0010000  0  8G 3G 8G13G19G23G27G28G10
   3164654.81249   2459478.63847  23399022.7244   23399020.3994
     -2151.1564
  -2575891.60549  -2004656.13248  22032583.0444   22032579.7674
       858.4384
   4156981.90049   3230725.84948  20972986.6304   20972981.8564
     -2476.0314
  -1949816.57749  -1516864.46047  22988031.3174   22988026.8884
       254.9694
   9095645.40249   7067601.13447  23425039.9114   23425036.5054
     -4356.9224
     82247.39649     61056.84848  21362425.4814   21362422.2554
      -280.6254
  -2370963.22949  -1846434.67247  24008111.0054   24008108.2314
      2043.2034
   -612987.05849   -480192.49947  24277705.1384   24277702.7784
       402.6094
 04  9 17 21 23 45.0010000  0  8G 3G 8G13G19G23G27G28G10
   3196990.37249   2484675.18747  23405176.1144   23405173.5054
     -2160.7034
  -2588748.00849  -2014674.09748  22030136.7554   22030133.4544
       855.3284
   4194182.40149   3259713.25048  20980065.1384   20980061.3454
     -2484.4844
  -1953581.42049  -1519798.06647  22987315.1384   22987309.7714
       246.6884
   9161028.65749   7118549.05347  23437481.8804   23437478.3294
     -4361.2664
     86476.08949     64351.93048  21363230.4744   21363227.1464
      -283.5624
  -2401585.81449  -1870296.37147  24002283.8564   24002281.5794
      2039.4384
   -618960.49849   -484847.05247  24276567.7864   24276566.0174
       393.4534
 04  9 17 21 24  0.0010000  0  8G 3G 8G13G19G23G27G28G10
   3229471.98649   2509985.54547  23411357.2474   23411354.8564
     -2170.3124
  -2601554.88449  -2024653.47748  22027699.6534   22027696.3214
       852.1254
   4231510.81949   3288800.32548  20987168.7634   20987164.5794
     -2492.8284
  -1957219.42249  -1522632.83348  22986622.3104   22986618.3254
       238.2974
   9226479.39749   7169549.58147  23449936.6534   23449933.3844
     -4365.6254
     90750.76349     67682.85848  21364043.8024   21364040.3764
      -286.5474
  -2432150.63049  -1894113.04447  23996467.5524   23996465.4194
      2035.6884
   -624795.49349   -489393.83547  24275457.7864   24275454.9814
       384.4064
 04  9 17 21 24 15.0010000  0  8G 3G 8G13G19G23G27G28G10
   3262096.87649   2535407.55047  23417566.1464   23417563.4814
     -2179.7194
  -2614315.01249  -2034596.41948  22025271.3724   22025268.4504
       849.1884
   4268964.38449   3317984.92048  20994295.8104   20994291.9274
     -2500.9534
  -1960732.92149  -1525370.59048  22985953.7394   22985949.5834
       230.1414
   9291994.78949   7220600.48947  23462403.5524   23462400.4584
     -4369.7974
     95069.08249     71047.78248  21364865.3644   21364862.0214
      -289.2974
  -2462660.01249  -1917886.52447  23990660.7864   23990659.7904
      2032.1564
   -630494.62549   -493834.71247  24274372.5364   24274370.7354
       375.5634
 04  9 17 21 24 30.0010000  0  8G 3G 8G13G19G23G27G28G10
   3294864.64049   2560940.86847  23423800.8884   23423799.2354
     -2189.2344
  -2627028.77149  -2044503.22948  22022852.3024   22022848.6854
       846.0634
   4306542.77449   3347266.78248  21001446.8724   21001442.3374
     -2509.2974
  -1964121.95449  -1528011.36247  22985308.6304   22985303.8994
       221.7664
   9357574.39349   7271701.41847  23474883.9424   23474880.1924
     -4374.0784
     99430.53349     74446.32448  21365695.1384   21365692.0524
      -292.1414
  -2493114.24849  -1941617.01747  23984866.5674   23984864.5564
      2028.4694
   -636058.02349   -498169.78847  24273314.4814   24273312.1104
       366.3444
 04  9 17 21 24 45.0010000  0  8G 3G 8G13G19G23G27G28G10
   3327776.43049   2586586.43347  23430063.4744   23430061.7744
     -2198.9694
  -2639694.94349  -2054372.95848  22020441.4114   22020438.9544
       842.7974
   4344247.18449   3376646.82848  21008621.7554   21008617.6104
     -2517.8444
  -1967385.15549  -1530554.07548  22984687.3884   22984683.8214
       213.3914
   9423219.14049   7322853.11947  23487375.8104   23487371.8134
     -4378.5004
    103836.61649     77879.63348  21366534.0834   21366530.3844
      -295.2814
  -2523511.83149  -1965303.39047  23979081.5134   23979079.6184
      2024.5944
   -641484.40649   -502398.13547  24272282.0134   24272279.5994
       357.1254
 04  9 17 21 25  0.0010000  0  8G 3G 8G13G19G23G27G28G10
   3360833.39549   2612345.11347  23436354.3644   23436352.5954
     -2208.4224
  -2652312.01149  -2064204.43048  22018040.6924   22018038.0054
       839.6094
   4382078.80749   3406126.00848  21015820.9354   21015817.0174
     -2526.2194
  -1970520.86949  -1532997.46147  22984090.9974   22984085.9114
       204.8914
   9488930.23049   7374056.50647  23499879.5754   23499876.2784
     -4382.7974
    108288.57649     81348.70148  21367381.5054   21367377.7204
      -298.2194
  -2553851.30149  -1988944.46447  23973308.3804   23973305.7554
      2020.7814
   -646772.22149   -506518.53647  24271275.6304   24271273.7474
       348.1094
 04  9 17 21 25 15.0010000  0  8G 3G 8G13G19G23G27G28G10
   3394031.16749   2638213.50547  23442671.5994   23442669.9274
     -2218.2034
  -2664884.32349  -2074001.01848  22015648.0214   22015644.9624
       836.2814
   4420033.43149   3435701.04148  21023043.3334   21023039.0174
     -2534.6724
  -1973533.16149  -1535344.66948  22983518.2084   22983513.5324
       196.4384
   9554703.08249   7425308.01147  23512395.6614   23512391.9584
     -4387.2504
    112782.25749     84850.26948  21368236.1224   21368232.5244
      -301.2814
  -2584136.82949  -2012543.49747  23967545.1614   23967542.7784
      2016.9064
   -651925.58849   -510534.12447  24270295.5674   24270293.0404
       338.6884
 04  9 17 21 25 30.0010000  0  8G 3G 8G13G19G23G27G28G10
   3427372.72749   2664193.94847  23449016.6384   23449014.4934
     -2227.5474
  -2677408.79549  -2083760.34048  22013264.8334   22013261.5954
       833.3444
   4458113.97349   3465374.18348  21030290.2084   21030286.0094
     -2542.8914
  -1976418.64249  -1537593.06448  22982968.3884   22982964.6304
       188.1414
   9620540.56149   7476609.90047  23524924.4274   23524920.2744
     -4391.3594
    117320.71049     88386.72548  21369099.9114   21369096.4854
      -304.0944
  -2614365.05949  -2036097.91047  23961793.0834   23961791.0954
      2013.2974
   -656941.21549   -514442.40147  24269341.2004   24269338.9464
       329.8134
 04  9 17 21 25 45.0010000  0  8G 3G 8G13G19G23G27G28G10
   3460858.43449   2690286.71247  23455388.3964   23455386.5364
     -2237.1414
  -2689884.74449  -2093481.84948  22010890.7244   22010887.5874
       830.1884
   4496320.96349   3495145.86248  21037560.5134   21037556.4894
     -2551.3444
  -1979176.53149  -1539742.02947  22982443.9814   22982439.3804
       179.6414
   9686443.08949   7527962.48347  23537465.5214   23537461.2164
     -4395.6414
    121904.52949     91958.54648  21369972.1064   21369968.6774
      -307.0004
  -2644535.35349  -2059607.13447  23956051.0914   23956050.0874
      2009.5004
   -661818.48249   -518242.88247  24268412.8414   24268410.3724
       320.5944
 04  9 17 21 26  0.0010000  0  8G 3G 8G13G19G23G27G28G10
   3494489.14449   2716492.47047  23461788.1694   23461785.9624
     -2246.7664
  -2702311.03049  -2103164.66148  22008526.2944   22008522.7084
       826.7814
   4534655.18649   3525016.67448  21044855.0284   21044850.6614
     -2559.8124
  -1981805.83649  -1541790.81748  22981943.7864   22981940.0634
       171.0164
   9752411.27649   7579366.20247  23550018.8884   23550015.1964
     -4400.0164
    126534.69749     95566.46948  21370852.9894   21370849.6854
      -310.1564
  -2674646.57449  -2083070.35447  23950321.5674   23950319.2244
      2005.5474
   -666556.36449   -521934.74347  24267511.1464   24267508.2594
       311.2974
 04  9 17 21 26 15.0010000  0  8G 3G 8G13G19G23G27G28G10
   3528262.74149   2742809.55947  23468215.3564   23468212.2744
     -2256.4224
  -2714689.76449  -2112810.41348  22006170.9424   22006167.4854
       823.6414
   4573114.57649   3554985.03148  21052173.7864   21052169.6144
     -2568.1564
  -1984308.18849  -1543740.67748  22981467.2944   22981462.5524
       162.5634
   9818442.99249   7630819.44647  23562584.3804   23562580.4664
     -4404.2504
    131209.27949     99209.00148  21371742.8024   21371739.0994
      -313.2034
  -2704700.65249  -2106489.03847  23944601.7554   23944600.4664
      2001.6414
   -671156.54449   -525519.29547  24266635.8414   24266633.4934
       302.0944
 04  9 17 21 26 30.0010000  0  8G 3G 8G13G19G23G27G28G10
   3562179.08049   2769237.87447  23474669.2244   23474666.4154
     -2265.7034
  -2727020.87249  -2122419.05548  22003823.8104   22003820.7824
       820.6564
   4611699.22949   3585050.99048  21059516.0914   21059511.8804
     -2576.3284
  -1986683.38749  -1545591.44848  22981015.7084   22981011.1034
       154.2504
   9884537.99649   7682321.97747  23575161.1694   23575157.9664
     -4408.2344
    135928.35549    102886.21148  21372640.7314   21372637.4274
      -315.9694
  -2734697.32249  -2129863.00247  23938894.7164   23938892.0954
      1997.9694
   -675618.97849   -528996.49747  24265786.4974   24265784.3104
       293.0634
 04  9 17 21 26 45.0020000  0  8G 3G 8G13G19G23G27G28G10
   3596238.80349   2795777.91747  23481150.5644   23481148.2294
     -2275.2344
  -2739306.43949  -2131992.21148  22001486.3854   22001483.4084
       817.4224
   4650410.41349   3615215.54848  21066882.8614   21066878.6544
     -2584.7194
  -1988932.74849  -1547344.16948  22980586.8614   22980583.0104
       145.7194
   9950699.01249   7733875.95247  23587751.7294   23587748.5884
     -4412.5314
    140690.81649    106597.23248  21373547.1824   21373543.7524
      -318.9224
  -2764639.77649  -2153194.71247  23933196.2294   23933194.6314
      1994.1884
   -679945.25549   -532367.60247  24264963.3464   24264961.1934
       283.9224
 04  9 17 21 27  0.0020000  0  8G 3G 8G13G19G23G27G28G10
   3630437.65449   2822426.38547  23487658.6434   23487655.5924
     -2284.7344
  -2751544.50349  -2141528.35548  21999157.4474   21999153.8964
       814.2034
   4689242.88649   3645474.60548  21074272.4554   21074268.1354
     -2593.1094
  -1991055.43049  -1548998.18148  22980183.1114   22980178.6464
       137.1564
  10016917.21849   7785474.49847  23600352.4244   23600349.3614
     -4416.7034
    145496.36849    110341.81848  21374461.3224   21374458.0804
      -321.9224
  -2794523.64249  -2176480.75547  23927509.9084   23927507.7324
      1990.2814
   -684134.33549   -535631.81847  24264166.1194   24264164.1504
       274.5784
 04  9 17 21 27 15.0020000  0  8G 3G 8G13G19G23G27G28G10
   3664780.52049   2849187.04447  23494193.3934   23494191.2524
     -2294.2814
  -2763733.50049  -2151026.26548  21996837.8934   21996834.7954
       811.0164
   4728201.80649   3675832.19348  21081685.5964   21081681.3854
     -2601.3914
  -1993048.73949  -1550551.37948  22979803.9714   22979799.5494
       128.6414
  10083199.77349   7837123.19047  23612965.8854   23612962.7644
     -4420.8444
    150348.00449    114122.30648  21375384.7294   21375381.3464
      -324.9374
  -2824348.06049  -2199720.48947  23921833.9164   23921832.1394
      1986.3594
   -688183.69449   -538787.17147  24263396.0334   24263392.6864
       265.3444
 04  9 17 21 27 30.0020000  0  8G 3G 8G13G19G23G27G28G10
   3699260.75649   2876054.76047  23500754.9244   23500752.5534
     -2303.4374
  -2775879.55249  -2160490.71148  21994526.5494   21994523.0614
       808.0474
   4767280.91549   3706283.44748  21089122.4164   21089118.3264
     -2609.5004
  -1994918.75849  -1552008.52248  22979448.1664   22979443.2564
       120.3754
  10149539.90749   7888816.74047  23625590.2834   23625586.9364
     -4424.8444
    155239.45249    117933.83448  21376315.3614   21376312.2484
      -327.6254
  -2854119.33649  -2222918.80547  23916168.6354   23916166.3424
      1982.7814
   -692099.53849   -541838.48347  24262650.5804   24262647.3734
       256.3444
 04  9 17 21 27 45.0020000  0  8G 3G 8G13G19G23G27G28G10
   3733883.85849   2903033.81847  23507342.6744   23507341.7524
     -2313.1724
  -2787976.97949  -2169917.25248  21992224.3074   21992221.2794
       804.6564
   4806485.70349   3736832.63048  21096582.8074   21096578.4124
     -2618.0314
  -1996659.62249  -1553365.00647  22979116.4244   22979111.8184
       111.5784
  10215943.06649   7940559.38947  23638226.3934   23638222.6434
     -4429.1724
    160176.43249    121780.84048  21377254.8614   21377251.4634
      -330.8594
  -2883831.63549  -2246071.17847  23910514.9474   23910512.3734
      1978.6724
   -695876.13749   -544781.28147  24261931.7214   24261929.5724
       246.9384
 04  9 17 21 28  0.0020000  0  8G 3G 8G13G19G23G27G28G10
   3768653.47249   2930127.02647  23513959.3224   23513957.9124
     -2322.6874
  -2800021.74049  -2179302.76448  21989932.4394   21989929.1044
       801.4384
   4845819.90749   3767482.64748  21104067.6434   21104063.5454
     -2626.3754
  -1998267.23349  -1554617.66548  22978810.6894   22978806.2644
       102.9534
  10282412.76549   7992353.89647  23650875.0334   23650871.3894
     -4433.3284
    165162.68549    125666.23348  21378203.8384   21378200.3304
      -333.7974
  -2913480.89249  -2269174.42847  23904872.5494   23904870.7874
      1974.7344
   -699509.45449   -547612.43647  24261240.7134   24261237.6544
       237.7194
 04  9 17 21 28 15.0020000  0  8G 3G 8G13G19G23G27G28G10
   3803561.56249   2957328.12347  23520602.4634   23520600.5024
     -2331.7974
  -2812021.68649  -2188653.36248  21987648.8854   21987645.8384
       798.5004
   4885275.61049   3798227.34248  21111576.2604   21111571.9794
     -2634.4224
  -1999749.37549  -1555772.56147  22978528.4004   22978523.7254
        94.5784
  10348940.92249   8044193.95847  23663535.0724   23663531.9864
     -4437.2194
    170190.55449    129584.05548  21379160.6824   21379157.2604
      -336.6094
  -2943074.97149  -2292234.67147  23899241.0104   23899238.9244
      1971.1094
   -703007.46049   -550338.14147  24260574.4474   24260572.2294
       228.7034
 04  9 17 21 28 30.0020000  0  8G 3G 8G13G19G23G27G28G10
   3838609.06449   2984637.86247  23527271.8384   23527269.8034
     -2341.4374
  -2823975.88449  -2197968.30448  21985374.2134   21985371.2014
       795.1724
   4924853.55749   3829067.29848  21119107.5574   21119103.7014
     -2642.8284
  -2001104.81749  -1556828.71847  22978270.9474   22978266.1664
        85.9224
  10415528.36249   8096080.21747  23676206.1354   23676203.0024
     -4441.4534
    175260.86549    133534.94248  21380125.1114   21380121.6234
      -339.6564
  -2972612.71149  -2315251.01247  23893619.9864   23893617.8344
      1967.0164
   -706368.79349   -552957.35847  24259934.9714   24259932.6154
       219.1724
 04  9 17 21 28 45.0020000  0  8G 3G 8G13G19G23G27G28G10
   3873797.41449   3012057.36147  23533968.2604   23533965.5374
     -2350.6724
  -2835882.63249  -2207246.27948  21983108.1824   21983105.1864
       792.0944
   4964555.41149   3860003.80548  21126662.5644   21126658.4164
     -2651.0474
  -2002331.75549  -1557784.74747  22978036.8144   22978032.8144
        77.3444
  10482176.44349   8148013.72647  23688888.9394   23688885.8264
     -4445.3284
    180375.41849    137520.32648  21381098.7994   21381095.5254
      -342.5944
  -3002092.30749  -2338222.04747  23888010.2524   23888007.9984
      1963.2664
   -709591.85749   -555468.83247  24259321.7914   24259319.0804
       210.0944
 04  9 17 21 29  0.0020000  0  8G 3G 8G13G19G23G27G28G10
   3909125.32549   3039585.58847  23540691.1194   23540688.2644
     -2359.9374
  -2847743.11149  -2216488.20248  21980851.2684   21980848.2874
       789.1094
   5004379.99249   3891035.92848  21134240.9004   21134236.9044
     -2659.1414
  -2003431.09949  -1558641.35748  22977827.8854   22977823.1434
        68.9844
  10548883.82349   8199993.44847  23701583.2134   23701579.7484
     -4449.1094
    185533.08649    141539.28548  21382080.1744   21382076.7834
      -345.3444
  -3031514.63349  -2361148.47547  23882411.3694   23882408.4004
      1959.5004
   -712677.50449   -557873.23747  24258734.9004   24258731.5964
       201.1564
 04  9 17 21 29 15.0020000  0  8G 3G 8G13G19G23G27G28G10
   3944592.12549   3067222.05947  23547439.5884   23547437.6464
     -2369.3284
  -2859557.73749  -2225694.39548  21978603.0254   21978599.8304
       785.9844
   5044326.82149   3922163.33148  21141842.3074   21141838.2834
     -2667.3754
  -2004403.06549  -1559398.71247  22977643.1504   22977638.3654
        60.3134
  10615649.76649   8252018.78947  23714287.4634   23714284.9044
     -4453.1874
    190733.42149    145591.49348  21383069.7054   21383066.3034
      -348.2814
  -3060880.13749  -2384030.60447  23876823.1274   23876820.9164
      1955.6254
   -715626.21749   -560170.89347  24258172.9864   24258170.8184
       191.7664
 04  9 17 21 29 30.0020000  0  8G 3G 8G13G19G23G27G28G10
   3980201.46649   3094969.59347  23554216.4634   23554214.0764
     -2378.7664
  -2871322.70549  -2234861.88248  21976364.0804   21976361.1664
       782.5944
   5084399.54649   3953388.81748  21149468.0574   21149464.4394
     -2675.7664
  -2005243.61049  -1560053.67047  22977483.1974   22977478.7054
        51.5164
  10682477.87149   8304092.58747  23727004.5964   23727001.3734
     -4457.3444
    195980.36149    149680.02348  21384068.2444   21384064.7014
      -351.4694
  -3090184.70749  -2406865.26847  23871245.8934   23871244.7994
      1951.5944
   -718433.99849   -562358.79147  24257639.0254   24257637.1314
       182.4064
 04  9 17 21 29 45.0020000  0  8G 3G 8G13G19G23G27G28G10
   4015953.81849   3122828.55947  23561019.1434   23561016.9714
     -2387.7504
  -2883037.42049  -2243990.22248  21974135.1194   21974132.2054
       779.8754
   5124598.53349   3984712.68848  21157117.8934   21157113.5374
     -2683.5944
  -2005952.12849  -1560605.73547  22977348.3614   22977343.6544
        43.3594
  10749368.43049   8356215.04147  23739733.6824   23739730.7054
     -4460.8754
    201274.21149    153805.10248  21385075.5574   21385071.9004
      -354.0004
  -3119427.88349  -2429652.07447  23865681.5184   23865679.4944
      1948.0784
   -721100.30349   -564436.43147  24257132.4634   24257129.6074
       173.6094
 04  9 17 21 30  0.0020000  0  8G 3G 8G13G19G23G27G28G10
   4051842.71049   3150793.93747  23567848.6824   23567846.8734
     -2397.2664
  -2894707.98149  -2253084.15348  21971914.0104   21971911.0254
       776.5474
   5164917.38549   4016129.98248  21164789.8934   21164786.2484
     -2691.9844
  -2006534.59049  -1561059.57848  22977237.6504   22977232.5844
        34.5474
  10816314.85949   8408381.02447  23752473.7684   23752470.4124
     -4464.9224
    206608.91949    157962.02448  21386090.8074   21386087.0024
      -357.0784
  -3148615.77449  -2452395.79347  23860126.7444   23860124.9754
      1943.9534
   -723631.24949   -566408.59647  24256649.7914   24256647.7524
       164.0944
 04  9 17 21 30 15.0020000  0  8G 3G 8G13G19G23G27G28G10
   4087870.36449   3178867.41447  23574704.5254   23574702.8224
     -2406.4534
  -2906332.22749  -2262142.00048  21969701.9554   21969698.8894
       773.3754
   5205358.51949   4047642.53948  21172485.9324   21172481.5494
     -2700.1724
  -2006988.46749  -1561413.22948  22977150.9164   22977146.4044
        25.9384
  10883319.38049   8460592.27147  23765223.2294   23765221.0614
     -4468.8594
    211986.82849    162152.60248  21387114.2054   21387110.6544
      -359.9534
  -3177745.79049  -2475094.44647  23854584.5334   23854581.4864
      1940.0784
   -726024.37549   -568273.37247  24256194.8694   24256191.9244
       154.9844
 04  9 17 21 30 30.0020000  0  8G 3G 8G13G19G23G27G28G10
   4124040.11949   3207051.64747  23581587.8934   23581585.5764
     -2416.0624
  -2917906.50549  -2271160.90248  21967499.4864   21967496.4124
       769.8134
   5245925.29849   4079253.00448  21180204.9864   21180201.0764
     -2708.6724
  -2007310.01549  -1561663.76447  22977089.6894   22977085.4394
        16.9694
  10950385.20549   8512851.29747  23777986.7054   23777983.8184
     -4473.1254
    217411.58249    166379.68148  21388146.4634   21388143.0104
      -363.2344
  -3206814.30249  -2497745.15747  23849051.6894   23849049.7444
      1935.8284
   -728275.91249   -570027.79447  24255766.0884   24255763.8074
       145.3594
 04  9 17 21 30 45.0020000  0  8G 3G 8G13G19G23G27G28G10
   4160351.17349   3235345.96847  23588497.1974   23588495.1154
     -2425.1254
  -2929431.31549  -2280141.26248  21965306.3614   21965303.1194
       766.9534
   5286617.01249   4110960.82848  21187948.6114   21187944.6624
     -2716.5944
  -2007499.59049  -1561811.47547  22977053.4554   22977049.1044
         8.4844
  11017511.58249   8565157.47047  23790760.7754   23790757.4474
     -4476.8594
    222882.56349    170642.78948  21389187.3934   21389184.1114
      -366.0474
  -3235821.77549  -2520348.30947  23843532.0574   23843530.5104
      1932.1254
   -730386.37449   -571672.32247  24255364.6434   24255362.1434
       136.2974
 04  9 17 21 31  0.0020000  0  8G 3G 8G13G19G23G27G28G10
   4196800.16249   3263747.77347  23595433.4474   23595431.7094
     -2434.3914
  -2940909.76249  -2289085.49848  21963122.3224   21963119.4824
       763.9384
   5327430.31549   4142763.39048  21195715.2524   21195711.2484
     -2724.7814
  -2007560.21349  -1561858.69348  22977042.2294   22977037.3114
        -0.0944
  11084695.01749   8617508.15347  23803544.6504   23803541.7014
     -4480.5004
    228396.51849    174939.38048  21390236.7364   21390233.2404
      -368.8754
  -3264771.22749  -2542906.24547  23838023.2214   23838021.3544
      1928.1564
   -732358.92349   -573209.38247  24254989.3144   24254986.8074
       127.0314
 04  9 17 21 31 15.0020000  0  8G 3G 8G13G19G23G27G28G10
   4233387.58149   3292257.43947  23602395.9394   23602394.2794
     -2444.0164
  -2952341.34449  -2297993.22048  21960946.7834   21960943.6784
       760.2344
   5368365.88649   4174661.23048  21203504.9634   21203500.9714
     -2733.3594
  -2007491.04549  -1561804.77348  22977055.3144   22977050.9594
        -9.2034
  11151936.00349   8669903.65147  23816340.7834   23816338.2364
     -4484.9224
    233954.24949    179270.09248  21391294.7054   21391291.7094
      -372.2664
  -3293661.86649  -2565418.35847  23832525.5184   23832522.6824
      1923.7814
   -734192.82649   -574638.38047  24254640.9244   24254637.7294
       117.3444
 04  9 17 21 31 30.0020000  0  8G 3G 8G13G19G23G27G28G10
   4270114.04949   3320875.45947  23609384.7684   23609382.6504
     -2453.0004
  -2963725.25649  -2306863.79548  21958780.4324   21958777.3814
       757.3914
   5409424.28049   4206654.77148  21211318.3384   21211314.3304
     -2741.2504
  -2007291.31649  -1561649.13148  22977093.6044   22977088.7684
       -17.5784
  11219234.81449   8722344.21347  23829146.5884   23829144.0574
     -4488.5314
    239556.45349    183635.44648  21392360.7054   21392357.2564
      -374.9064
  -3322492.86849  -2587884.00947  23827039.0414   23827036.6154
      1920.1884
   -735887.34549   -575958.79247  24254318.4084   24254315.3224
       108.4064
 04  9 17 21 31 45.0020000  0  8G 3G 8G13G19G23G27G28G10
   4306978.32849   3349600.87447  23616399.9084   23616397.6464
     -2462.0784
  -2975062.39349  -2315697.91248  21956623.1434   21956620.1974
       754.3754
   5450604.38049   4238743.16448  21219154.4474   21219150.4164
     -2749.3124
  -2006961.75749  -1561392.30748  22977156.1664   22977151.4004
       -26.1874
  11286590.29449   8774828.91547  23841964.7994   23841961.4084
     -4492.1724
    245202.12749    188034.67348  21393434.9004   21393431.4864
      -377.7344
  -3351265.06349  -2610303.80847  23821564.1824   23821561.3734
      1916.3754
   -737443.22649   -577171.17047  24254021.6974   24254019.5294
        99.2504
 04  9 17 21 32  0.0020000  0  8G 3G 8G13G19G23G27G28G10
   4343981.40449   3378434.41647  23623441.1434   23623438.9554
     -2471.7504
  -2986351.55749  -2324494.66648  21954475.0184   21954471.9004
       750.7194
   5491907.28349   4270927.23048  21227014.2914   21227009.9004
     -2757.8754
  -2006500.96849  -1561033.23848  22977243.9004   22977239.9434
       -35.3594
  11354003.37849   8827358.53547  23854792.6824   23854789.3734
     -4496.4534
    250892.53249    192468.75548  21394517.7834   21394514.2484
      -381.1414
  -3379977.15849  -2632676.81647  23816100.5574   23816097.8144
      1911.8594
   -738859.26949   -578274.56647  24253752.3384   24253750.0614
        89.4224
 04  9 17 21 32 15.0020000  0  8G 3G 8G13G19G23G27G28G10
   4381124.55949   3407377.11647  23630508.9864   23630507.0844
     -2480.7664
  -2997591.29549  -2333252.88348  21952335.9864   21952333.1664
       747.7344
   5533334.23249   4303207.95948  21234897.4004   21234893.8224
     -2765.8124
  -2005907.33149  -1560570.64848  22977356.7834   22977352.2834
       -43.8914
  11421475.33149   8879934.02247  23867632.0644   23867629.6434
     -4499.9694
    256629.17849    196938.88148  21395609.6584   21395605.9204
      -383.8444
  -3408627.71749  -2655001.85947  23810647.7134   23810645.5644
      1908.0634
   -740133.90649   -579267.78547  24253509.9554   24253507.3304
        80.3754
 04  9 17 21 32 30.0020000  0  8G 3G 8G13G19G23G27G28G10
   4418404.91049   3436426.73447  23637602.9554   23637601.8654
     -2490.1094
  -3008784.30549  -2341974.70448  21950205.6434   21950202.8614
       744.4694
   5574882.41449   4335583.15448  21242803.8144   21242799.7874
     -2774.1724
  -2005183.33549  -1560006.47948  22977494.2134   22977489.9514
       -52.7974
  11489003.07449   8932552.96147  23880482.5494   23880479.7954
     -4503.8444
    262409.33549    201442.89248  21396709.1114   21396705.6974
      -387.0004
  -3437219.21849  -2677280.88247  23805206.9944   23805205.3464
      1904.0164
   -741269.69149   -580152.81147  24253294.3464   24253290.9164
        70.8284
 04  9 17 21 32 45.0020000  0  8G 3G 8G13G19G23G27G28G10
   4455822.46349   3465583.24047  23644723.5804   23644721.6784
     -2499.2194
  -3019930.29949  -2350659.88148  21948085.2134   21948082.0964
       741.3594
   5616551.98449   4368052.95548  21250733.0494   21250729.2484
     -2782.1564
  -2004328.69349  -1559340.51148  22977657.0104   22977652.7874
       -61.4694
  11556586.75949   8985215.49747  23893343.1434   23893340.3614
     -4507.5624
    268233.24549    205981.00248  21397817.1974   21397814.0644
      -389.8284
  -3465751.23149  -2699513.54247  23799777.5024   23799775.5494
      1900.0004
   -742266.41349   -580929.47547  24253103.9324   24253101.7444
        61.7034
 04  9 17 21 33  0.0020000  0  8G 3G 8G13G19G23G27G28G10
   4493379.03749   3494848.10647  23651870.7604   23651868.8304
     -2508.7034
  -3031027.10249  -2359306.73548  21945973.6114   21945970.6784
       737.9224
   5658344.84349   4400618.80348  21258686.3074   21258681.9864
     -2790.4694
  -2003341.19249  -1558571.01348  22977844.6744   22977840.8694
       -70.4224
  11624227.97349   9037922.89247  23906215.4084   23906211.8184
     -4511.4534
    274102.91449    210554.78148  21398934.4474   21398930.7604
      -393.0624
  -3494221.71649  -2721698.26247  23794360.1974   23794357.0574
      1895.7194
   -743122.05949   -581596.21447  24252940.4394   24252938.5104
        52.1254
 04  9 17 21 33 15.0020000  0  8G 3G 8G13G19G23G27G28G10
   4531074.90849   3524221.50747  23659043.7364   23659041.9474
     -2517.7974
  -3042074.23349  -2367914.88548  21943871.1434   21943868.2874
       734.7664
   5700261.37449   4433281.03248  21266662.4244   21266658.8074
     -2798.6414
  -2002220.06149  -1557697.39348  22978058.2054   22978053.3344
       -79.2664
  11691927.10149   9090675.37047  23919097.9244   23919094.3344
     -4515.3284
    280018.99149    215164.70848  21400060.1824   21400056.9044
      -396.0944
  -3522630.07049  -2743834.59847  23788953.8224   23788951.1194
      1891.7344
   -743836.05449   -582152.54147  24252805.3614   24252802.7604
        42.7504
 04  9 17 21 33 30.0020000  0  8G 3G 8G13G19G23G27G28G10
   4568906.71649   3553700.82147  23666243.2054   23666241.5724
     -2526.8914
  -3053075.14449  -2376487.01748  21941777.6894   21941774.7604
       731.6564
   5742298.24549   4466037.02448  21274662.0804   21274657.7914
     -2806.6874
  -2000968.51149  -1556722.14148  22978296.4164   22978291.9204
       -88.0164
  11759680.55049   9143470.20847  23931991.4554   23931987.6624
     -4518.9374
    285978.10849    219808.17748  21401194.3544   21401190.9824
      -398.8754
  -3550979.35649  -2765924.88647  23783559.0184   23783556.7754
      1887.7664
   -744411.50449   -582600.95647  24252695.3144   24252693.0214
        33.5784
 04  9 17 21 33 45.0020000  0  8G 3G 8G13G19G23G27G28G10
   4606876.52249   3583287.67747  23673468.5104   23673466.6114
     -2536.1414
  -3064027.53049  -2385021.32748  21939693.4474   21939690.4244
       728.3134
   5784457.56249   4498888.42948  21282684.5334   21282680.8964
     -2814.9224
  -1999584.06249  -1555643.33948  22978560.0964   22978555.4394
       -96.9534
  11827490.34049   9196308.93047  23944894.5184   23944891.7214
     -4522.7344
    291982.55949    224486.98048  21402336.7364   21402333.4004
      -401.9844
  -3579267.19749  -2787967.28447  23778176.2134   23778174.2174
      1883.5634
   -744846.03749   -582939.57647  24252612.8224   24252610.2364
        24.0784
 04  9 17 21 34  0.0020000  0  8G 3G 8G13G19G23G27G28G10
   4644984.10249   3612981.88547  23680720.7684   23680718.2914
     -2544.7814
  -3074931.07949  -2393517.59748  21937618.8144   21937615.6004
       725.4844
   5826739.36149   4531835.28548  21290730.4794   21290726.8614
     -2822.6564
  -1998066.45149  -1554460.77448  22978848.4474   22978843.9674
      -105.4374
  11895356.28149   9249191.40347  23957809.7364   23957806.0104
     -4526.1094
    298032.60549    229201.30248  21403487.9864   21403484.4904
      -404.6414
  -3607493.37249  -2809961.64347  23772804.8934   23772802.6664
      1879.8444
   -745139.43549   -583168.16947  24252557.3934   24252554.9674
        15.0004
 04  9 17 21 34 15.0020000  0  8G 3G 8G13G19G23G27G28G10
   4683228.35449   3642782.58547  23687997.5644   23687995.6744
     -2554.1874
  -3085787.01749  -2401976.75648  21935553.0024   21935549.8654
       722.0634
   5869142.32249   4564876.53848  21298799.9714   21298795.7794
     -2830.9224
  -1996416.61749  -1553175.16648  22979162.5964   22979157.8814
      -114.4064
  11963277.11349   9302116.65847  23970733.6894   23970730.5884
     -4529.8914
    304127.15849    233950.30248  21404647.8464   21404644.4474
      -407.7814
  -3635658.80349  -2831908.66847  23767444.9244   23767442.5374
      1875.6724
   -745292.65249   -583287.57847  24252527.5334   24252526.3854
         5.4844
 04  9 17 21 34 30.0020000  0  8G 3G 8G13G19G23G27G28G10
   4721610.08649   3672690.42647  23695301.7604   23695299.6044
     -2563.3124
  -3096594.17249  -2410397.90848  21933496.2994   21933493.3774
       718.8444
   5911667.62849   4598013.13048  21306891.9554   21306888.1544
     -2839.0784
  -1994633.13749  -1551785.42348  22979501.8144   22979498.2364
      -123.2974
  12031253.71949   9355085.36847  23983670.3774   23983667.1114
     -4533.5624
    310267.27949    238734.82048  21405816.1194   21405812.8614
      -410.8914
  -3663762.16949  -2853807.33347  23762097.4634   23762094.5844
      1871.5634
   -745304.50849   -583296.80447  24252525.6114   24252523.4394
        -3.8754
 04  9 17 21 34 45.0020000  0  8G 3G 8G13G19G23G27G28G10
   4760125.58749   3702702.49347  23702631.6044   23702629.1314
     -2572.3444
  -3107356.03049  -2418783.75748  21931448.4554   21931445.8224
       715.8754
   5954311.38549   4631242.02348  21315006.7914   21315002.6704
     -2846.9844
  -1992719.51149  -1550294.27448  22979865.6584   22979861.9244
      -132.0784
  12099282.13149   9408094.45747  23996616.0024   23996612.4084
     -4537.0784
    316449.51549    243552.14448  21406992.9794   21406989.4554
      -413.6094
  -3691807.10449  -2875660.47047  23756760.4084   23756758.0414
      1867.5004
   -745178.68649   -583198.74047  24252549.7524   24252547.3814
       -13.0474
 04  9 17 21 35  0.0020000  0  8G 3G 8G13G19G23G27G28G10
   4798775.66149   3732819.43547  23709986.1354   23709983.4084
     -2580.8914
  -3118071.20649  -2427133.23548  21929408.8464   21929406.2644
       713.0784
   5997074.71849   4664564.09748  21323144.6744   21323140.9904
     -2854.5474
  -1990674.40949  -1548700.67348  22980255.4394   22980250.9554
      -140.3914
  12167363.39249   9461144.72747  24009570.8144   24009567.7604
     -4540.2504
    322674.95249    248403.14048  21408177.2604   21408173.9124
      -416.2194
  -3719792.27949  -2897467.05247  23751434.8304   23751432.4364
      1863.9224
   -744913.88249   -582992.38347  24252600.0644   24252597.0644
       -21.9534
 04  9 17 21 35 15.0020000  0  8G 3G 8G13G19G23G27G28G10
   4837559.25849   3763040.39047  23717366.1744   23717363.8934
     -2589.8284
  -3128740.85349  -2435447.24348  21927378.9944   21927375.7484
       710.0634
   6039956.43949   4697978.41448  21331304.6664   21331300.7214
     -2862.5004
  -1988498.70649  -1547005.30148  22980669.1664   22980664.8894
      -149.1724
  12235496.07549   9514235.05747  24022536.3614   24022532.7914
     -4543.5944
    328942.65949    253287.07148  21409370.0724   21409366.3384
      -418.9694
  -3747718.67449  -2919227.81647  23746120.6504   23746117.9674
      1860.0784
   -744511.07049   -582678.52247  24252676.4474   24252674.4554
       -31.2344
 04  9 17 21 35 30.0020000  0  8G 3G 8G13G19G23G27G28G10
   4876475.33249   3793364.59647  23724770.8934   23724769.2054
     -2598.7814
  -3139365.81149  -2443726.42548  21925356.8774   21925353.9904
       706.9224
   6082955.49049   4731484.16448  21339487.0494   21339483.2014
     -2870.4374
  -1986193.11349  -1545208.70748  22981107.8544   22981103.4394
      -157.9224
  12303679.19449   9567364.66347  24035510.6824   24035507.9364
     -4547.1564
    335251.78749    258203.27548  21410570.4474   21410567.3614
      -421.9224
  -3775586.87849  -2940943.21547  23740817.9244   23740815.1864
      1856.0314
   -743971.03449   -582257.68947  24252778.9864   24252777.5414
       -40.5004
 04  9 17 21 35 45.0020000  0  8G 3G 8G13G19G23G27G28G10
   4915528.42349   3823795.56847  23732202.6274   23732200.9634
     -2608.1094
  -3149941.39749  -2451967.13748  21923344.8144   21923341.5764
       703.3444
   6126076.71749   4765085.11248  21347692.7214   21347689.1274
     -2878.8444
  -1983752.72149  -1543307.09048  22981571.9794   22981567.7444
      -167.2814
  12371917.23449   9620537.10247  24048495.7834   24048492.8574
     -4551.1254
    341607.17449    263155.52848  21411780.0254   21411776.5214
      -425.3444
  -3803392.06249  -2962609.55147  23735526.1114   23735523.7134
      1851.5004
   -743288.78249   -581726.06047  24252909.1744   24252907.1864
       -50.3284
 04  9 17 21 36  0.0020000  0  8G 3G 8G13G19G23G27G28G10
   4954719.84149   3854334.32447  23739661.6194   23739658.9984
     -2617.1414
  -3160465.94749  -2460168.07348  21921341.8854   21921339.1044
       700.1564
   6169321.53949   4798782.36448  21355921.8614   21355917.7174
     -2886.8124
  -1981175.65949  -1541298.97648  22982063.0104   22982058.4714
      -176.1724
  12440211.50149   9673753.31447  24061491.8304   24061489.2644
     -4554.4844
    348010.31549    268144.98248  21412998.6664   21412994.7484
      -428.1874
  -3831132.46649  -2984225.39547  23730247.2834   23730244.6394
      1847.4844
   -742462.76349   -581082.41047  24253066.2994   24253064.2324
       -59.5784
 04  9 17 21 36 15.0020000  0  8G 3G 8G13G19G23G27G28G10
   4994044.56149   3884976.94547  23747144.3144   23747142.4394
     -2625.8754
  -3170944.31749  -2468333.03048  21919347.7134   21919345.0574
       697.2034
   6212684.85349   4832571.94148  21364173.8384   21364169.8894
     -2894.7194
  -1978466.80749  -1539188.16948  22982578.1974   22982573.9124
      -184.9224
  12508556.93449   9727009.40347  24074497.2214   24074494.7954
     -4557.8754
    354456.53949    273168.01648  21414225.0334   21414222.3144
      -431.0624
  -3858812.92249  -3005794.52647  23724979.6974   23724977.3934
      1843.5004
   -741497.67449   -580330.38847  24253249.2684   24253247.6154
       -68.8444
 04  9 17 21 36 30.0020000  0  8G 3G 8G13G19G23G27G28G10
   5033503.76149   3915724.37547  23754652.6354   23754650.8774
     -2635.0624
  -3181374.95649  -2476460.80548  21917363.3224   21917360.0374
       693.8594
   6256167.84349   4866454.78748  21372448.3224   21372443.8114
     -2902.7194
  -1975624.54749  -1536973.40348  22983118.8544   22983114.2324
      -193.8594
  12576954.57649   9780306.17547  24087512.7214   24087509.8614
     -4561.4374
    360947.19149    278225.67248  21415459.9004   21415456.7754
      -434.1254
  -3886431.85049  -3027315.72347  23719723.9004   23719721.9164
      1839.3134
   -740392.26349   -579469.05147  24253460.0884   24253457.5414
       -78.3124
 04  9 17 21 36 45.0020000  0  8G 3G 8G13G19G23G27G28G10
   5073096.39749   3946575.75547  23762187.3694   23762185.3934
     -2644.1254
  -3191758.57849  -2484551.92648  21915387.3854   21915384.2444
       690.5944
   6299769.66949   4900430.22248  21380745.5724   21380741.4474
     -2910.9064
  -1972649.44849  -1534655.12447  22983685.1504   22983680.6864
      -202.8594
  12645403.46849   9833642.90947  24100538.7054   24100536.1154
     -4565.1094
    367481.54449    283317.37148  21416703.6194   21416700.0494
      -437.2194
  -3913990.00649  -3048789.56247  23714480.3384   23714477.5884
      1835.0164
   -739147.18149   -578498.84347  24253697.1194   24253695.0294
       -87.7814
 04  9 17 21 37  0.0020000  0  8G 3G 8G13G19G23G27G28G10
   5112824.78949   3977532.94847  23769747.0184   23769745.9284
     -2653.1874
  -3202092.81849  -2492604.57748  21913420.0104   21913417.3694
       687.1414
   6343492.68249   4934500.09448  21389065.5104   21389061.8544
     -2919.0784
  -1969538.92749  -1532231.31447  22984277.2604   22984272.4394
      -212.0784
  12713905.68949   9887021.16647  24113574.4324   24113571.7834
     -4568.6874
    374061.94049    288444.94948  21417955.6744   21417952.4164
      -440.3284
  -3941484.86049  -3070214.06647  23709247.4554   23709245.2254
      1830.7194
   -737759.94149   -577417.86547  24253961.5024   24253959.3034
       -97.3914
 04  9 17 21 37 15.0020000  0  8G 3G 8G13G19G23G27G28G10
   5152690.42749   4008597.04947  23777332.9474   23777332.5454
     -2661.9374
  -3212375.85849  -2500617.32648  21911463.8614   21911460.7324
       684.1564
   6387338.51849   4968665.67948  21397409.2214   21397405.3964
     -2926.8444
  -1966291.24549  -1529700.64347  22984895.1354   22984890.1234
      -220.7664
  12782462.77149   9940442.20247  24126620.2754   24126617.3694
     -4571.9844
    380690.35049    293609.94848  21419217.0804   21419213.8654
      -443.2344
  -3968914.43349  -3091587.72347  23704028.1584   23704025.7294
      1826.7504
   -736228.64349   -576224.64047  24254252.4714   24254250.8264
      -106.5474
 04  9 17 21 37 30.0020000  0  8G 3G 8G13G19G23G27G28G10
   5192689.37549   4039765.06647  23784945.2914   23784943.6974
     -2671.2974
  -3222611.34849  -2508593.02848  21909515.8694   21909512.6274
       680.5474
   6431303.29549   5002923.92948  21405775.3074   21405771.4864
     -2935.1254
  -1962909.74349  -1527065.68247  22985538.7214   22985533.9164
      -230.0784
  12851070.73349   9993902.88547  24139676.5414   24139673.6744
     -4575.7344
    387363.00849    298809.42548  21420487.2524   21420483.4324
      -446.4534
  -3996282.29649  -3112913.26347  23698820.3384   23698817.9754
      1822.2194
   -734556.96049   -574922.01247  24254570.9394   24254568.5644
      -116.2504
 04  9 17 21 37 45.0020000  0  8G 3G 8G13G19G23G27G28G10
   5232823.26349   4071038.19647  23792582.5724   23792580.4554
     -2680.2504
  -3232797.61649  -2516530.37848  21907577.7444   21907574.3344
       677.2974
   6475388.70549   5037276.18948  21414164.4864   21414160.9944
     -2943.2344
  -1959392.57349  -1524325.01748  22986208.2684   22986203.0724
      -239.1254
  12919731.13449  10047404.40247  24152742.4634   24152739.0964
     -4579.2504
    394081.77749    304044.83248  21421765.5104   21421762.1824
      -449.6254
  -4023586.66849  -3134189.35147  23693624.8934   23693622.0214
      1817.9844
   -732743.10149   -573508.61147  24254915.8224   24254913.9824
      -125.8124
 04  9 17 21 38  0.0020000  0  8G 3G 8G13G19G23G27G28G10
   5273090.49549   4102415.25747  23800244.7914   23800243.0924
     -2688.7814
  -3242935.88749  -2524430.32548  21905648.4794   21905645.1074
       674.4694
   6519593.10949   5071721.16748  21422576.2754   21422572.5184
     -2950.7504
  -1955741.09049  -1521479.67648  22986902.6044   22986897.3614
      -247.7664
  12988442.21949  10100945.45647  24165818.0104   24165814.5764
     -4582.2504
    400845.24549    309315.06248  21423052.9714   21423049.1864
      -452.2664
  -4050828.81249  -3155416.94447  23688440.1974   23688437.7604
      1814.1884
   -730788.38649   -571985.46047  24255288.0184   24255285.3464
      -134.8444
 04  9 17 21 38 15.0020000  0  8G 3G 8G13G19G23G27G28G10
   5313489.53449   4133895.01647  23807932.6044   23807931.0574
     -2697.9374
  -3253027.54149  -2532293.94948  21903727.9084   21903724.7014
       670.9694
   6563915.18849   5106257.84248  21431010.8224   21431007.2524
     -2959.0164
  -1951956.29749  -1518530.47548  22987622.9864   22987617.4324
      -257.0784
  13057202.70549  10154524.96647  24178902.3304   24178899.9244
     -4586.0164
    407652.24049    314619.22548  21424347.9164   21424344.4554
      -455.5474
  -4078009.81849  -3176596.88447  23683267.7754   23683265.8144
      1809.6884
   -728693.99049   -570353.48047  24255686.8694   24255684.4754
      -144.6874
 04  9 17 21 38 30.0020000  0  8G 3G 8G13G19G23G27G28G10
   5354026.88049   4165482.54447  23815646.2834   23815645.0764
     -2707.1874
  -3263065.76849  -2540115.93948  21901817.7604   21901814.4944
       667.4064
   6608361.48649   5140891.29948  21439468.6274   21439465.1314
     -2967.2034
  -1948031.34549  -1515472.05147  22988369.9164   22988365.1274
      -266.3444
  13126018.77449  10208147.80347  24191998.0724   24191994.8464
     -4589.5784
    414509.43149    319962.47748  21425652.8144   21425649.2684
      -458.8284
  -4105122.85749  -3197723.90247  23678108.7524   23678105.6274
      1805.2344
   -726453.27749   -568607.45347  24256113.3934   24256111.1194
      -154.2974
 04  9 17 21 38 45.0020000  0  8G 3G 8G13G19G23G27G28G10
   5394693.36949   4197170.72347  23823385.9474   23823383.4434
     -2715.6414
  -3273059.48149  -2547903.24248  21899915.9794   21899912.7294
       664.5314
   6652922.86149   5175614.44448  21447948.5104   21447944.4674
     -2974.8284
  -1943975.07849  -1512311.29648  22989141.8774   22989137.1974
      -275.0944
  13194881.30749  10261806.84847  24205101.7524   24205099.0964
     -4592.6414
    421407.82649    325337.85248  21426965.7834   21426962.0534
      -461.5164
  -4132176.79049  -3218804.83747  23672960.4164   23672957.6864
      1801.2974
   -724075.03049   -566754.27247  24256565.5644   24256562.9754
      -163.3594
 04  9 17 21 39  0.0020000  0  8G 3G 8G13G19G23G27G28G10
   5435494.34249   4228963.68047  23831149.4634   23831147.7324
     -2724.0784
  -3283003.10949  -2555651.52048  21898023.4714   21898020.9634
       661.6724
   6697604.70549   5210431.44248  21456450.9164   21456447.2324
     -2982.3594
  -1939781.88649  -1509043.85648  22989939.5494   22989934.6744
      -283.6564
  13263795.56649  10315506.17747  24218215.6114   24218213.0214
     -4595.5944
    428353.04049    330749.71948  21428287.0104   21428283.2484
      -464.1254
  -4159165.99949  -3239835.33847  23667824.2134   23667821.5494
      1797.5784
   -721553.62549   -564789.51847  24257044.6824   24257043.3074
      -172.4534
 04  9 17 21 39 15.0020000  0  8G 3G 8G13G19G23G27G28G10
   5476424.98649   4260857.68547  23838937.8614   23838936.5024
     -2733.0944
  -3292901.01749  -2563364.16848  21896140.1974   21896137.3854
       658.2974
   6742402.38449   5245338.72148  21464975.7134   21464972.1274
     -2990.5004
  -1935456.00049  -1505673.01348  22990762.8614   22990758.3264
      -292.8284
  13332756.79149  10369242.12747  24231339.5414   24231336.2954
     -4599.0004
    435340.62949    336194.59048  21429617.0494   21429613.4754
      -467.3124
  -4186094.83149  -3260818.80847  23662700.2524   23662696.7714
      1793.1564
   -718893.63049   -562716.79647  24257551.7214   24257550.0924
      -182.0164
 04  9 17 21 39 30.0020000  0  8G 3G 8G13G19G23G27G28G10
   5517486.53949   4292853.68347  23846751.8224   23846750.2484
     -2741.8594
  -3302751.96649  -2571040.23448  21894265.5334   21894262.1784
       655.1564
   6787317.21749   5280337.28148  21473522.6044   21473518.7754
     -2998.2034
  -1930995.92949  -1502197.61148  22991611.2294   22991606.5804
      -301.7664
  13401766.12949  10423015.52747  24244470.5574   24244468.8264
     -4602.1564
    442372.05749    341673.61548  21430955.0414   21430951.7954
      -470.2194
  -4212961.83149  -3281754.08047  23657587.2684   23657584.8184
      1789.0944
   -716093.62549   -560534.96547  24258084.3384   24258081.8894
      -191.3754
 04  9 17 21 39 45.0020000  0  8G 3G 8G13G19G23G27G28G10
   5558678.11049   4324950.99747  23854590.9794   23854588.9434
     -2750.7194
  -3312556.25949  -2578679.93848  21892399.9634   21892396.9674
       651.8134
   6832348.40949   5315426.50048  21482092.1824   21482088.1314
     -3006.2344
  -1926402.15749  -1498618.03548  22992485.5724   22992480.3074
      -311.0004
  13470822.84549  10476825.86447  24257611.6044   24257609.6114
     -4605.5164
    449446.83949    347186.44048  21432301.5964   21432297.9204
      -473.3754
  -4239767.47749  -3302641.54847  23652486.2754   23652483.7324
      1784.7344
   -713154.10349   -558244.42347  24258644.0414   24258640.9204
      -200.9534
 04  9 17 21 40  0.0020000  0  8G 3G 8G13G19G23G27G28G10
   5600003.67349   4357152.74847  23862454.3934   23862452.5334
     -2759.6874
  -3322309.89049  -2586280.16148  21890544.1194   21890540.6154
       648.3594
   6877499.96949   5350609.51748  21490684.1194   21490680.3854
     -3014.3444
  -1921670.36849  -1494930.90747  22993385.8694   22993381.3854
      -320.1874
  13539930.67249  10530676.03547  24270763.2134   24270760.4554
     -4609.0624
    456568.99749    352736.17048  21433656.4794   21433652.7484
      -476.5944
  -4266507.41449  -3323477.83147  23647398.1664   23647394.9554
      1780.3134
   -710070.91549   -555841.92347  24259229.8854   24259227.6974
      -210.4374
 04  9 17 21 40 15.0020000  0  8G 3G 8G13G19G23G27G28G10
   5641460.62349   4389456.85447  23870343.5884   23870341.3264
     -2768.1564
  -3332015.37649  -2593842.88348  21888697.0254   21888694.2914
       645.4384
   6922769.27149   5385884.28648  21499298.3934   21499294.9244
     -3021.8124
  -1916802.96949  -1491138.11547  22994311.9864   22994307.9244
      -328.9534
  13609086.85649  10584563.85247  24283922.5104   24283920.8264
     -4611.9534
    463736.29349    358321.07748  21435020.6504   21435016.6664
      -479.2814
  -4293184.10849  -3344264.81947  23642321.0334   23642318.3424
      1776.4224
   -706846.44349   -553329.35947  24259843.7214   24259841.8504
      -219.6094
 04  9 17 21 40 30.0020000  0  8G 3G 8G13G19G23G27G28G10
   5683048.74449   4421863.16747  23878257.7364   23878255.8654
     -2777.1724
  -3341672.28949  -2601367.73348  21886859.4554   21886856.2954
       641.9224
   6968156.41649   5421250.87448  21507935.4554   21507931.5574
     -3029.9844
  -1911799.60349  -1487239.36148  22995264.1354   22995259.4394
      -338.3914
  13678291.34549  10638489.36047  24297091.6974   24297090.3934
     -4615.5314
    470948.70449    363941.13348  21436393.0964   21436389.2174
      -482.5784
  -4319797.19849  -3365002.24547  23637256.8384   23637254.5104
      1771.7664
   -703480.49849   -550706.54947  24260484.1274   24260482.2134
      -229.4534
 04  9 17 21 40 45.0020000  0  8G 3G 8G13G19G23G27G28G10
   5724769.67749   4454372.97047  23886196.8854   23886194.2754
     -2785.5624
  -3351278.93149  -2608853.43648  21885031.3224   21885028.2954
       639.0944
   7013662.87849   5456710.44348  21516594.8074   21516591.2254
     -3037.4534
  -1906658.34849  -1483233.17547  22996242.2444   22996238.0764
      -347.0474
  13747545.67649  10692453.69747  24310271.3074   24310268.4044
     -4618.3444
    478208.19549    369597.87948  21437774.5964   21437770.5294
      -485.2344
  -4346344.82649  -3385688.67347  23632204.9864   23632202.2294
      1767.8594
   -699971.21849   -547972.04947  24261152.2754   24261150.1194
      -238.4224
 04  9 17 21 41  0.0020000  0  8G 3G 8G13G19G23G27G28G10
   5766619.44149   4486983.16447  23894160.5494   23894158.4594
     -2794.2814
  -3360839.19149  -2616302.97848  21883212.0254   21883208.9714
       635.7664
   7059284.82549   5492260.01148  21525276.3464   21525273.0104
     -3045.4224
  -1901382.87549  -1479122.39847  22997246.6274   22997241.5184
      -356.2344
  13816845.82649  10746453.74647  24323458.3544   24323455.4984
     -4621.5784
    485511.01849    375288.39248  21439164.4554   21439160.4984
      -488.3594
  -4372830.77749  -3406327.02947  23627165.2364   23627162.4084
      1763.5634
   -696322.41149   -545128.82647  24261846.5184   24261844.4244
      -247.9694
 04  9 17 21 41 15.0020000  0  8G 3G 8G13G19G23G27G28G10
   5808600.59549   4519695.74847  23902148.6434   23902147.0024
     -2803.3124
  -3370349.98149  -2623713.96748  21881402.1114   21881398.7324
       632.3134
   7105025.04749   5527901.72648  21533980.4794   21533976.6504
     -3053.4694
  -1895970.17749  -1474904.69948  22998276.5644   22998271.3574
      -365.5944
  13886194.34149  10800491.46947  24336655.1504   24336652.4594
     -4624.9694
    492860.03349    381014.90648  21440562.5574   21440558.8504
      -491.5944
  -4399252.03349  -3426914.97447  23622136.8854   23622134.2444
      1759.1884
   -692531.03049   -542174.50647  24262567.9474   24262566.5414
      -257.6724
 04  9 17 21 41 30.0020000  0  8G 3G 8G13G19G23G27G28G10
   5850715.80549   4552512.77547  23910163.5494   23910161.0294
     -2811.7504
  -3379808.20249  -2631084.01248  21879602.3854   21879598.9864
       629.1884
   7150886.14449   5563637.63048  21542707.9084   21542703.7684
     -3061.0004
  -1890417.16149  -1470577.66547  22999333.1824   22999328.4594
      -374.4534
  13955593.85549  10854568.95347  24349860.9244   24349859.0294
     -4627.9374
    500258.18349    386779.69348  21441970.3854   21441967.0844
      -494.4224
  -4425605.45949  -3447450.08647  23617121.8934   23617119.6274
      1755.1414
   -688594.16649   -539106.81347  24263317.4634   24263315.4124
      -266.9224
 04  9 17 21 41 45.0020000  0  8G 3G 8G13G19G23G27G28G10
   5892959.29849   4585429.79247  23918200.9864   23918199.8384
     -2820.6094
  -3389219.72449  -2638417.67148  21877811.5024   21877808.5064
       625.7504
   7196862.46749   5599463.32348  21551456.4714   21551452.8694
     -3069.0314
  -1884729.34949  -1466145.57948  23000415.3614   23000410.6864
      -383.7814
  14025038.63849  10908681.69847  24363075.4944   24363074.3614
     -4631.2344
    507699.88749    392578.42148  21443386.7054   21443382.9984
      -497.7034
  -4451896.62049  -3467936.65347  23612118.7524   23612116.4204
      1750.5944
   -684517.43149   -535930.14447  24264093.7604   24264090.8614
      -276.5314
 04  9 17 21 42  0.0020000  0  8G 3G 8G13G19G23G27G28G10
   5935331.81849   4618447.31747  23926264.8544   23926263.2054
     -2829.1254
  -3398583.29649  -2645713.94948  21876029.6894   21876026.7564
       622.5784
   7242954.87549   5635379.46848  21560227.8224   21560224.3224
     -3076.7504
  -1878905.60549  -1461607.57547  23001523.4944   23001519.1194
      -392.8124
  14094529.33249  10962830.19047  24376299.6744   24376297.6234
     -4634.2974
    515186.23649    398411.93648  21444811.5964   21444807.5374
      -500.5784
  -4478124.39549  -3488373.84447  23607127.9004   23607125.2564
      1746.3594
   -680299.82649   -532643.68847  24264895.4244   24264893.3694
      -285.8754
 04  9 17 21 42 15.0020000  0  8G 3G 8G13G19G23G27G28G10
   5977833.92649   4651565.83247  23934352.9714   23934351.5454
     -2837.7974
  -3407898.30849  -2652972.39548  21874257.1584   21874253.9164
       619.4064
   7289163.97149   5671386.54548  21569021.2524   21569017.2874
     -3084.4694
  -1872945.07349  -1456962.99347  23002658.3614   23002653.2484
      -401.9224
  14164066.42749  11017014.83747  24389532.9004   24389529.9204
     -4637.3284
    522718.05849    404280.89848  21446244.3384   21446240.8934
      -503.6414
  -4504287.84349  -3508760.90947  23602149.2524   23602146.4004
      1742.0944
   -675940.55149   -529246.85847  24265725.0024   24265722.7214
      -295.3444
 04  9 17 21 42 30.0020000  0  8G 3G 8G13G19G23G27G28G10
   6020464.78049   4684784.68847  23942465.3544   23942463.1354
     -2846.2814
  -3417165.18949  -2660193.33248  21872493.6824   21872490.4434
       616.2814
   7335489.02049   5707483.96848  21577836.4714   21577833.1434
     -3092.1254
  -1866848.09449  -1452212.08648  23003818.2294   23003813.1624
      -410.9374
  14233649.18549  11071235.09947  24402773.7524   24402771.7834
     -4640.2194
    530294.80349    410184.85248  21447686.2914   21447682.1744
      -506.5314
  -4530387.44049  -3529098.21047  23597182.4634   23597179.8144
      1737.9224
   -671440.13749   -525740.00947  24266582.1114   24266579.0574
      -304.6724
 04  9 17 21 42 45.0020000  0  8G 3G 8G13G19G23G27G28G10
   6063226.93049   4718105.81747  23950603.1584   23950600.5844
     -2855.1094
  -3426381.06549  -2667374.52448  21870739.6584   21870736.6934
       612.6724
   7381932.62149   5743673.77348  21586674.3774   21586670.4944
     -3100.2034
  -1860612.00949  -1447352.78648  23005005.0644   23004999.8934
      -420.3594
  14303279.93549  11125492.75847  24416022.7214   24416021.8074
     -4643.7194
    537919.26649    416125.98448  21449137.0964   21449133.3574
      -509.8594
  -4556420.36549  -3549383.57147  23592228.5884   23592225.9394
      1733.2194
   -666795.79249   -522121.06247  24267465.5574   24267463.2564
      -314.4534
 04  9 17 21 43  0.0020000  0  8G 3G 8G13G19G23G27G28G10
   6106116.74649   4751526.44047  23958764.1044   23958763.0884
     -2863.6874
  -3435549.46649  -2674518.73648  21868994.7294   21868991.8224
       609.5784
   7428491.10449   5779953.10348  21595533.6824   21595530.0104
     -3107.8124
  -1854240.10449  -1442387.64948  23006217.2914   23006213.0184
      -429.4224
  14372955.13449  11179784.98047  24429282.3144   24429280.5024
     -4646.5944
    545587.94149    422101.58248  21450596.7444   21450593.4324
      -512.8124
  -4582390.01249  -3569619.61847  23587287.1504   23587283.5454
      1729.1094
   -662010.91849   -518392.56847  24268375.7054   24268373.7404
      -323.7344
 04  9 17 21 43 15.0020000  0  8G 3G 8G13G19G23G27G28G10
   6149133.80349   4785046.21347  23966950.3774   23966948.6624
     -2871.9224
  -3444670.45449  -2681625.98448  21867259.4394   21867256.0184
       606.6414
   7475164.29149   5816321.80248  21604415.5724   21604412.3424
     -3115.2194
  -1847732.21249  -1437316.54848  23007455.8464   23007450.8304
      -438.2664
  14442674.33749  11234111.56147  24442549.8464   24442547.6194
     -4649.2664
    553300.91749    428111.68848  21452063.8464   21452060.4084
      -515.5474
  -4608296.27349  -3589806.28847  23582356.6664   23582353.7714
      1725.1094
   -657085.54249   -514554.63847  24269313.7834   24269310.4714
      -332.8914
 04  9 17 21 43 30.0020000  0  8G 3G 8G13G19G23G27G28G10
   6192276.92949   4818664.19847  23975160.5644   23975158.6234
     -2880.5314
  -3453744.84649  -2688696.95148  21865532.5724   21865529.1114
       603.2664
   7521951.03249   5852778.98848  21613318.9714   21613315.1074
     -3123.0004
  -1841089.18749  -1432140.16648  23008719.7294   23008714.8264
      -447.5474
  14512436.24249  11288471.39947  24455825.4474   24455822.5064
     -4652.3594
    561057.20949    434155.54648  21453540.1744   21453536.5254
      -518.6724
  -4634140.10749  -3609944.30447  23577439.1354   23577436.1664
      1720.6414
   -652020.71749   -510608.00547  24270276.8694   24270274.9044
      -342.4224
 04  9 17 21 43 45.0020000  0  8G 3G 8G13G19G23G27G28G10
   6235549.43249   4852383.04247  23983394.6974   23983393.5644
     -2888.7664
  -3462768.93149  -2695728.69948  21863815.1974   21863812.4164
       600.3284
   7568854.69749   5889327.28248  21622244.5574   21622240.3144
     -3130.4374
  -1834307.32149  -1426855.57048  23010010.3774   23010005.6394
      -456.4224
  14582244.17349  11342867.09147  24469108.5494   24469106.6894
     -4655.0624
    568860.49649    440236.02748  21455024.7214   21455021.6234
      -521.4534
  -4659917.82649  -3630030.79647  23572533.7214   23572531.0574
      1716.6884
   -646812.83749   -506549.92347  24271267.7994   24271265.6934
      -351.5944
 04  9 17 21 44  0.0020000  0  8G 3G 8G13G19G23G27G28G10
   6278945.74749   4886198.31647  23991653.9394   23991651.3264
     -2897.2504
  -3471748.21849  -2702725.54648  21862107.1434   21862103.6504
       597.0784
   7615869.68849   5925962.32548  21631191.1274   21631187.2644
     -3138.0474
  -1827391.98449  -1421466.98848  23011326.5184   23011321.9204
      -465.5314
  14652092.47749  11397294.25047  24482401.0414   24482398.6004
     -4657.9224
    576705.27949    446348.84548  21456517.8774   21456514.0574
      -524.4064
  -4685634.70749  -3650069.88547  23567639.7214   23567636.9084
      1712.3594
   -641467.30049   -502384.56347  24272285.4244   24272283.3224
      -360.9694
 04  9 17 21 44 15.0020000  0  8G 3G 8G13G19G23G27G28G10
   6322465.34649   4920109.68747  23999934.1114   23999932.6434
     -2905.5784
  -3480682.94349  -2709687.66048  21860406.6584   21860403.4944
       594.0004
   7662995.73849   5962683.90748  21640158.7444   21640155.1354
     -3145.5314
  -1820343.26949  -1415974.46848  23012667.2294   23012663.2874
      -474.5164
  14721980.71949  11451752.55147  24495700.4714   24495698.3074
     -4660.6874
    584591.51549    452493.96548  21458018.6974   21458015.3694
      -527.2814
  -4711290.87949  -3670061.67147  23562757.6974   23562755.0414
      1708.2504
   -635984.22549   -498112.04847  24273328.4084   24273326.1234
      -370.2664
 04  9 17 21 44 30.0020000  0  8G 3G 8G13G19G23G27G28G10
   6366114.57949   4954122.06047  24008240.9084   24008238.7954
     -2914.2344
  -3489566.50649  -2716609.92248  21858715.6974   21858712.7994
       590.6724
   7710239.21249   5999496.98948  21649148.8934   21649145.4864
     -3153.3444
  -1813154.49849  -1410372.81348  23014035.4634   23014030.8344
      -483.8444
  14791915.22949  11506246.89247  24509009.1194   24509006.3504
     -4663.6724
    592525.72149    458676.45748  21459528.5104   21459524.5884
      -530.4374
  -4736879.57349  -3690000.89147  23557888.3854   23557885.2214
      1703.7974
   -630357.01849   -493727.18747  24274399.5574   24274396.7714
      -379.7974
 04  9 17 21 44 45.0020000  0  8G 3G 8G13G19G23G27G28G10
   6409890.55449   4988233.17847  24016571.0494   24016569.4324
     -2922.4694
  -3498401.26649  -2723494.13548  21857035.0644   21857031.8264
       587.5784
   7757597.36549   6036399.42948  21658161.1504   21658157.3504
     -3160.7974
  -1805828.13749  -1404663.93948  23015429.3614   23015424.9984
      -492.7814
  14861893.10549  11560775.04247  24522325.1274   24522323.2214
     -4666.3914
    600505.38949    464894.38048  21461046.9474   21461042.9754
      -533.3124
  -4762403.32649  -3709889.48247  23553031.2524   23553028.7094
      1699.5944
   -624588.33949   -489232.14147  24275496.7754   24275494.5294
      -389.0474
 04  9 17 21 45  0.0020000  0  8G 3G 8G13G19G23G27G28G10
   6453791.90549   5022442.01647  24024926.0024   24024923.3424
     -2931.0004
  -3507188.53449  -2730341.35748  21855362.4324   21855359.6314
       584.2034
   7805068.96349   6073390.26748  21667194.5724   21667191.1864
     -3168.7034
  -1798365.21049  -1398848.65948  23016849.9714   23016845.0644
      -502.1564
  14931912.97649  11615335.90247  24535649.3224   24535647.2094
     -4669.3914
    608529.41449    471146.86748  21462573.7754   21462570.2364
      -536.4374
  -4787863.23349  -3729728.34947  23548186.1044   23548183.0764
      1695.0474
   -618679.22649   -484627.62247  24276621.5254   24276619.0924
      -398.7194
 04  9 17 21 45 15.0020000  0  8G 3G 8G13G19G23G27G28G10
   6497822.24949   5056751.36147  24033304.1664   24033302.4394
     -2939.5624
  -3515924.54149  -2737148.63048  21853700.3304   21853697.2564
       580.8754
   7852657.54049   6110472.25748  21676250.5574   21676246.4634
     -3176.2974
  -1790761.82549  -1392923.92448  23018296.7754   23018292.3184
      -511.3914
  15001978.31549  11669932.18947  24548982.4244   24548980.1004
     -4672.2974
    616601.75949    477436.99448  21464109.8934   21464106.3504
      -539.5944
  -4813255.28449  -3749514.31747  23543354.3304   23543351.4674
      1690.6724
   -612625.86849   -479910.71647  24277773.5804   24277770.8854
      -408.2344
 04  9 17 21 45 30.0020000  0  8G 3G 8G13G19G23G27G28G10
   6541976.33249   5091157.12347  24041705.7054   24041704.3774
     -2947.4844
  -3524614.00649  -2743919.63848  21852046.6044   21852043.6544
       577.9384
   7900358.02849   6147641.46448  21685327.5104   21685323.8654
     -3183.4844
  -1783022.74949  -1386893.46048  23019768.9164   23019764.5964
      -520.1874
  15072084.05949  11724559.95747  24562323.6044   24562320.9634
     -4674.7974
    624717.43049    483760.89948  21465654.3614   21465650.6234
      -542.2664
  -4838584.36249  -3769251.23947  23538534.4324   23538531.3654
      1686.7664
   -606433.16549   -475085.21747  24278952.0884   24278949.5804
      -417.2344
 04  9 17 21 45 45.0020000  0  8G 3G 8G13G19G23G27G28G10
   6586257.09949   5125661.60547  24050133.1114   24050130.4984
     -2956.1254
  -3533253.55049  -2750651.75248  21850402.7294   21850399.3894
       574.5164
   7948173.32449   6184900.11348  21694426.5964   21694422.5064
     -3191.2974
  -1775144.80149  -1380754.79748  23021268.5574   23021263.7914
      -529.6254
  15142232.99449  11779221.41647  24575672.3144   24575670.1274
     -4677.8754
    632879.62249    490121.03848  21467207.6504   21467203.7254
      -545.5164
  -4863847.25849  -3788936.56847  23533726.8614   23533724.0254
      1682.1724
   -600098.05749   -470148.77947  24280156.9324   24280155.3114
      -426.8594
 04  9 17 21 46  0.0020000  0  8G 3G 8G13G19G23G27G28G10
   6630662.10549   5160262.89247  24058582.7364   24058580.6434
     -2964.4694
  -3541845.34749  -2757346.64148  21848767.7914   21848764.6394
       571.1254
   7996101.21849   6222246.51148  21703547.0494   21703543.2404
     -3198.9534
  -1767129.93249  -1374509.41448  23022793.7364   23022789.1864
      -538.8754
  15212422.68849  11833914.57147  24589028.4394   24589027.7834
     -4680.7664
    641086.28849    496515.84948  21468768.8934   21468765.4984
      -548.6254
  -4889045.93649  -3808571.87047  23528931.5334   23528928.9674
      1677.8134
   -593622.63849   -465102.99647  24281389.8384   24281387.7794
      -436.4224
 04  9 17 21 46 15.0020000  0  8G 3G 8G13G19G23G27G28G10
   6675191.57249   5194961.16947  24067057.0884   24067054.4394
     -2972.8754
  -3550388.98149  -2764004.02148  21847141.9634   21847138.3504
       567.8914
   8044141.89549   6259680.78648  21712688.7134   21712684.8694
     -3206.6094
  -1758977.65949  -1368156.98448  23024344.9084   23024340.3184
      -548.2034
  15282653.22749  11888639.59247  24602393.3144   24602391.4164
     -4683.5164
    649337.82849    502945.62148  21470339.1974   21470335.3964
      -551.7504
  -4914179.96449  -3828156.79147  23524149.2604   23524145.7054
      1673.3594
   -587006.45049   -459947.51347  24282647.9084   24282646.9164
      -445.8594
 04  9 17 21 46 30.0020000  0  8G 3G 8G13G19G23G27G28G10
   6719846.19549   5229756.96847  24075553.8854   24075551.1194
     -2980.8914
  -3558883.67449  -2770623.25648  21845525.4554   21845522.5454
       564.8914
   8092296.30149   6297203.69048  21721852.4794   21721848.8774
     -3213.8594
  -1750687.02349  -1361696.73048  23025922.6744   23025918.2324
      -557.0624
  15352925.40949  11943396.98547  24615765.5184   24615764.2994
     -4685.9844
    657635.19849    509411.10148  21471918.6894   21471914.7174
      -554.4374
  -4939248.35949  -3847690.58547  23519378.3464   23519375.1154
      1669.2974
   -580248.60649   -454681.68347  24283934.3694   24283932.6394
      -454.9534
 04  9 17 21 46 45.0020000  0  8G 3G 8G13G19G23G27G28G10
   6764627.22749   5264651.24547  24084075.3614   24084072.6974
     -2989.6564
  -3567327.90249  -2777203.17448  21843918.4324   21843914.9634
       561.2664
   8140565.47949   6334816.01148  21731037.5104   21731033.8304
     -3221.7664
  -1742256.37049  -1355127.37948  23027527.0574   23027522.3144
      -566.7034
  15423240.38349  11998187.79747  24629146.0724   24629144.4204
     -4689.0944
    665979.98349    515913.52748  21473506.2604   21473502.6234
      -557.9064
  -4964249.38349  -3867171.86447  23514621.4394   23514618.0534
      1664.4384
   -573347.62249   -449304.30747  24285247.9004   24285245.3144
      -464.8914
 04  9 17 21 47  0.0020000  0  8G 3G 8G13G19G23G27G28G10
   6809532.69949   5299642.52547  24092620.4394   24092618.8074
     -2997.7664
  -3575723.10149  -2783744.88948  21842320.8854   21842317.3544
       558.0944
   8188947.64049   6372516.38248  21740244.5254   21740240.6784
     -3229.2344
  -1733687.37349  -1348450.21848  23029157.6504   23029152.7874
      -575.7974
  15493596.06649  12053010.29747  24642534.7524   24642532.6154
     -4691.7194
    674370.41849    522451.52348  21475103.0964   21475099.1274
      -560.8594
  -4989184.75449  -3886601.98147  23509876.2134   23509873.7094
      1660.2504
   -566305.28849   -443816.77547  24286587.8224   24286585.8504
      -474.2344
 04  9 17 21 47 15.0020000  0  8G 3G 8G13G19G23G27G28G10
   6854560.29049   5334728.94247  24101188.7834   24101186.9944
     -3005.7974
  -3584071.44549  -2790250.09448  21840732.1434   21840729.3544
       555.0474
   8237440.63149   6410303.11548  21749472.0804   21749468.7014
     -3236.4844
  -1724981.95049  -1341666.75747  23030814.4004   23030809.8144
      -584.8284
  15563990.21549  12107862.79047  24655930.0494   24655928.7914
     -4694.1254
    682804.67849    529023.67248  21476707.9944   21476704.4714
      -563.6874
  -5014056.29449  -3905982.36547  23505143.5414   23505140.2094
      1656.0164
   -559123.44549   -438220.54347  24287955.0104   24287952.0964
      -483.3754
 04  9 17 21 47 30.0020000  0  8G 3G 8G13G19G23G27G28G10
   6899709.96649   5369910.50147  24109780.5574   24109778.5614
     -3014.1564
  -3592372.43249  -2796718.37648  21839152.8304   21839149.8264
       551.6564
   8286044.53549   6448176.25848  21758721.3934   21758717.6894
     -3244.0944
  -1716139.76749  -1334776.73348  23032496.1354   23032492.5104
      -594.1414
  15634422.97949  12162745.36247  24669333.0644   24669331.6234
     -4696.9224
    691283.03349    535630.17748  21478321.4394   21478317.6584
      -566.8124
  -5038863.73349  -3925312.81947  23500422.2524   23500419.4674
      1651.5314
   -551801.85349   -432515.42347  24289348.2834   24289345.5184
      -492.7974
 04  9 17 21 47 45.0020000  0  8G 3G 8G13G19G23G27G28G10
   6944986.23349   5405190.68047  24118396.2914   24118394.1004
     -3022.6254
  -3600621.49049  -2803146.22048  21837582.8144   21837580.0184
       548.2664
   8334763.74249   6486139.25848  21767991.9164   21767988.2214
     -3251.7504
  -1707156.04649  -1327776.41348  23034205.7054   23034201.3934
      -603.5624
  15704898.72649  12217661.41347  24682745.1044   24682742.3034
     -4699.7814
    699810.11849    542274.66348  21479943.8464   21479940.0024
      -570.1094
  -5063602.37049  -3944589.65247  23495714.8544   23495711.4794
      1647.0164
   -544335.87649   -426697.77547  24290768.3614   24290766.0534
      -502.5944
 04  9 17 21 48  0.0020000  0  8G 3G 8G13G19G23G27G28G10
   6990388.31949   5440568.91447  24127035.3934   24127034.0644
     -3031.0944
  -3608819.06249  -2809533.93748  21836023.0724   21836020.2794
       544.6724
   8383597.82149   6524191.77448  21777285.0334   21777281.4324
     -3259.5164
  -1698031.07849  -1320666.03148  23035942.8464   23035937.5334
      -613.1564
  15775416.51549  12272610.25347  24696164.0804   24696161.7834
     -4702.6414
    708385.56749    548956.82548  21481575.9554   21481572.5884
      -573.4694
  -5088272.37449  -3963812.99947  23491020.4944   23491017.4594
      1642.2814
   -536725.94649   -420767.96947  24292217.0414   24292214.7834
      -512.2814
 04  9 17 21 48 15.0020000  0  8G 3G 8G13G19G23G27G28G10
   7035914.25549   5476043.64947  24135699.1114   24135697.5534
     -3039.0474
  -3616966.49549  -2815882.57948  21834472.6744   21834469.7214
       541.7194
   8432544.66549   6562332.14548  21786599.5414   21786595.8184
     -3266.6414
  -1688766.49949  -1313446.86448  23037705.8144   23037700.6624
      -622.0624
  15845974.48849  12327590.40047  24709590.3694   24709588.7444
     -4705.0474
    717007.77449    555675.42748  21483216.4324   21483213.3964
      -576.1414
  -5112875.53749  -3982984.23947  23486338.1354   23486335.7134
      1638.1884
   -528973.81549   -414727.34147  24293692.0104   24293689.6274
      -521.3594
 04  9 17 21 48 30.0020000  0  8G 3G 8G13G19G23G27G28G10
   7081564.40749   5511615.15747  24144386.1274   24144384.5294
     -3047.6254
  -3625063.43149  -2822191.88248  21832931.7684   21832928.3464
       538.0004
   8481604.77649   6600560.79548  21795935.4944   21795931.6824
     -3274.5624
  -1679361.68449  -1306118.41448  23039495.4634   23039490.5614
      -631.7504
  15916573.11249  12382602.22847  24723024.8384   24723023.3734
     -4708.0164
    725677.27849    562430.87948  21484866.1584   21484862.8464
      -579.6414
  -5137411.08049  -4002102.83147  23481669.2054   23481665.6824
      1633.3754
   -521078.90349   -408575.45747  24295194.7214   24295191.9714
      -531.1724
 04  9 17 21 48 45.0020000  0  8G 3G 8G13G19G23G27G28G10
   7127339.29949   5547283.91947  24153096.8384   24153094.7134
     -3055.7344
  -3633109.15549  -2828461.27348  21831400.4004   21831397.6314
       534.7664
   8530778.85249   6638878.22948  21805293.0254   21805289.4824
     -3281.9844
  -1669815.81149  -1298680.05948  23041311.7684   23041307.0214
      -641.0164
  15987212.74949  12437645.99847  24736468.0724   24736465.6074
     -4710.6094
    734394.96649    569223.88448  21486525.0964   21486521.7794
      -582.6724
  -5161878.17549  -4021168.05847  23477013.8544   23477010.2054
      1628.9064
   -513040.47649   -402311.76647  24296724.5724   24296721.8654
      -540.6724
 04  9 17 21 49  0.0020000  0  8G 3G 8G13G19G23G27G28G10
   7173239.45649   5583050.24247  24161831.6894   24161829.4594
     -3063.8124
  -3641102.66849  -2834689.98148  21829879.6664   21829877.1044
       531.4534
   8580067.43449   6677284.90848  21814672.4324   21814668.5104
     -3289.4374
  -1660127.85249  -1291130.98848  23043155.7214   23043150.7014
      -650.3284
  16057894.06649  12492722.28147  24749918.1354   24749916.0614
     -4713.2504
    743161.77249    576055.15648  21488193.8224   21488190.0964
      -585.8284
  -5186275.95649  -4040179.29447  23472370.2754   23472367.4824
      1624.5314
   -504857.64849   -395935.53947  24298281.3614   24298278.2834
      -550.0784
 04  9 17 21 49 15.0020000  0  8G 3G 8G13G19G23G27G28G10
   7219259.26749   5618909.82947  24170588.6274   24170586.3814
     -3072.4064
  -3649049.17049  -2840882.05048  21828367.3384   21828364.1584
       527.7194
   8629465.04349   6715776.53548  21824072.1974   21824068.3304
     -3297.2974
  -1650303.10949  -1283475.32948  23045024.5884   23045020.0574
      -660.0314
  16128611.35049  12547826.55647  24763374.6824   24763372.6934
     -4716.1414
    751972.33049    582920.52848  21489870.0804   21489866.6934
      -589.2504
  -5210609.50549  -4059140.45847  23467739.7684   23467736.7524
      1619.5634
   -496535.79949   -389450.98347  24299864.7444   24299862.3574
      -559.9374
 04  9 17 21 49 30.0020000  0  8G 3G 8G13G19G23G27G28G10
   7265404.97849   5654867.51147  24179370.1194   24179367.4824
     -3080.2974
  -3656942.02249  -2847032.31648  21826865.4394   21826862.5924
       524.7194
   8678978.06749   6754358.09748  21833494.1744   21833490.6784
     -3304.4224
  -1640334.93049  -1275707.89548  23046921.7754   23046916.3964
      -669.0004
  16199370.99249  12602963.84347  24776840.0884   24776837.8934
     -4718.4064
    760833.31149    589825.19848  21491556.2754   21491552.5764
      -592.0624
  -5234872.24649  -4078046.45047  23463122.5334   23463120.2684
      1615.4534
   -488068.37849   -382853.00847  24301476.4714   24301473.0964
      -569.0474
 04  9 17 21 49 45.0020000  0  8G 3G 8G13G19G23G27G28G10
   7311672.18449   5690919.86247  24188174.4714   24188172.2714
     -3088.3914
  -3664785.63349  -2853144.22348  21825372.7364   21825370.1004
       521.3914
   8728602.11449   6793026.16848  21842937.5184   21842934.1044
     -3311.8444
  -1630227.36849  -1267831.86148  23048845.6434   23048840.4904
      -678.3594
  16270168.47549  12658130.60247  24790311.8464   24790310.0574
     -4720.9694
    769740.55849    596765.90148  21493251.4324   21493247.7834
      -595.2504
  -5259068.32349  -4096900.51747  23458518.7364   23458515.3074
      1610.9694
   -479459.64949   -376144.89847  24303114.6044   24303112.2834
      -578.5164
 04  9 17 21 50  0.0020000  0  8G 3G 8G13G19G23G27G28G10
   7358063.97349   5727069.29347  24197002.6744   24197000.6824
     -3096.9534
  -3672576.49349  -2859215.02548  21823890.3934   21823887.7604
       517.5944
   8778340.32749   6831783.19748  21852402.0724   21852398.5764
     -3319.6414
  -1619977.15949  -1259844.66748  23050795.7754   23050791.3184
      -688.1094
  16341006.77149  12713329.14747  24803792.8774   24803790.9284
     -4723.9064
    778697.37849    603745.24548  21494955.8614   21494952.4674
      -598.8444
  -5283194.27649  -4115699.93347  23453927.5184   23453924.6234
      1605.9844
   -470706.28649   -369324.10947  24304780.0494   24304777.1704
      -588.3444
 04  9 17 21 50 15.0020000  0  8G 3G 8G13G19G23G27G28G10
   7404577.39549   5763313.49247  24205854.0644   24205852.4004
     -3104.6254
  -3680317.03449  -2865246.60448  21822417.1664   21822414.2994
       514.6564
   8828189.80849   6870626.92848  21861888.5884   21861885.4284
     -3326.7034
  -1609586.69649  -1251748.19248  23052773.0254   23052768.0804
      -697.0784
  16411883.06249  12768557.37847  24817280.3384   24817277.9904
     -4726.1254
    787701.18649    610761.19048  21496669.1894   21496665.0884
      -601.5624
  -5307252.58949  -4134446.63347  23449349.4394   23449346.2484
      1601.8444
   -461810.83249   -362392.60047  24306473.0334   24306469.7714
      -597.5164
 04  9 17 21 50 30.0020000  0  8G 3G 8G13G19G23G27G28G10
   7451211.35549   5799651.61247  24214727.9864   24214726.4284
     -3113.0944
  -3688008.20549  -2871239.72448  21820953.6114   21820950.6544
       510.9064
   8878149.76349   6909556.73748  21871395.5334   21871391.7644
     -3334.5474
  -1599056.83449  -1243543.08648  23054776.8384   23054771.4474
      -706.9064
  16482796.18849  12823814.27247  24830773.8614   24830772.0684
     -4728.9694
    796751.26849    617813.20548  21498391.4244   21498387.7254
      -605.1254
  -5331244.08249  -4153141.26847  23444784.2054   23444780.5254
      1596.9694
   -452774.19549   -355351.06347  24308192.0964   24308189.8074
      -607.3914
 04  9 17 21 50 45.0020000  0  8G 3G 8G13G19G23G27G28G10
   7497967.50949   5836084.97847  24223625.7994   24223624.0884
     -3121.0944
  -3695648.01749  -2877192.82048  21819499.6664   21819496.9204
       507.7194
   8928221.59849   6948573.73848  21880923.5724   21880920.0644
     -3341.6874
  -1588385.64349  -1235227.84548  23056807.4474   23056802.1664
      -716.0164
  16553747.77449  12879101.13747  24844276.0884   24844273.7994
     -4731.3124
    805849.53949    624902.77548  21500122.7754   21500119.1664
      -608.0624
  -5355166.81949  -4171782.33847  23440231.8074   23440228.2954
      1592.6094
   -443594.61749   -348198.16647  24309939.5104   24309936.4204
      -616.7034
 04  9 17 21 51  0.0030000  0  8G 3G 8G13G19G23G27G28G10
   7544847.38649   5872614.70447  24232546.6014   24232544.9214
     -3129.1254
  -3703238.13949  -2883107.19548  21818055.6714   21818052.4294
       504.3754
   8978407.21349   6987679.39148  21890473.7964   21890470.0734
     -3349.1094
  -1577573.70149  -1226802.94748  23058864.8904   23058860.3004
      -725.3754
  16624740.92749  12934420.33547  24857785.5934   24857783.8744
     -4733.7504
    814995.31149    632029.34548  21501863.1714   21501859.8234
      -611.1564
  -5379023.58249  -4190371.97947  23435691.7724   23435688.9374
      1588.1884
   -434272.70749   -340934.30447  24311712.8514   24311710.1674
      -626.0784
 04  9 17 21 51 15.0030000  0  7G 3G 8G13G19G27G28G10
   7591845.49149   5909236.60047  24241490.3824   24241488.6634
     -3137.3594
  -3710776.77849  -2888981.45648  21816620.9834   21816617.7294
       500.7504
   9028700.92949   7026869.28148  21900044.6404   21900040.9054
     -3356.7194
  -1566621.22049  -1218268.53848  23060948.9054   23060944.0694
      -735.0314
    824188.53149    639192.88348  21503612.3514   21503608.7764
      -614.5624
  -5402810.07149  -4208906.86747  23431165.1084   23431162.2294
      1583.4064
   -424808.67949   -333559.77147  24313514.0934   24313511.0034
      -635.7664
 04  9 17 21 51 30.0030000  0  7G 3G 8G13G19G27G28G10
   7638962.93149   5945951.46947  24250456.2964   24250454.7924
     -3145.2504
  -3718265.91149  -2894817.14648  21815195.8974   21815192.6364
       497.5474
   9079103.99949   7066144.38148  21909635.8124   21909631.8194
     -3363.9844
  -1555529.19649  -1209625.37648  23063059.7414   23063055.3664
      -744.1724
    833427.93449    646392.42348  21505370.7414   21505366.9794
      -617.5944
  -5426529.52749  -4227389.54747  23426651.9914   23426648.4444
      1578.9694
   -415203.69649   -326075.37447  24315342.1944   24315339.4564
      -645.1874
 04  9 17 21 51 45.0030000  0  7G 3G 8G13G19G27G28G10
   7686202.61049   5982761.55647  24259445.2414   24259444.2574
     -3153.2504
  -3725702.20049  -2900611.64948  21813780.7574   21813777.7694
       494.1564
   9129619.47249   7105507.06848  21919248.3824   21919244.8314
     -3371.2814
  -1544294.29649  -1200870.90448  23065197.5934   23065192.7884
      -753.6094
    842716.96149    653630.62648  21507138.2494   21507134.9524
      -620.7034
  -5450178.68949  -4245817.43147  23422151.5154   23422148.4834
      1574.3754
   -405454.52249   -318478.60447  24317197.0304   24317194.1404
      -654.6414
 04  9 17 21 52  0.0030000  0  7G 3G 8G13G19G27G28G10
   7733564.25849   6019666.72647  24268458.2184   24268456.6204
     -3161.4694
  -3733085.78649  -2906365.08548  21812375.4444   21812372.4914
       490.5944
   9180247.16149   7144957.21048  21928882.7264   21928879.0734
     -3378.7344
  -1532916.44849  -1192005.03248  23067362.9834   23067357.8084
      -763.1724
    852055.68449    660907.56348  21508915.3044   21508911.5504
      -624.0784
  -5473757.40649  -4264190.42447  23417664.0934   23417661.2764
      1569.6564
   -395561.25349   -310769.59047  24319079.5624   24319077.2064
      -664.2664
 04  9 17 21 52 15.0030000  0  7G 3G 8G13G19G27G28G10
   7781043.99749   6056663.89147  24277493.2334   24277491.1204
     -3169.0314
  -3740420.13949  -2912080.16848  21810980.0464   21810976.7144
       487.5944
   9230983.23049   7184491.78448  21938537.5774   21938534.0654
     -3385.7194
  -1521399.25149  -1183030.58148  23069554.3744   23069549.4444
      -772.2664
    861440.43349    668220.34348  21510701.1324   21510697.5934
      -626.9224
  -5497269.28949  -4282511.33947  23413190.4054   23413186.7494
      1565.4694
   -385527.57849   -302951.14647  24320988.9834   24320986.0464
      -673.3754
 04  9 17 21 52 30.0030000  0  7G 3G 8G13G19G27G28G10
   7828643.28749   6093754.23747  24286551.2494   24286549.3394
     -3177.3124
  -3747703.43549  -2917755.46048  21809593.8584   21809590.8124
       483.8444
   9281829.34149   7224112.10448  21948213.1474   21948209.7334
     -3393.4064
  -1509740.89349  -1173946.14548  23071773.0154   23071768.5544
      -781.9224
    870873.11349    675570.48448  21512496.1634   21512492.5734
      -630.4844
  -5520712.39849  -4300778.67147  23408729.5934   23408726.2454
      1560.5944
   -375351.80449   -295021.97347  24322925.7414   24322922.3784
      -683.1254
 04  9 17 21 52 45.0030000  0  7G 3G 8G13G19G27G28G10
   7876361.30349   6130937.08647  24295631.2494   24295630.3544
     -3185.1724
  -3754936.33349  -2923391.47948  21808217.8354   21808214.2884
       480.5004
   9332784.59349   7263817.48548  21957909.8044   21957906.1444
     -3400.6254
  -1497941.86149  -1164752.07848  23074017.9764   23074013.2844
      -791.3284
    880352.99549    682957.40348  21514300.0384   21514296.3784
      -633.5624
  -5544087.27049  -4318992.83547  23404280.8974   23404277.9644
      1556.0004
   -365034.57449   -286982.57347  24324888.4134   24324885.6674
      -692.5624
 04  9 17 21 53  0.0030000  0  7G 3G 8G13G19G27G28G10
   7924197.37349   6168211.91547  24304735.3974   24304733.7694
     -3193.0474
  -3762119.02349  -2928988.38148  21806850.7574   21806847.4174
       477.0784
   9383848.46449   7303607.49448  21967626.8514   21967623.1474
     -3408.0164
  -1486002.61349  -1155448.76448  23076289.8514   23076285.4174
      -800.7344
    889879.92149    690380.98148  21516112.7334   21516109.4874
      -636.7664
  -5567394.31849  -4337154.12847  23399845.6164   23399842.6944
      1551.4694
   -354576.30149   -278833.28147  24326878.8434   24326875.9724
      -701.8914
 04  9 17 21 53 15.0030000  0  7G 3G 8G13G19G27G28G10
   7972149.84949   6205577.44247  24313859.1944   24313858.2064
     -3200.7974
  -3769253.02149  -2934547.33248  21805493.6014   21805490.0224
       473.8594
   9435019.27649   7343480.82948  21977364.3744   21977360.6984
     -3415.0474
  -1473924.39549  -1146037.16248  23078588.5074   23078583.6084
      -809.9534
    899452.47549    697840.10648  21517934.5464   21517931.1044
      -639.8444
  -5590634.80049  -4355263.57147  23395423.2104   23395419.9764
      1546.9534
   -343978.24049   -270575.07647  24328896.1404   24328892.9404
      -711.2814
 04  9 17 21 53 30.0030000  0  7G 3G 8G13G19G27G28G10
   8020221.76549   6243036.05047  24323007.3974   24323005.5344
     -3208.6094
  -3776334.90149  -2940065.68048  21804145.8354   21804142.1834
       470.5784
   9486300.28049   7383440.03748  21987123.2724   21987119.7374
     -3422.3124
  -1461703.83749  -1136514.64248  23080914.0544   23080909.2534
      -819.2504
    909074.08549    705337.46848  21519765.2804   21519762.0814
      -642.9374
  -5613805.17149  -4373318.37647  23391014.0624   23391011.2614
      1542.5474
   -333237.15749   -262205.40247  24330939.4374   24330936.9724
      -720.6874
 04  9 17 21 53 45.0030000  0  7G 3G 8G13G19G27G28G10
   8068412.46949   6280587.24147  24332178.0154   24332176.1014
     -3216.5004
  -3783364.94049  -2945543.63048  21802807.9524   21802804.7374
       467.0944
   9537690.80449   7423484.58448  21996902.1634   21996898.3274
     -3429.5944
  -1449341.20549  -1126881.41948  23083266.5544   23083262.1474
      -828.7974
    918744.36549    712872.75048  21521605.6244   21521602.2924
      -646.2344
  -5636905.76149  -4391318.80947  23386618.1474   23386614.7184
      1537.8594
   -322353.50149   -253724.62947  24333010.5464   24333008.4644
      -730.3444
 04  9 17 21 54  0.0030000  0  7G 3G 8G13G19G27G28G10
   8116716.14249   6318226.43347  24341369.2654   24341367.9214
     -3223.9224
  -3790348.52549  -2950985.37648  21801479.0224   21801475.7264
       464.1564
   9589185.34649   7463610.18748  22006701.0074   22006697.7024
     -3436.3124
  -1436841.99949  -1117141.76048  23085645.4834   23085640.5384
      -837.7194
    928457.96449    720441.79348  21523454.1404   21523450.7374
      -648.9064
  -5659942.08149  -4409269.16147  23382234.2184   23382231.1044
      1533.6884
   -311332.75949   -245137.05147  24335107.2574   24335105.2804
      -739.1414
 04  9 17 21 54 15.0030000  0  7G 3G 8G13G19G27G28G10
   8165135.35149   6355955.68947  24350582.9764   24350581.8234
     -3231.9224
  -3797282.87249  -2956388.76448  21800159.3194   21800156.3974
       460.4534
   9640786.38249   7503818.77048  22016520.4994   22016517.0034
     -3443.7504
  -1424203.28349  -1107293.41248  23088049.9444   23088044.9764
      -847.4374
    938217.79749    728046.84748  21525311.4294   21525307.4444
      -652.3594
  -5682911.06349  -4427167.03947  23377863.6324   23377860.3234
      1528.8134
   -300172.19849   -236440.52347  24337231.2724   24337228.9374
      -748.8914
 04  9 17 21 54 30.0030000  0  7G 3G 8G13G19G27G28G10
   8213672.28849   6393776.64947  24359818.8354   24359817.9524
     -3239.8124
  -3804165.09949  -2961751.54248  21798849.9214   21798846.7454
       457.0474
   9692496.21849   7544112.13148  22026360.8044   22026357.3514
     -3451.0314
  -1411422.61149  -1097334.43548  23090481.9834   23090477.1594
      -856.7974
    948026.22249    735689.77448  21527177.8274   21527174.2494
      -655.5784
  -5705810.20349  -4445010.49447  23373506.2494   23373503.2614
      1524.2664
   -288869.50849   -227633.23647  24339382.8584   24339379.9334
      -758.3284
 04  9 17 21 54 45.0030000  0  7G 3G 8G13G19G27G28G10
   8262331.25949   6431692.72247  24369079.4374   24369077.9404
     -3247.6874
  -3810990.97049  -2967070.40148  21797550.8044   21797547.6284
       453.4224
   9744319.14149   7584493.61148  22036222.3514   22036218.6014
     -3458.3444
  -1398495.24949  -1087261.15848  23092942.0224   23092937.2294
      -866.4844
    957888.09849    743374.34748  21529054.5304   21529050.5654
      -658.9534
  -5728634.97149  -4462796.00747  23369162.3584   23369159.0544
      1519.4384
   -277420.03149   -218711.56547  24341561.1554   24341558.5814
      -767.8754
 04  9 17 21 55  0.0030000  0  7G 3G 8G13G19G27G28G10
   8311104.57849   6469697.86447  24378360.7184   24378359.2804
     -3255.5164
  -3817767.74649  -2972350.99748  21796261.0854   21796258.0894
       450.0164
   9796247.61249   7624957.33548  22046103.5304   22046100.1084
     -3465.5624
  -1385428.46949  -1077079.25748  23095428.8584   23095423.4214
      -875.9694
    967795.96449    751094.76548  21530939.9054   21530936.3314
      -662.1564
  -5751392.49749  -4480529.12847  23364832.0154   23364828.8154
      1514.7664
   -265831.21449   -209681.34047  24343766.8044   24343764.1014
      -777.3754
 04  9 17 21 55 15.0030000  0  7G 3G 8G13G19G27G28G10
   8359990.86549   6507791.03947  24387663.7414   24387662.3704
     -3262.7974
  -3824496.59249  -2977594.25548  21794980.8194   21794977.5584
       446.9844
   9848280.28949   7665502.25948  22056005.2884   22056001.7574
     -3472.3284
  -1372223.56549  -1066789.71648  23097941.6244   23097936.7144
      -884.9064
    977748.67449    758850.12548  21532833.9294   21532830.1164
      -664.9534
  -5774084.04849  -4498210.82447  23360513.9604   23360510.9914
      1510.6254
   -254104.33849   -200543.50947  24345998.2804   24345995.8704
      -786.3914
 04  9 17 21 55 30.0030000  0  7G 3G 8G13G19G27G28G10
   8408993.43649   6545974.85647  24396988.9054   24396986.9794
     -3270.5784
  -3831173.56849  -2982797.08148  21793710.2574   21793706.3904
       443.4844
   9900420.69349   7706131.12648  22065927.4604   22065923.9404
     -3479.5624
  -1358876.80549  -1056389.65448  23100481.4444   23100476.0504
      -894.4064
    987750.00249    766643.36048  21534736.8664   21534733.5154
      -668.2974
  -5796705.74249  -4515838.10147  23356209.2574   23356206.1794
      1505.8284
   -242235.64049   -191295.17947  24348256.5544   24348253.9874
      -795.9064
 04  9 17 21 55 45.0030000  0  7G 3G 8G13G19G27G28G10
   8458111.19449   6584248.40947  24406335.6794   24406333.3394
     -3278.5004
  -3837799.45449  -2987960.11848  21792449.2574   21792446.2614
       439.9064
   9952667.64649   7746843.03048  22075869.8194   22075866.1754
     -3486.8124
  -1345388.89849  -1045879.58948  23103048.2494   23103042.9254
      -904.0474
    997799.13849    774473.85748  21536649.3044   21536645.9294
      -671.7194
  -5819258.29849  -4533411.49747  23351917.3664   23351913.8704
      1501.0314
   -230226.17349   -181937.16047  24350541.8274   24350539.4094
      -805.3754
 04  9 17 21 56  0.0030000  0  7G 3G 8G13G19G27G28G10
   8507343.67749   6622611.36447  24415703.9994   24415701.7414
     -3286.1094
  -3844374.52149  -2993083.54348  21791198.1014   21791194.8274
       436.5314
  10005020.91949   7787637.76048  22085832.1084   22085828.5624
     -3493.8754
  -1331759.95949  -1035259.63948  23105641.7334   23105636.5654
      -913.3444
   1007896.05549    782341.56448  21538570.5224   21538567.0934
      -674.8284
  -5841741.99049  -4550931.24147  23347639.1404   23347635.6444
      1496.5004
   -218075.86749   -172469.39747  24352854.0224   24352851.5694
      -814.9064
 04  9 17 21 56 15.0030000  0  7G 3G 8G13G19G27G28G10
   8556691.16349   6661063.93047  24425094.3584   24425092.4374
     -3293.5784
  -3850898.07749  -2998166.83548  21789956.5694   21789953.2454
       433.1724
  10057480.83449   7828515.59948  22095814.9914   22095811.6634
     -3500.7814
  -1317989.29749  -1024529.25748  23108261.7724   23108257.1444
      -922.7504
   1018041.37849    790247.02348  21540501.2414   21540497.6014
      -677.9694
  -5864156.03649  -4568396.69447  23343373.9214   23343370.5934
      1492.0004
   -205784.40449   -162891.64847  24355192.9134   24355191.1554
      -824.1254
 04  9 17 21 56 30.0030000  0  7G 3G 8G13G19G27G28G10
   8606152.82849   6699605.46347  24434506.5464   24434505.0654
     -3301.2814
  -3857370.69949  -3003210.43448  21788725.0854   21788721.5624
       429.7344
  10110046.63149   7869475.94548  22105817.9914   22105814.4794
     -3508.0164
  -1304077.60749  -1013688.97748  23110909.0934   23110904.5734
      -932.1724
   1028234.53849    798189.73948  21542440.8584   21542437.7454
      -681.2194
  -5886500.91649  -4585808.27447  23339121.6634   23339118.2924
      1487.2974
   -193352.38649   -153204.37247  24357558.4604   24357556.4404
      -833.5474
 04  9 17 21 56 45.0030000  0  7G 3G 8G13G19G27G28G10
   8655725.30349   6738233.33647  24443940.0384   24443938.4334
     -3308.4064
  -3863795.29549  -3008216.61248  21787502.6244   21787499.6514
       426.8284
  10162715.01949   7910516.23048  22115840.4684   22115836.9684
     -3514.4844
  -1290027.81149  -1002741.08748  23113582.9054   23113578.2574
      -941.1254
   1038472.60049    806167.45048  21544389.2024   21544385.5194
      -683.9374
  -5908779.65049  -4603168.29047  23334881.9054   23334879.0814
      1483.1094
   -180782.91949   -143409.99147  24359951.0854   24359948.6984
      -842.3754
 04  9 17 21 57  0.0030000  0  7G 3G 8G13G19G27G28G10
   8705411.30949   6776949.70147  24453394.8514   24453394.1164
     -3316.0004
  -3870168.87149  -3013183.03348  21786289.7334   21786286.4764
       423.3594
  10215488.73049   7951638.57748  22125883.1554   22125879.2144
     -3521.5944
  -1275836.89649   -991683.22748  23116283.3744   23116278.3044
      -950.5784
   1048758.66449    814182.56748  21546346.6874   21546343.4994
      -687.1414
  -5930989.12649  -4620474.35947  23330655.6794   23330652.6514
      1478.4694
   -168072.98549   -133506.16147  24362368.7964   24362366.6404
      -851.6724
 04  9 17 21 57 15.0030000  0  7G 3G 8G13G19G27G28G10
   8755210.78749   6815754.44647  24462871.1874   24462869.9374
     -3323.5784
  -3876491.11349  -3018109.45348  21785086.7724   21785083.1324
       419.9844
  10268367.94049   7992843.14248  22135945.6324   22135941.8824
     -3528.6564
  -1261504.54449   -980515.17548  23119010.4764   23119006.2414
      -960.0474
   1059092.99049    822235.27748  21548313.3354   21548309.7024
      -690.4374
  -5953129.07349  -4637726.24347  23326442.7574   23326439.7104
      1473.7344
   -155222.42949   -123492.74047  24364815.0384   24364812.4604
      -861.1724
 04  9 17 21 57 30.0030000  0  7G 3G 8G13G19G27G28G10
   8805122.98749   6854647.06247  24472369.0464   24472367.9254
     -3331.0474
  -3882762.34649  -3022996.12648  21783893.2104   21783890.2104
       416.4844
  10321351.83649   8034129.27948  22146027.8124   22146024.4564
     -3535.5944
  -1247031.15949   -969237.21448  23121764.9994   23121759.9374
      -969.5624
   1069475.26849    830325.36148  21550288.7184   21550285.3004
      -693.6094
  -5975199.69949  -4654924.10747  23322242.8044   23322239.8974
      1469.1724
   -142231.79349   -113370.18047  24367286.9524   24367284.6284
      -870.5784
 04  9 17 21 57 45.0030000  0  7G 3G 8G13G19G27G28G10
   8855149.10349   6893628.42347  24481888.0854   24481887.9684
     -3338.8124
  -3888981.05449  -3027841.86948  21782709.8044   21782706.7534
       412.7974
  10374441.60249   8075497.90348  22156130.9604   22156127.2064
     -3542.8594
  -1232415.30249   -957848.23948  23124546.2334   23124541.5734
      -979.1874
   1079906.90949    838453.90748  21552273.7724   21552270.2144
      -697.1094
  -5997199.62949  -4672066.88947  23318056.0934   23318053.2414
      1464.2974
   -129099.72549   -103137.41447  24369785.9604   24369783.0074
      -880.2034
 04  9 17 21 58  0.0030000  0  7G 3G 8G13G19G27G28G10
   8905286.10249   6932696.17547  24491430.3434   24491428.5974
     -3346.4064
  -3895150.17949  -3032648.97948  21781535.7884   21781532.7694
       409.4224
  10427634.58049   8116946.95748  22166253.0694   22166249.6124
     -3549.8754
  -1217659.70749   -946350.37448  23127353.9444   23127349.0504
      -988.5624
   1090385.19949    846618.80748  21554267.6794   21554264.0654
      -700.3284
  -6019131.54749  -4689156.67047  23313882.7334   23313879.7804
      1459.6254
   -115829.13349    -92796.69147  24372311.2024   24372308.3044
      -889.5314
 04  9 17 21 58 15.0030000  0  7G 3G 8G13G19G27G28G10
   8955534.35349   6971850.60947  24500991.3124   24500990.5694
     -3353.7974
  -3901268.73049  -3037416.67748  21780371.5224   21780368.3434
       406.0004
  10480931.06749   8158476.67048  22176394.7024   22176391.4484
     -3556.7344
  -1202763.63049   -934743.04048  23130188.5854   23130183.2804
      -997.9694
   1100910.92549    854820.66748  21556270.8514   21556267.1444
      -703.5784
  -6040994.59449  -4706192.78247  23309722.4524   23309719.3624
      1455.0634
   -102419.25249    -82347.46047  24374862.7184   24374859.7294
      -898.8124
 04  9 17 21 58 30.0030000  0  7G 3G 8G13G19G27G28G10
   9005896.43549   7011093.79047  24510575.3904   24510574.0934
     -3361.1414
  -3907333.72749  -3042142.64348  21779217.2964   21779214.3084
       402.7504
  10534333.79949   8200089.16548  22186557.1244   22186553.8394
     -3563.5474
  -1187724.11249   -923023.94748  23133050.6474   23133045.6984
     -1007.2664
   1111486.90149    863061.68548  21558283.7494   21558279.9014
      -706.6254
  -6062785.91449  -4723173.01247  23305575.6634   23305571.9564
      1450.4844
    -88867.23949    -71787.43847  24377441.9054   24377438.9214
      -908.0314
 04  9 17 21 58 45.0030000  0  7G 3G 8G13G19G27G28G10
   9056367.58149   7050421.94147  24520180.0854   24520178.8004
     -3368.2664
  -3913349.65649  -3046830.37648  21778072.5464   21778069.5774
       399.5784
  10587838.00549   8241780.73148  22196738.6874   22196734.8824
     -3570.1564
  -1172545.66649   -911196.58648  23135938.9994   23135934.2224
     -1016.3914
   1122108.87149    871338.54348  21560304.6874   21560301.2224
      -709.5164
  -6084509.86249  -4740100.73647  23301441.4374   23301438.4914
      1446.0784
    -75177.58249    -61120.18647  24380046.6164   24380044.4914
      -917.1874
 04  9 17 21 59  0.0030000  0  7G 3G 8G13G19G27G28G10
   9106949.19849   7089836.14447  24529805.9764   24529803.8704
     -3376.0944
  -3919314.79049  -3051478.53348  21776937.3584   21776934.4564
       395.7034
  10641445.22249   8283552.57848  22206940.0854   22206936.6444
     -3577.4064
  -1157226.52849   -899259.59848  23138854.5074   23138849.3904
     -1026.2034
   1132778.65449    879652.65448  21562335.0854   21562331.0584
      -713.1414
  -6106164.66649  -4756974.58847  23297320.4054   23297317.3124
      1441.1094
    -61348.63449    -50344.40347  24382678.5224   24382676.0894
      -926.9064
 04  9 17 21 59 15.0030000  0  7G 3G 8G13G19G27G28G10
   9157641.84449   7129336.88947  24539452.2724   24539450.8944
     -3383.4844
  -3925228.16449  -3056086.35948  21775812.2494   21775809.4954
       392.2034
  10695156.02049   8325405.12848  22217160.7024   22217157.1084
     -3584.4534
  -1141765.88949   -887212.33948  23141795.9914   23141791.6044
     -1035.7504
   1143497.02949    888004.62748  21564374.6164   21564370.7534
      -716.4374
  -6127749.48149  -4773793.89547  23293212.6794   23293209.9564
      1436.3284
    -47379.70649    -39459.53647  24385336.3194   24385334.0384
      -936.2194
 04  9 17 21 59 30.0030000  0  7G 3G 8G13G19G27G28G10
   9208442.49449   7168921.78447  24549118.7884   24549117.9334
     -3390.4224
  -3931092.42649  -3060655.91448  21774696.4444   21774693.1674
       389.1724
  10748967.50849   8367336.14548  22227400.6404   22227397.2024
     -3590.9064
  -1126166.35549   -875056.87348  23144764.7654   23144759.9684
     -1044.7504
   1154261.33449    896392.39548  21566423.0464   21566419.1164
      -719.2194
  -6149266.84249  -4790560.64147  23289118.5694   23289115.5464
      1432.1884
    -33273.72449    -28467.85047  24388020.8194   24388019.1904
      -945.1254
 04  9 17 21 59 45.0030000  0  7G 3G 8G13G19G27G28G10
   9259352.56849   7208591.95747  24558806.3354   24558805.3664
     -3397.7504
  -3936905.79449  -3065185.81148  21773589.9524   21773586.8744
       385.6884
  10802881.26349   8409346.84348  22237660.7104   22237656.7764
     -3597.8124
  -1110426.02549   -862791.67748  23147760.2414   23147755.1084
     -1054.1874
   1165073.68349    904817.60148  21568480.7964   21568476.8864
      -722.5784
  -6170714.76049  -4807273.29247  23285037.3974   23285034.1554
      1427.4694
    -19028.79049    -17367.92247  24390731.6554   24390729.0734
      -954.4534
 04  9 17 22  0  0.0030000  0  7G 3G 8G13G19G27G28G10
   9310371.13649   7248346.64647  24568514.7804   24568513.5304
     -3404.9844
  -3942668.70349  -3069676.38848  21772493.2334   21772490.2064
       382.3594
  10856896.25149   8451436.42148  22247939.0224   22247935.2574
     -3604.5004
  -1094545.78149   -850417.45648  23150782.0934   23150777.0224
     -1063.4534
   1175933.28349    913279.62748  21570547.3514   21570543.4564
      -725.6254
  -6192094.12449  -4823932.50647  23280968.7574   23280965.4484
      1422.8594
     -4645.65549     -6160.29347  24393468.3664   24393466.4524
      -963.6414
 04  9 17 22  0 15.0030000  0  7G 3G 8G13G19G27G28G10
   9361499.60549   7288187.02447  24578244.7804   24578243.0544
     -3412.1254
  -3948379.63949  -3074126.45948  21771406.7264   21771403.6324
       379.0314
  10911014.09849   8493606.15148  22258237.2414   22258233.2764
     -3611.2194
  -1078523.75549   -837932.75548  23153830.8664   23153826.2574
     -1072.8124
   1186841.78349    921779.75048  21572623.0464   21572618.9094
      -728.8914
  -6213403.00449  -4840536.80347  23276913.8974   23276910.4444
      1418.3754
      9877.27849      5156.27847  24396232.0544   24396229.7574
      -972.7664
 04  9 17 22  0 30.0030000  0  7G 3G 8G13G19G27G28G10
   9412735.53349   7328111.07447  24587994.4914   24587992.4604
     -3419.3594
  -3954040.72849  -3078537.69948  21770329.3904   21770326.2964
       375.6884
  10965232.32149   8535854.10148  22268554.5774   22268551.1474
     -3617.9694
  -1062362.22849   -825339.36148  23156906.1634   23156901.3824
     -1082.1724
   1197797.14249    930316.39148  21574708.0074   21574704.2064
      -731.9694
  -6234643.56149  -4857087.85847  23272872.0854   23272868.6984
      1413.7034
     24537.53249     16579.83447  24399021.8194   24399019.3904
      -981.9374
 04  9 17 22  0 45.0030000  0  7G 3G 8G13G19G27G28G10
   9464082.50449   7368121.68547  24597766.2964   24597763.7534
     -3426.8594
  -3959647.80849  -3082906.84548  21769262.2334   21769259.3004
       372.0004
  11019554.57649   8578183.12048  22278892.4294   22278888.2964
     -3624.9694
  -1046057.30549   -812634.22148  23160009.2024   23160004.0114
     -1091.8444
   1208803.25149    938892.58148  21576802.3354   21576798.3434
      -735.4534
  -6255811.86049  -4873582.60447  23268843.4914   23268840.5194
      1408.7974
     39338.96549     28113.40947  24401838.1084   24401836.0194
      -991.4844
 04  9 17 22  1  0.0030000  0  7G 3G 8G13G19G27G28G10
   9515538.75949   7408217.44747  24607556.9914   24607555.6634
     -3434.0474
  -3965202.35549  -3087235.06048  21768205.0934   21768202.1594
       368.6254
  11073979.19749   8620591.90048  22289248.8904   22289244.8544
     -3631.7344
  -1029610.35049   -799818.41748  23163138.5934   23163133.6754
     -1101.1564
   1219858.82549    947507.31448  21578905.6164   21578902.1244
      -738.7034
  -6276909.26549  -4890022.11447  23264829.0464   23264825.4294
      1404.0474
     54280.11249     39755.86047  24404681.4764   24404678.9564
     -1000.7504
 04  9 17 22  1 15.0030000  0  7G 3G 8G13G19G27G28G10
   9567103.22949   7448397.54547  24617368.6714   24617368.0154
     -3441.2974
  -3970705.13749  -3091522.94148  21767158.1794   21767154.6124
       365.0634
  11128505.24649   8663079.70448  22299624.6944   22299620.9724
     -3638.5314
  -1013022.16449   -786892.55348  23166294.8514   23166290.2804
     -1110.6724
   1230963.11949    956160.00148  21581018.9684   21581015.3784
      -742.0624
  -6297936.56849  -4906407.01347  23260827.2884   23260823.9404
      1399.4064
     69360.15549     51506.54047  24407551.5544   24407549.0264
     -1010.1414
 04  9 17 22  1 30.0030000  0  7G 3G 8G13G19G27G28G10
   9618773.81449   7488660.32147  24627202.5624   24627200.9794
     -3448.0474
  -3976157.85149  -3095771.80548  21766120.5854   21766117.1164
       361.9844
  11183130.78149   8705645.03948  22310019.6474   22310015.9564
     -3644.9374
   -996294.44149   -773857.95848  23169478.3514   23169473.7494
     -1119.6724
   1242114.42049    964849.32448  21583140.9914   21583137.0264
      -744.8444
  -6318895.27349  -4922738.44047  23256839.7574   23256836.0974
      1395.1094
     84577.30149     63364.05847  24410447.0694   24410444.5654
     -1018.9374
 04  9 17 22  1 45.0030000  0  7G 3G 8G13G19G27G28G10
   9670550.56849   7529005.80747  24637055.6164   24637054.0074
     -3455.3284
  -3981560.02049  -3099981.27848  21765092.7024   21765089.2804
       358.3914
  11237855.97849   8748288.02748  22320433.2024   22320429.8974
     -3651.7194
   -979426.75949   -760714.31148  23172688.6404   23172683.5974
     -1129.2664
   1253313.28049    973575.70348  21585272.2104   21585268.5154
      -748.1874
  -6339784.99249  -4939016.11647  23252864.4134   23252860.9214
      1390.3134
     99931.96449     75328.70847  24413368.8044   24413366.4404
     -1028.2664
 04  9 17 22  2  0.0030000  0  7G 3G 8G13G19G27G28G10
   9722433.67249   7569434.19347  24646928.1944   24646926.5154
     -3462.6564
  -3986911.06849  -3104150.93348  21764074.6634   21764070.8944
       354.7974
  11292680.99149   8791008.80348  22330866.0624   22330862.2614
     -3658.5624
   -962418.69649   -747461.28048  23175925.1474   23175920.0304
     -1138.8124
   1264560.21049    982339.54648  21587412.3194   21587408.6794
      -751.6414
  -6360605.18849  -4955239.63047  23248902.1084   23248898.6834
      1385.4694
    115424.31249     87400.67447  24416317.4054   24416314.8974
     -1037.6254
 04  9 17 22  2 15.0030000  0  7G 3G 8G13G19G27G28G10
   9774423.02849   7609945.35947  24656821.8514   24656820.1444
     -3469.6094
  -3992210.83149  -3108280.60848  21763065.9054   21763062.2844
       351.5784
  11347605.68349   8833807.24948  22341317.8744   22341314.4174
     -3665.0314
   -945270.12449   -734098.75348  23179187.9834   23179183.1714
     -1148.0004
   1275855.39049    991140.98348  21589561.6244   21589558.1444
      -754.6564
  -6381355.62549  -4971408.77647  23244953.5384   23244949.9374
      1380.9224
    131054.48849     99580.02647  24419291.2104   24419289.3704
     -1046.6094
 04  9 17 22  2 30.0030000  0  7G 3G 8G13G19G27G28G10
   9826518.51749   7650539.20147  24666735.1634   24666733.7064
     -3476.5784
  -3997459.02449  -3112370.10348  21762067.1634   21762063.8154
       348.1254
  11402630.06549   8876683.37248  22351788.4684   22351785.1404
     -3671.6564
   -927980.73449   -720626.50248  23182478.3124   23182473.6014
     -1157.4374
   1287199.03849    999980.17648  21591720.6554   21591716.6204
      -757.9224
  -6402036.08649  -4987523.39847  23241018.1554   23241014.7294
      1376.3134
    146822.53749    111866.80147  24422292.1554   24422289.9524
     -1055.8594
 04  9 17 22  2 45.0030000  0  7G 3G 8G13G19G27G28G10
   9878718.93549   7691214.80747  24676668.5304   24676666.9254
     -3483.7194
  -4002656.39449  -3116420.00548  21761078.2724   21761075.0344
       344.6884
  11457753.42149   8919636.61248  22362278.7184   22362274.6904
     -3678.3124
   -910551.41949   -707045.21648  23185794.8434   23185790.0654
     -1166.7504
   1298590.36549   1008856.54248  21593888.0384   21593884.7494
      -761.1564
  -6422647.43649  -5003584.16147  23237095.5544   23237092.9444
      1371.5944
    162727.46049    124260.23147  24425318.3274   24425316.8904
     -1065.0314
 04  9 17 22  3  0.0030000  0  7G 3G 8G13G19G27G28G10
   9931019.22449   7731968.23847  24686619.4524   24686619.2064
     -3490.2664
  -4007807.72749  -3120434.02548  21760097.6794   21760094.3234
       341.7504
  11512970.47249   8962662.87048  22372786.1404   22372782.3624
     -3684.4374
   -892986.92249   -693358.58948  23189137.3354   23189132.0894
     -1175.7194
   1310024.76849   1017766.45848  21596063.8354   21596060.3704
      -763.9224
  -6443194.28249  -5019594.66947  23233185.6324   23233182.7184
      1367.4694
    178764.49349    136756.61747  24428370.4764   24428367.9794
     -1073.7664
 04  9 17 22  3 15.0030000  0  7G 3G 8G13G19G27G28G10
   9983423.92549   7772803.05347  24696592.5774   24696591.8474
     -3497.0624
  -4012908.26749  -3124408.47548  21759127.3744   21759124.0694
       338.2504
  11568285.72049   9005765.64348  22383312.2724   22383308.9134
     -3690.9534
   -875282.39949   -679562.85948  23192506.4214   23192501.4334
     -1184.9064
   1321507.08549   1026713.71548  21598249.0774   21598245.7184
      -767.1414
  -6463671.71949  -5035551.09347  23229289.5304   23229285.9054
      1362.7974
    194938.35749    149359.61747  24431447.9834   24431445.4604
     -1082.7664
 04  9 17 22  3 30.0030000  0  7G 3G 8G13G19G27G28G10
  10035932.77249   7813719.02347  24706585.4994   24706583.5814
     -3504.0004
  -4017957.71349  -3128343.09848  21758166.4684   21758163.1164
       335.0314
  11623698.87149   9048944.69648  22393857.2264   22393853.1754
     -3697.4374
   -857437.89249   -665658.04048  23195901.7024   23195896.7764
     -1194.2034
   1333037.44849   1035698.41448  21600443.1714   21600439.1514
      -770.2034
  -6484079.65249  -5051453.36147  23225405.7884   23225402.1634
      1358.2814
    211248.97749    162069.18847  24434551.9994   24434549.6084
     -1091.9064
 04  9 17 22  3 45.0030000  0  7G 3G 8G13G19G27G28G10
  10088544.73049   7854715.30947  24716596.8044   24716595.4914
     -3511.0944
  -4022956.64849  -3132238.37348  21757215.0074   21757211.9334
       331.3594
  11679208.97849   9092199.30848  22404419.7884   22404416.5974
     -3704.0474
   -839454.12449   -651644.71448  23199324.3194   23199319.5974
     -1203.7974
   1344615.30349   1044720.11648  21602646.1874   21602642.5424
      -773.6414
  -6504418.72549  -5067301.96447  23221535.1404   23221531.8194
      1353.4384
    227695.56849    174884.70047  24437682.2024   24437679.1874
     -1101.1874
 04  9 17 22  4  0.0030000  0  7G 3G 8G13G19G27G28G10
  10141260.50949   7895792.50247  24726628.3824   24726626.5654
     -3517.9224
  -4027903.97449  -3136093.43448  21756273.7024   21756269.9724
       328.0164
  11734817.01649   9135530.22448  22415001.8744   22414998.3944
     -3710.5624
   -821330.06849   -637522.07648  23202772.9914   23202768.4794
     -1213.0474
   1356241.54949   1053779.52848  21604858.6554   21604855.2144
      -776.7974
  -6524687.80849  -5083096.04847  23217677.9684   23217674.6754
      1348.8134
    244279.15549    187806.96747  24440838.0624   24440835.2724
     -1110.2194
 04  9 17 22  4 15.0030000  0  7G 3G 8G13G19G27G28G10
  10194082.20949   7936952.24847  24736679.7264   24736678.4294
     -3524.8124
  -4032797.35649  -3139906.45648  21755342.2654   21755338.9834
       324.6884
  11790525.21749   9178939.19848  22425602.6714   22425598.9914
     -3717.0474
   -803063.29949   -623288.23248  23206249.2104   23206244.8434
     -1222.3444
   1367918.72849   1062878.62948  21607081.1794   21607077.0774
      -779.9694
  -6544884.63749  -5098833.80047  23213834.5774   23213831.8584
      1344.2194
    261001.96449    200837.72547  24444019.9524   24444017.7884
     -1119.2664
 04  9 17 22  4 30.0030000  0  7G 3G 8G13G19G27G28G10
  10247003.00149   7978189.21247  24746750.4764   24746749.1474
     -3531.3914
  -4037643.21849  -3143682.45048  21754420.3044   21754416.9444
       321.4224
  11846326.75549   9222420.89548  22436221.5854   22436217.9334
     -3723.2504
   -784660.34449   -608948.27348  23209751.7804   23209746.1794
     -1231.4534
   1379640.46149   1072012.43848  21609311.6324   21609308.0224
      -783.0474
  -6565015.51949  -5114520.16947  23210004.0544   23210001.0934
      1339.8284
    277857.38049    213971.79147  24447227.6634   24447224.3084
     -1128.2194
 04  9 17 22  4 45.0030000  0  7G 3G 8G13G19G27G28G10
  10300029.31749   8019508.39647  24756841.3584   24756839.8864
     -3538.3444
  -4042434.57449  -3147415.97548  21753508.2264   21753505.6984
       317.8284
  11902228.05149   9265980.32748  22446859.3974   22446855.6084
     -3729.9064
   -766114.51049   -594496.98348  23213280.6014   23213275.5224
     -1240.9064
   1391413.40749   1081186.16748  21611551.7724   21611548.2494
      -786.2974
  -6585073.64249  -5130149.86847  23206186.7494   23206183.2574
      1335.0474
    294852.05849    227214.38747  24450461.4294   24450459.2574
     -1137.4064
 04  9 17 22  5  0.0030000  0  7G 3G 8G13G19G27G28G10
  10353157.20349   8060906.71747  24766950.9374   24766949.8744
     -3545.0474
  -4047175.13349  -3151109.92248  21752606.4524   21752603.4404
       314.5004
  11958225.38149   9309614.58948  22457515.1014   22457512.0114
     -3736.2034
   -747429.38549   -579937.14448  23216835.8434   23216830.7494
     -1250.1094
   1403234.18349   1090397.15848  21613800.9994   21613797.3704
      -789.4224
  -6605062.48949  -5145725.58247  23202382.6554   23202379.6904
      1330.5164
    311982.23149    240562.57147  24453721.1324   24453718.6674
     -1146.3444
 04  9 17 22  5 15.0030000  0  7G 3G 8G13G19G27G28G10
  10406387.45149   8102384.79946  24777080.6244   24777078.6324
     -3552.1564
  -4051863.69949  -3154763.34448  21751714.2804   21751710.9174
       310.7034
  12014319.55449   9353324.31048  22468189.5304   22468186.3274
     -3742.9224
   -728603.86149   -565267.89848  23220418.4764   23220413.4134
     -1259.7344
   1415103.88749   1099646.27248  21616059.8584   21616056.2294
      -793.0004
  -6624981.05549  -5161246.51647  23198592.4764   23198589.3974
      1325.4694
    329248.89149    254017.11247  24457006.9214   24457005.2884
     -1155.7194
 04  9 17 22  5 30.0030000  0  7G 3G 8G13G19G27G28G10
  10459718.68749   8143941.59847  24787228.7104   24787227.4994
     -3558.7344
  -4056501.26449  -3158377.02348  21750831.6324   21750828.8744
       307.5474
  12070509.19049   9397108.42248  22478881.8744   22478878.2614
     -3749.0944
   -709639.05549   -550490.13548  23224027.0774   23224023.0154
     -1268.9374
   1427021.39249   1108932.64748  21618327.8904   21618324.1404
      -796.0784
  -6644830.33549  -5176713.47447  23194815.7494   23194812.5934
      1321.0314
    346650.75149    267576.99947  24460318.2264   24460316.1244
     -1164.5314
 04  9 17 22  5 45.0030000  0  7G 3G 8G13G19G27G28G10
  10513150.78049   8185576.97046  24797396.6874   24797395.7454
     -3565.4064
  -4061087.61849  -3161950.81048  21749959.0074   21749955.8664
       304.2344
  12126794.41749   9440967.01648  22489592.6404   22489589.5774
     -3755.4064
   -690534.74449   -535603.66048  23227662.5304   23227657.6404
     -1278.1094
   1438987.19549   1118256.64548  21620604.7804   21620601.1404
      -799.2034
  -6664610.09249  -5192126.26147  23191051.7804   23191048.2224
      1316.4694
    364187.99549    281242.36347  24463655.9684   24463653.2494
     -1173.5784
 04  9 17 22  6  0.0030000  0  7G 3G 8G13G19G27G28G10
  10566683.47149   8227290.71847  24807583.6714   24807582.5894
     -3572.0784
  -4065622.52649  -3165484.50848  21749096.1014   21749093.0584
       300.7814
  12183174.95449   9484899.87948  22500321.4374   22500317.9334
     -3761.7194
   -671290.89749   -520608.46048  23231324.8274   23231320.0694
     -1287.4534
   1451001.28049   1127618.27248  21622891.0774   21622887.1794
      -802.4694
  -6684320.07449  -5207484.67347  23187300.5074   23187297.8274
      1311.7974
    381860.53249    295013.17747  24467018.4374   24467016.0224
     -1182.5474
 04  9 17 22  6 15.0030000  0  7G 3G 8G13G19G27G28G10
  10620318.10549   8269083.89447  24817791.1084   24817788.2694
     -3578.9064
  -4070104.22449  -3168976.74048  21748243.0304   21748239.6874
       297.0164
  12239652.25349   9528908.13748  22511068.6164   22511065.5894
     -3768.2814
   -651905.89949   -505503.28148  23235013.5544   23235008.2144
     -1296.9694
   1463065.44449   1137018.91148  21625186.4214   21625182.7724
      -805.8594
  -6703958.63349  -5222787.42747  23183564.2884   23183559.9954
      1306.9694
    399670.12149    308890.75647  24470407.5074   24470404.9834
     -1191.8444
 04  9 17 22  6 30.0030000  0  7G 3G 8G13G19G27G28G10
  10674051.61849   8310954.18246  24828015.1794   24828013.6014
     -3585.3914
  -4074535.62749  -3172429.77148  21747399.7414   21747396.7264
       293.8594
  12296223.32449   9572989.46748  22521834.7104   22521830.4874
     -3774.3914
   -632382.48749   -490290.23648  23238728.6714   23238723.9444
     -1306.0164
   1475177.09649   1146456.56348  21627491.6244   21627487.8784
      -808.8754
  -6723528.42549  -5238036.59647  23179839.8904   23179836.0194
      1302.5944
    417613.71649    322872.76547  24473822.0934   24473819.1474
     -1200.4694
 04  9 17 22  6 45.0030000  0  7G 3G 8G13G19G27G28G10
  10727884.41949   8352901.78747  24838259.1244   24838257.8124
     -3592.0164
  -4078915.89849  -3175842.96948  21746566.3584   21746563.4334
       290.3284
  12352888.60549   9617144.22048  22532617.0854   22532613.4134
     -3780.7814
   -612720.00149   -474968.82548  23242469.8664   23242466.0584
     -1315.4374
   1487336.88549   1155931.72648  21629805.3744   21629801.7374
      -812.2194
  -6743028.76549  -5253231.65247  23176128.6554   23176125.3314
      1297.7344
    435691.96149    336959.70347  24477262.3974   24477260.0774
     -1209.7194
 04  9 17 22  7  0.0030000  0  7G 3G 8G13G19G27G28G10
  10781816.99849   8394927.14946  24848521.9134   24848520.7454
     -3599.0624
  -4083244.08949  -3179215.59748  21745742.7724   21745739.2884
       286.6254
  12409648.73749   9661372.87148  22543418.3744   22543414.9524
     -3787.3594
   -592917.58749   -459538.37748  23246238.7334   23246233.8354
     -1325.0164
   1499545.73749   1165445.10748  21632128.3584   21632124.7654
      -815.7344
  -6762458.76249  -5268371.89347  23172431.9054   23172428.2964
      1292.7974
    453905.40249    351151.98247  24480727.3904   24480725.7224
     -1218.9224
 04  9 17 22  7 15.0030000  0  7G 3G 8G13G19G27G28G10
  10835851.18449   8437031.71447  24858803.5384   24858803.6204
     -3605.7664
  -4087517.87849  -3182545.82548  21744929.3354   21744926.4094
       283.0004
  12466505.54249   9705676.85348  22554237.8274   22554234.3744
     -3793.7504
   -572973.21349   -443997.30648  23250033.8974   23250029.3044
     -1334.4534
   1511805.92749   1174998.49848  21634461.8974   21634458.0264
      -819.1724
  -6781816.04149  -5283455.46547  23168747.6554   23168744.4874
      1288.0474
    472256.20049    365451.29447  24484219.8584   24484217.8434
     -1228.0004
 04  9 17 22  7 30.0030000  0  7G 3G 8G13G19G27G28G10
  10889984.61349   8479213.58746  24869105.4214   24869104.3704
     -3612.5314
  -4091739.31049  -3185835.24448  21744126.1794   21744122.4174
       279.3754
  12523456.70649   9750054.36948  22565075.7264   22565071.7374
     -3800.0784
   -552888.92949   -428347.22148  23253855.4914   23253850.9994
     -1343.8284
   1524115.44249   1184590.32448  21636804.2104   21636800.1474
      -822.5164
  -6801102.77849  -5298484.08747  23165077.9134   23165074.1874
      1283.2344
    490742.18249    379855.95247  24487738.2024   24487735.5694
     -1237.0784
 04  9 17 22  7 45.0030000  0  7G 3G 8G13G19G27G28G10
  10944219.44849   8521474.47946  24879426.1084   24879425.5654
     -3619.1254
  -4095905.86849  -3189081.90648  21743333.0624   21743329.8864
       275.7344
  12580504.54749   9794507.21048  22575931.3354   22575928.1554
     -3806.5624
   -532662.16449   -412586.11948  23257704.3514   23257699.9334
     -1353.3914
   1536476.81249   1194222.56948  21639156.1474   21639152.4404
      -825.9534
  -6820316.39449  -5313455.71147  23161421.9994   23161417.8544
      1278.3594
    509365.71549    394367.77847  24491281.8124   24491279.6514
     -1246.3284
 04  9 17 22  8  0.0030000  0  7G 3G 8G13G19G27G28G10
  10998554.24449   8563813.23346  24889765.8904   24889764.7574
     -3625.5944
  -4100018.53449  -3192286.58248  21742550.4214   21742547.6404
       272.4064
  12637647.69749   9839034.31348  22586804.9684   22586802.0504
     -3812.6724
   -512294.17049   -396714.96448  23261580.8124   23261575.8944
     -1362.5314
   1548888.94349   1203894.35248  21641518.1714   21641514.6244
      -829.0624
  -6839458.07149  -5328371.29847  23157779.2104   23157775.8154
      1273.7504
    528125.48149    408985.75347  24494851.8434   24494849.3044
     -1255.1414
 04  9 17 22  8 15.0030000  0  7G 3G 8G13G19G27G28G10
  11052985.25449   8606226.96346  24900124.6944   24900123.1754
     -3631.9534
  -4104080.67349  -3195451.89448  21741777.7574   21741774.3084
       269.0634
  12694882.48049   9883632.81848  22597696.5854   22597693.2574
     -3818.7344
   -491788.46249   -380736.48848  23265482.8044   23265477.7614
     -1371.6874
   1561348.55549   1213603.13748  21643889.2334   21643885.6754
      -832.2814
  -6858531.11849  -5343233.39147  23154149.5774   23154145.5774
      1269.1884
    547017.92449    423707.15747  24498447.4834   24498444.5734
     -1263.9694
 04  9 17 22  8 30.0030000  0  7G 3G 8G13G19G27G28G10
  11107517.78849   8648719.82546  24910500.8354   24910500.5224
     -3639.1874
  -4108086.74449  -3198573.48848  21741015.0074   21741011.8274
       264.9694
  12752214.19149   9928306.85348  22608606.4834   22608603.3824
     -3825.6414
   -471139.37249   -364646.29047  23269412.1404   23269407.2654
     -1381.6254
   1573861.30049   1223353.32048  21646270.3664   21646266.8944
      -836.2194
  -6877529.73549  -5358037.49147  23150534.1944   23150530.5624
      1263.7814
    566048.64249    438536.23747  24502068.4054   24502065.5814
     -1273.6414
 04  9 17 22  8 45.0030000  0  7G 3G 8G13G19G27G28G10
  11162152.99049   8691292.70446  24920898.0384   24920896.2064
     -3645.6254
  -4112034.97149  -3201650.03148  21740264.0074   21740260.6084
       261.3444
  12809644.23149   9973057.50848  22619534.8974   22619532.0774
     -3831.8914
   -450345.29549   -348443.11748  23273369.1554   23273364.0624
     -1391.0474
   1586428.81849   1233146.19648  21648662.0304   21648658.1674
      -839.5474
  -6896452.41449  -5372782.39747  23146933.0624   23146929.8274
      1259.0314
    585219.06649    453474.23147  24505716.1634   24505714.1754
     -1282.5784
 04  9 17 22  9  0.0030000  0  7G 3G 8G13G19G27G28G10
  11216885.96349   8733941.73247  24931313.4994   24931311.6474
     -3652.0164
  -4115930.04249  -3204685.13448  21739522.9764   21739519.5974
       257.9224
  12867167.66849  10017880.94348  22630481.2884   22630478.6324
     -3837.8594
   -429410.93149   -332130.63748  23277352.8584   23277347.8514
     -1400.2034
   1599046.57049   1242978.20948  21651062.6084   21651058.9794
      -842.7194
  -6915303.65349  -5387471.67347  23143346.4214   23143342.7614
      1254.5784
    604524.48749    468517.39547  24509390.0544   24509387.7764
     -1291.4224
 04  9 17 22  9 15.0030000  0  7G 3G 8G13G19G27G28G10
  11271717.33649   8776667.45247  24941748.1874   24941746.4334
     -3658.6094
  -4119770.84049  -3207677.97748  21738791.5384   21738788.6044
       254.3134
  12924785.19449  10062777.69648  22641445.9294   22641442.0814
     -3844.2664
   -408335.53349   -315708.24948  23281363.4914   23281358.5304
     -1409.6874
   1611715.63749   1252850.21348  21653474.2804   21653470.7144
      -846.2664
  -6934082.52849  -5402104.53247  23139772.8744   23139768.8274
      1249.5634
    623965.60349    483666.32947  24513089.2804   24513087.2534
     -1300.5164
 04  9 17 22  9 30.0030000  0  7G 3G 8G13G19G27G28G10
  11326647.53949   8819470.18947  24952200.9684   24952199.0114
     -3665.3594
  -4123556.46949  -3210627.81648  21738071.5074   21738067.7654
       250.4064
  12982497.34749  10107748.19148  22652427.7964   22652424.5974
     -3850.7504
   -387118.35049   -299175.38548  23285400.9684   23285396.0224
     -1419.2664
   1624436.67849   1262762.70348  21655894.3354   21655890.8584
      -849.7974
  -6952788.21649  -5416680.37347  23136212.9834   23136210.1874
      1244.6564
    643543.06049    498921.47647  24516815.3974   24516812.4334
     -1309.8284
 04  9 17 22  9 45.0030000  0  7G 3G 8G13G19G27G28G10
  11381674.64849   8862348.45247  24962671.7264   24962670.7374
     -3671.1254
  -4127288.41249  -3213535.81648  21737361.1554   21737358.5114
       247.5474
  13040302.29949  10152790.99148  22663428.0074   22663424.4174
     -3856.2504
   -365760.90949   -282533.21948  23289465.3194   23289460.4094
     -1427.9844
   1637208.29349   1272714.61348  21658324.6874   21658321.1084
      -852.6094
  -6971422.35449  -5431200.46347  23132666.9524   23132663.4134
      1240.5004
    663255.09949    514281.49047  24520566.3974   24520563.2534
     -1318.0624
 04  9 17 22 10  0.0030000  0  7G 3G 8G13G19G27G28G10
  11436796.03049   8905300.12147  24973161.3584   24973159.9794
     -3677.8594
  -4130969.11749  -3216403.89648  21736661.0224   21736657.9094
       243.6564
  13098197.50649  10197904.11448  22674444.8044   22674441.4444
     -3862.7344
   -344265.58249   -265783.61748  23293555.4444   23293550.5384
     -1437.5314
   1650028.14849   1282704.10948  21660764.4764   21660761.0624
      -856.2194
  -6989987.16549  -5445666.52247  23129134.4294   23129130.7764
      1235.3444
    683099.19149    529744.40947  24524342.6794   24524340.4764
     -1327.4064
 04  9 17 22 10 15.0030000  0  7G 3G 8G13G19G27G28G10
  11492013.66149   8948326.82447  24983669.1874   24983667.6044
     -3684.5314
  -4134596.01049  -3219230.04948  21735970.8354   21735967.2964
       239.9064
  13156185.11649  10243089.24648  22685479.3744   22685476.6984
     -3869.0474
   -322630.08649   -248924.80548  23297672.2724   23297667.5694
     -1447.1724
   1662898.76949   1292733.15848  21663213.8274   21663209.8084
      -859.8914
  -7008480.09349  -5460076.58648  23125615.5624   23125611.5774
      1230.3914
    703077.67749    545312.04347  24528144.5074   24528142.2494
     -1336.5004
 04  9 17 22 10 30.0030000  0  7G 3G 8G13G19G27G28G10
  11547327.54849   8991428.52947  24994194.7414   24994193.3314
     -3690.6724
  -4138168.94849  -3222014.14748  21735290.7104   21735287.4254
       236.5474
  13214264.76749  10288346.08948  22696531.5384   22696528.3584
     -3874.8594
   -300854.23349   -231956.60748  23301816.5544   23301811.5074
     -1456.2664
   1675820.36749   1302801.93148  21665672.7024   21665668.9254
      -862.9844
  -7026901.00749  -5474430.51847  23122109.6404   23122106.3744
      1225.8134
    723190.63149    560984.47647  24531971.8744   24531969.2024
     -1345.2034
 04  9 17 22 10 45.0030000  0  7G 3G 8G13G19G27G28G10
  11602736.34349   9034604.21747  25004738.3664   25004737.5114
     -3696.9064
  -4141688.75249  -3224756.84848  21734620.8124   21734617.7694
       232.9694
  13272435.45949  10333673.88248  22707600.9294   22707598.1474
     -3880.9694
   -278939.09049   -214879.86248  23305986.7964   23305981.8084
     -1465.5624
   1688792.05949   1312909.74348  21668140.8744   21668137.2654
      -866.3594
  -7045250.82849  -5488729.05847  23118617.9054   23118614.1874
      1220.9844
    743436.81649    576760.72347  24535824.2964   24535822.0154
     -1354.1564
 04  9 17 22 11  0.0030000  0  7G 3G 8G13G19G27G28G10
  11658239.02949   9077853.01547  25015301.0384   25015299.1714
     -3703.1874
  -4145155.95449  -3227458.56048  21733961.2494   21733957.9334
       229.4064
  13330696.26049  10379071.88348  22718687.8434   22718684.5694
     -3887.0004
   -256885.34849   -197695.12948  23310183.6164   23310178.1284
     -1474.7664
   1701813.32649   1323056.16948  21670619.1164   21670614.8624
      -869.6724
  -7063530.24849  -5502972.74747  23115139.5464   23115135.6554
      1216.4224
    763815.44849    592640.15547  24539702.3974   24539699.7764
     -1362.9064
 04  9 17 22 11 15.0030000  0  7G 3G 8G13G19G27G28G10
  11713837.18849   9121176.25047  25025880.6244   25025879.4374
     -3709.5784
  -4148568.48749  -3230117.67248  21733312.0074   21733308.1404
       225.7974
  13389048.95249  10424541.48448  22729791.7334   22729788.7264
     -3893.0624
   -234691.10249   -180400.90848  23314406.5224   23314401.9254
     -1484.1094
   1714886.17949   1333242.82148  21673106.4444   21673103.6084
      -873.0784
  -7081737.22049  -5517159.96947  23111674.7724   23111671.5694
      1211.5944
    784328.47449    608624.32447  24543606.1164   24543603.4954
     -1371.8914
 04  9 17 22 11 30.0030000  0  7G 3G 8G13G19G27G28G10
  11769532.53749   9164575.20447  25036478.6944   25036478.1124
     -3716.3914
  -4151924.40949  -3232732.66648  21732673.1084   21732669.7334
       221.7504
  13447495.19249  10470083.98648  22740914.1554   22740911.1714
     -3899.5944
   -212354.30449   -162995.61348  23318657.5384   23318652.3944
     -1494.0004
   1728012.57749   1343471.17248  21675604.2494   21675600.7294
      -876.9374
  -7099869.67449  -5531289.12647  23108223.9834   23108220.3474
      1206.2974
    804977.66349    624714.58947  24547535.2884   24547532.6164
     -1381.2194
 04  9 17 22 11 45.0030000  0  7G 3G 8G13G19G27G28G10
  11825322.62849   9208047.97147  25047094.7654   25047094.5464
     -3722.5314
  -4155225.75249  -3235305.14848  21732044.8354   21732041.6514
       218.1414
  13506032.65749  10515697.56648  22752053.5304   22752050.1284
     -3905.6414
   -189877.11449   -145480.91948  23322934.5934   23322929.6674
     -1503.2194
   1741190.64349   1353739.78848  21678112.1714   21678108.8044
      -880.2814
  -7117929.57349  -5545361.75847  23104787.1634   23104783.5424
      1201.4844
    825760.86749    640909.26447  24551490.4214   24551487.7494
     -1390.0624
 04  9 17 22 12  0.0030000  0  7G 3G 8G13G19G27G28G10
  11881208.09349   9251595.06246  25057729.0694   25057729.4684
     -3728.7664
  -4158471.47449  -3237834.27448  21731427.2184   21731423.9014
       214.7194
  13564661.91949  10561382.67848  22763210.4914   22763207.1984
     -3911.5474
   -167258.82749   -127856.27148  23327238.9604   23327233.7654
     -1512.4534
   1754421.28849   1364049.38248  21680629.6474   21680626.3664
      -883.6564
  -7135916.13849  -5559377.24947  23101364.7654   23101361.2574
      1196.7974
    846678.66449    657208.83547  24555470.3194   24555468.2804
     -1398.8594
 04  9 17 22 12 15.0030000  0  7G 3G 8G13G19G27G28G10
  11937186.64949   9295214.67146  25068382.0854   25068381.2414
     -3735.2664
  -4161663.47349  -3240321.55648  21730819.9914   21730816.4134
       210.8444
  13623380.76549  10607137.60048  22774384.0694   22774381.2884
     -3917.6874
   -144501.41049   -110123.21848  23331569.4994   23331564.3944
     -1521.9694
   1767702.58749   1374398.43948  21683157.0774   21683153.4564
      -887.2344
  -7153831.24249  -5573337.02947  23097955.5224   23097951.9874
      1191.7664
    867728.97249    673611.67247  24559476.3434   24559474.0934
     -1407.9224
 04  9 17 22 12 30.0030000  0  7G 3G 8G13G19G27G28G10
  11993261.68949   9338909.47046  25079053.2414   25079052.1944
     -3741.5004
  -4164797.89449  -3242763.95548  21730223.7414   21730220.4054
       207.0784
  13682192.82349  10652965.16148  22785575.6404   22785572.3864
     -3923.8754
   -121601.15649    -92278.85848  23335927.2574   23335922.6554
     -1531.4374
   1781038.45749   1384790.02348  21685695.0384   21685691.5504
      -890.8444
  -7171671.00349  -5587238.14148  23094560.7104   23094556.9254
      1186.8134
    888915.56649    690120.69747  24563508.6874   24563505.7374
     -1416.9224
 04  9 17 22 12 45.0030000  0  7G 3G 8G13G19G27G28G10
  12049428.23749   9382675.62546  25089741.2494   25089740.3084
     -3747.5474
  -4167879.10349  -3245164.89148  21729637.0544   21729633.5384
       203.7504
  13741093.11049  10698861.44948  22796784.1404   22796780.6474
     -3929.5944
    -98562.73949    -74326.84448  23340310.9054   23340305.7614
     -1540.4534
   1794424.34249   1395220.57648  21688242.2804   21688238.7374
      -894.0004
  -7189439.99749  -5601084.07847  23091179.6404   23091175.6284
      1182.3134
    910233.60949    706732.12947  24567564.7104   24567561.9254
     -1425.5004
 04  9 17 22 13  0.0030000  0  7G 3G 8G13G19G27G28G10
  12105687.17749   9426513.71546  25100446.7334   25100445.8864
     -3753.6564
  -4170906.16049  -3247523.63348  21729061.0464   21729057.8474
       200.0004
  13800082.65149  10744827.31448  22808009.3974   22808006.4374
     -3935.5944
    -75385.07449    -56266.31648  23344721.9994   23344716.6834
     -1549.7344
   1807861.47449   1405691.06148  21690799.1714   21690795.7414
      -897.4224
  -7207137.05849  -5614873.98147  23087811.7494   23087807.9404
      1177.4224
    931684.07749    723446.77647  24571646.2574   24571644.4524
     -1434.3284
 04  9 17 22 13 15.0030000  0  7G 3G 8G13G19G27G28G10
  12162036.00849   9470421.92246  25111169.7264   25111168.4404
     -3759.7194
  -4173880.94549  -3249841.64448  21728495.2494   21728491.8274
       196.4534
  13859158.93949  10790860.76047  22819251.0074   22819248.3584
     -3941.4534
    -52070.22649    -38098.89948  23349158.4914   23349153.7964
     -1559.0474
   1821347.83949   1416199.91548  21693365.3434   21693361.7494
      -900.8124
  -7224764.21849  -5628609.40047  23084457.5154   23084454.0384
      1172.6094
    953264.68849    740262.82547  24575753.3124   24575751.2294
     -1443.0784
 04  9 17 22 13 30.0030000  0  7G 3G 8G13G19G27G28G10
  12218478.60949   9514403.13747  25121910.0154   25121909.6794
     -3766.2034
  -4176799.02049  -3252115.46648  21727939.8354   21727935.9444
       192.4384
  13918326.08949  10836965.01148  22830510.2024   22830507.0974
     -3947.6874
    -28614.06749    -19821.35448  23353622.0384   23353617.0774
     -1568.7344
   1834887.67249   1426750.43048  21695942.2724   21695938.6754
      -904.7504
  -7242317.23549  -5642287.05748  23081116.9444   23081113.6834
      1167.5004
    974979.55649    757183.49747  24579884.8584   24579883.2924
     -1452.3444
 04  9 17 22 13 45.0030000  0  6G 8G13G19G27G28G10
  -4179662.57149  -3254346.80348  21727394.7494   21727391.6444
       188.9844
  13977581.81349  10883138.27648  22841786.6324   22841783.2724
     -3953.3914
     -5018.59049     -1435.26648  23358112.3124   23358107.1944
     -1577.8124
   1848479.30549   1437341.30748  21698528.3744   21698525.0774
      -908.0004
  -7259798.02349  -5655908.42747  23077790.3744   23077786.6904
      1162.8594
    996826.66749    774207.19447  24584042.8974   24584040.5264
     -1460.9374
 04  9 17 22 14  0.0030000  0  6G 8G13G19G27G28G10
  -4182465.97349  -3256531.26748  21726861.4604   21726858.0464
       185.0634
  14036930.99649  10929384.37448  22853079.8974   22853076.5304
     -3959.5624
     18721.28449     17063.34148  23362629.9134   23362625.0384
     -1587.2664
   1862127.76949   1447976.46648  21701126.1244   21701122.3974
      -911.5944
  -7277201.35449  -5669469.44348  23074478.8194   23074475.3084
      1157.8594
   1018810.90949    791337.74847  24588226.1944   24588223.9764
     -1470.0474
 04  9 17 22 14 15.0030000  0  6G 8G13G19G27G28G10
  -4185213.40049  -3258672.12148  21726338.5934   21726335.2224
       181.4064
  14096369.45349  10975700.02148  22864391.1554   22864388.0694
     -3965.4534
     42601.55249     35671.35048  23367173.9134   23367169.2264
     -1596.5624
   1875829.27849   1458652.96948  21703733.0624   21703729.2264
      -915.0784
  -7294531.12049  -5682973.14047  23071181.3974   23071177.2454
      1152.9694
   1040928.22249    808572.01147  24592434.8514   24592432.2964
     -1478.8124
 04  9 17 22 14 30.0030000  0  6G 8G13G19G27G28G10
  -4187905.93149  -3260770.19648  21725826.3514   21725822.8234
       177.7504
  14155895.54549  11022083.97148  22875718.5774   22875715.4054
     -3971.2034
     66620.87349     54387.71548  23371744.6164   23371739.6084
     -1605.8754
   1889582.76849   1469369.96448  21706350.3904   21706346.8824
      -918.5624
  -7311788.48349  -5696420.42047  23067897.2804   23067893.5264
      1148.1094
   1063177.17549    825908.82947  24596668.2574   24596666.6554
     -1487.6094
 04  9 17 22 14 45.0030000  0  6G 8G13G19G27G28G10
  -4190541.29549  -3262823.71348  21725324.5694   21725321.2804
       173.9064
  14215511.24249  11068537.73548  22887063.1474   22887060.1204
     -3977.2974
     90781.28049     73214.01948  23376342.0694   23376337.0424
     -1615.2664
   1903390.30649   1480129.08448  21708977.8744   21708974.2804
      -922.2344
  -7328971.43649  -5709809.71148  23064627.1404   23064624.0154
      1143.1724
   1085559.69149    843349.75247  24600928.4604   24600925.8234
     -1496.5314
 04  9 17 22 15  0.0030000  0  6G 8G13G19G27G28G10
  -4193122.06249  -3264834.70448  21724833.7414   21724830.1014
       170.1724
  14275213.78149  11115059.17048  22898424.4214   22898421.2964
     -3983.1564
    115080.13749     92148.19847  23380965.8824   23380961.0304
     -1624.6414
   1917249.38649   1490928.36448  21711615.0154   21711611.4374
      -925.7194
  -7346082.46649  -5723142.96547  23061371.6014   23061367.4914
      1138.2194
   1108072.99749    860892.55847  24605212.3974   24605210.3084
     -1505.3124
 04  9 17 22 15 15.0040000  0  6G 8G13G19G27G28G10
  -4195644.55449  -3266800.27048  21724353.4884   21724349.9924
       166.3444
  14335010.56049  11161654.03748  22909802.9804   22909800.1444
     -3989.0314
    139522.75549    111194.41648  23385617.1054   23385612.2584
     -1634.0164
   1931164.73649   1501771.49048  21714263.0354   21714259.6644
      -929.3754
  -7363118.97449  -5736418.14047  23058129.6524   23058126.0044
      1133.3134
   1130722.19449    878541.27647  24609522.6604   24609520.7074
     -1514.1874
 04  9 17 22 15 30.0040000  0  6G 8G13G19G27G28G10
  -4198111.29949  -3268722.40448  21723884.3484   21723880.7774
       162.5634
  14394890.48649  11208313.68648  22921197.7774   22921195.0514
     -3994.9374
    164102.83249    130347.71648  23390294.8794   23390289.9064
     -1643.3284
   1945131.67049   1512654.81048  21716920.7774   21716917.7194
      -932.8594
  -7380081.55149  -5749635.71348  23054901.3714   23054897.8874
      1128.4224
   1153501.13449    896291.07347  24613856.7624   24613854.6954
     -1523.0004
 04  9 17 22 15 45.0040000  0  6G 8G13G19G27G28G10
  -4200520.97049  -3270600.06548  21723425.3874   21723422.5704
       158.9384
  14454858.66949  11255042.12248  22932609.1444   22932606.4414
     -4000.6724
    188823.32049    149610.45748  23394998.8094   23394994.0354
     -1652.5314
   1959152.52149   1523580.14948  21719588.9574   21719585.6254
      -936.3444
  -7396969.82149  -5762795.38048  23051688.0514   23051683.8404
      1123.5474
   1176412.61049    914144.17147  24618216.9494   24618215.2034
     -1531.5944
 04  9 17 22 16  0.0040000  0  6G 8G13G19G27G28G10
  -4202874.64449  -3272434.10148  21722977.6684   21722974.4454
       154.7664
  14514913.39549  11301837.98648  22944037.5354   22944034.1094
     -4006.8444
    213682.99949    168981.63548  23399729.5194   23399724.4884
     -1662.2814
   1973226.26049   1534546.69748  21722267.0194   21722263.5904
      -940.3284
  -7413785.07849  -5775898.17048  23048487.5124   23048483.6414
      1118.2974
   1199455.37249    932099.54247  24622601.9964   24622599.4694
     -1540.9064
 04  9 17 22 16 15.0040000  0  6G 8G13G19G27G28G10
  -4205169.13849  -3274222.01948  21722541.1764   21722537.8014
       150.8594
  14575057.89149  11348703.81047  22955482.7854   22955479.6214
     -4012.7034
    238685.14949    188463.82948  23404487.3484   23404482.3634
     -1671.6254
   1987356.46949   1545557.24848  21724955.9414   21724952.5664
      -943.9694
  -7430523.80249  -5788941.30548  23045302.5434   23045299.1094
      1113.2504
   1222632.55249    950159.64147  24627012.7154   24627010.7694
     -1549.8124
 04  9 17 22 16 30.0040000  0  6G 8G13G19G27G28G10
  -4207407.84749  -3275966.45948  21722115.1214   21722111.7854
       147.4064
  14635288.28949  11395636.56048  22966944.0744   22966940.8014
     -4018.1724
    263826.04049    208054.16048  23409271.5434   23409266.8444
     -1680.6254
   2001539.42649   1556608.89348  21727654.6054   21727651.5824
      -947.2664
  -7447189.66349  -5801927.66448  23042131.4024   23042127.6134
      1108.6724
   1245940.26249    968321.48147  24631447.8404   24631445.9884
     -1558.2504
 04  9 17 22 16 45.0040000  0  6G 8G13G19G27G28G10
  -4209592.87049  -3277669.06948  21721699.3554   21721696.1214
       143.8284
  14695602.21249  11442634.39147  22978421.3714   22978418.0394
     -4023.7664
    289103.52549    227750.89648  23414081.7624   23414076.4454
     -1689.8124
   2015773.00149   1567699.99648  21730363.6604   21730360.2194
      -950.6564
  -7463784.75449  -5814858.89748  23038973.2074   23038969.5164
      1103.9384
   1269376.28049    986583.32447  24635907.1844   24635905.3324
     -1566.7664
 04  9 17 22 17  0.0040000  0  6G 8G13G19G27G28G10
  -4211720.50149  -3279326.96248  21721294.5744   21721291.0944
       140.0164
  14756002.88049  11489699.83447  22989915.2624   22989912.3674
     -4029.4844
    314520.90549    247556.65548  23418918.3874   23418912.9654
     -1699.0784
   2030060.91849   1578833.43248  21733082.0824   21733078.9844
      -954.2504
  -7480305.46149  -5827732.15248  23035829.4184   23035825.8674
      1099.0314
   1292943.94349   1004947.72647  24640392.5044   24640389.7814
     -1575.5474
 04  9 17 22 17 15.0040000  0  6G 8G13G19G27G28G10
  -4213790.94949  -3280940.29848  21720900.1844   21720897.1134
       136.2504
  14816489.76849  11536832.43347  23001425.7384   23001422.3554
     -4035.2034
    340077.78549    267471.12048  23423781.5434   23423776.9064
     -1708.3754
   2044402.87049   1590008.98348  21735811.2934   21735807.8594
      -957.8444
  -7496752.13749  -5840547.72548  23032700.0354   23032696.0704
      1094.1254
   1316642.53449   1023414.14147  24644902.0664   24644900.2854
     -1584.1564
 04  9 17 22 17 30.0040000  0  6G 8G13G19G27G28G10
  -4215807.42149  -3282511.57548  21720516.9104   21720513.4844
       132.5944
  14877059.35649  11584029.48948  23012951.6994   23012948.6134
     -4040.7504
    365771.00049    287491.80648  23428670.8244   23428665.8364
     -1717.4534
   2058795.97149   1601224.38148  21738550.4104   21738547.2234
      -961.2974
  -7513127.83149  -5853307.99248  23029583.4024   23029580.1994
      1089.3444
   1340468.91149   1041980.12947  24649436.1604   24649433.5234
     -1592.6414
 04  9 17 22 17 45.0040000  0  6G 8G13G19G27G28G10
  -4217768.56349  -3284039.73748  21720143.4024   21720140.1914
       129.0784
  14937712.42849  11631291.60048  23024493.9804   23024490.6024
     -4046.1094
    391601.52349    307619.49048  23433585.8714   23433581.4804
     -1726.4224
   2073241.16649   1612480.37548  21741299.2464   21741295.7304
      -964.5944
  -7529431.42249  -5866012.07548  23026480.9964   23026477.1484
      1084.6414
   1364424.02749   1060646.43247  24653994.1524   24653992.5434
     -1601.1414
 04  9 17 22 18  0.0040000  0  6G 8G13G19G27G28G10
  -4219673.52349  -3285524.10548  21719780.7774   21719778.0594
       125.2344
  14998449.65849  11678619.28848  23036051.7384   23036049.0944
     -4051.8914
    417570.04049    327854.69848  23438527.8794   23438523.1024
     -1735.7974
   2087739.46449   1623777.75748  21744058.0594   21744054.6874
      -968.2504
  -7545662.09449  -5878659.32048  23023392.3554   23023388.8284
      1079.6884
   1388508.42549   1079413.50347  24658577.8874   24658575.5984
     -1609.8754
 04  9 17 22 18 15.0040000  0  6G 8G13G19G27G28G10
  -4221523.79949  -3286965.88348  21719428.8874   21719425.6134
       121.8914
  15059268.94849  11726010.90948  23047625.4654   23047621.9884
     -4057.0164
    443674.73749    348196.02348  23443495.7624   23443490.8554
     -1744.5164
   2102289.20149   1635115.20348  21746826.9494   21746823.2274
      -971.3754
  -7561821.57749  -5891251.11648  23020317.0274   23020313.6444
      1075.2664
   1412720.19949   1098279.79447  24663185.1294   24663182.3944
     -1618.0314
 04  9 17 22 18 30.0040000  0  6G 8G13G19G27G28G10
  -4223320.45649  -3288365.87148  21719087.0514   21719083.9774
       118.1254
  15120168.94849  11773465.43748  23059214.2774   23059210.8324
     -4062.5784
    469914.59049    368642.66848  23448488.8944   23448483.7584
     -1753.7034
   2116889.34649   1646491.94648  21749605.6294   21749601.8834
      -974.9534
  -7577910.93449  -5903788.25548  23017255.2624   23017252.0124
      1070.4384
   1437058.19049   1117244.46347  24667816.2934   24667814.1954
     -1626.6564
 04  9 17 22 18 45.0040000  0  6G 8G13G19G27G28G10
  -4225060.04149  -3289721.39448  21718755.9804   21718752.4804
       114.3284
  15181152.95749  11820985.41048  23070818.7464   23070815.9304
     -4068.1414
    496292.96249    389197.23748  23453508.2774   23453503.5904
     -1762.9064
   2131543.51649   1657910.77948  21752393.7694   21752390.1604
      -978.5474
  -7593926.51949  -5916267.90948  23014207.7074   23014204.0744
      1065.4384
   1461525.70149   1136310.03147  24672472.0824   24672470.1874
     -1635.2504
 04  9 17 22 19  0.0040000  0  6G 8G13G19G27G28G10
  -4226744.13649  -3291033.67448  21718435.3094   21718432.1414
       110.2034
  15242219.23249  11868569.49448  23082439.4264   23082436.3834
     -4074.0624
    522808.08949    409858.37648  23458553.7384   23458548.9454
     -1772.4694
   2146250.22649   1669370.54748  21755192.6444   21755188.6994
      -982.3914
  -7609869.92649  -5928691.33348  23011173.7934   23011170.2504
      1060.2504
   1486120.88949   1155475.07747  24677152.5664   24677150.7814
     -1644.1724
 04  9 17 22 19 15.0040000  0  6G 8G13G19G27G28G10
  -4228371.79249  -3292301.97048  21718125.3094   21718122.3204
       106.4844
  15303368.16449  11916217.97948  23094075.6214   23094073.1294
     -4079.4694
    549460.67649    430626.61948  23463625.7934   23463620.8124
     -1781.6094
   2161010.32149   1680871.91748  21758001.3484   21757997.9804
      -985.9844
  -7625740.45149  -5941057.95448  23008153.8164   23008150.3054
      1055.4064
   1510844.26049   1174740.02747  24681857.4184   24681854.7194
     -1652.7034
 04  9 17 22 19 30.0040000  0  6G 8G13G19G27G28G10
  -4229941.94249  -3293525.46448  21717826.9024   21717824.0234
       102.7034
  15364600.20549  11963931.23447  23105728.0744   23105724.8164
     -4084.9694
    576251.51549    451502.60648  23468724.1764   23468718.7464
     -1790.6414
   2175824.65249   1692415.55248  21760820.0594   21760816.8754
      -989.4534
  -7641537.17849  -5953367.07148  23005147.6914   23005144.2734
      1050.5944
   1535696.49949   1194105.38547  24686586.1524   24686584.9534
     -1661.1414
 04  9 17 22 19 45.0040000  0  6G 8G13G19G27G28G10
  -4231455.62849  -3294704.96148  21717538.9024   21717535.6954
        99.2194
  15425914.21649  12011708.35747  23117395.6764   23117392.4884
     -4090.1254
    603179.57149    472485.50048  23473848.3014   23473843.2464
     -1799.5624
   2190692.53249   1704000.91148  21763649.5664   21763645.8124
      -992.8444
  -7657260.96149  -5965619.35348  23002155.7304   23002152.1334
      1046.0004
   1560676.65449   1213570.42747  24691340.6294   24691337.5084
     -1669.4374
 04  9 17 22 20  0.0040000  0  6G 8G13G19G27G28G10
  -4232913.87449  -3295841.25348  21717261.2464   21717257.8834
        95.3444
  15487308.79849  12059548.26147  23129078.7624   23129075.3524
     -4095.7034
    630243.74549    493574.46048  23478998.3714   23478993.6374
     -1808.8124
   2205612.95549   1715627.21248  21766488.4964   21766485.0124
      -996.4694
  -7672912.78749  -5977815.56848  22999177.0904   22999173.5084
      1041.0004
   1585783.33549   1233134.05247  24696117.8094   24696115.6134
     -1678.0314
 04  9 17 22 20 15.0040000  0  6G 8G13G19G27G28G10
  -4234315.25349  -3296933.23548  21716994.5594   21716991.6914
        91.6094
  15548784.87949  12107451.68547  23140777.1054   23140774.0784
     -4101.0164
    657444.97349    514770.21448  23484174.3554   23484169.8444
     -1817.9064
   2220586.98349   1727295.28948  21769338.3014   21769335.1414
     -1000.0004
  -7688491.58749  -5989954.86448  22996212.3404   22996209.1724
      1036.2194
   1611017.50849   1252797.04347  24700919.9264   24700917.9964
     -1686.4694
 04  9 17 22 20 30.0040000  0  6G 8G13G19G27G28G10
  -4235658.65449  -3297980.04248  21716738.9734   21716735.8324
        87.9384
  15610343.15049  12155419.13247  23152491.3944   23152488.3164
     -4106.3754
    684784.16749    536073.47748  23489376.4654   23489372.3634
     -1826.8754
   2235615.81549   1739006.06748  21772198.5744   21772194.7074
     -1003.4534
  -7703996.38649  -6002036.50948  22993262.1994   22993258.5164
      1031.4694
   1636380.01849   1272560.00747  24705746.7544   24705743.9344
     -1694.7814
 04  9 17 22 20 45.0040000  0  6G 8G13G19G27G28G10
  -4236945.53649  -3298982.80548  21716494.0514   21716490.6724
        84.1564
  15671981.83549  12203449.24447  23164220.4264   23164218.0354
     -4111.6874
    712259.71449    557482.98248  23494605.2774   23494600.2624
     -1836.0474
   2250697.99049   1750758.40848  21775068.5194   21775064.8484
     -1007.0784
  -7719428.59749  -6014061.58848  22990325.3014   22990321.6134
      1026.5634
   1661869.10749   1292421.60747  24710597.1994   24710594.4264
     -1703.2664
 04  9 17 22 21  0.0040000  0  6G 8G13G19G27G28G10
  -4238176.26349  -3299941.81348  21716260.1524   21716256.8324
        79.9064
  15733700.44749  12251541.62247  23175965.4184   23175962.5514
     -4117.3444
    739871.10449    578998.34547  23499859.6604   23499854.5864
     -1845.5314
   2265833.27849   1762552.14048  21777948.3634   21777944.9304
     -1011.0314
  -7734788.50149  -6026030.34248  22987402.5744   22987398.8284
      1021.3594
   1687484.15349   1312381.39647  24715470.5904   24715468.2584
     -1712.0624
 04  9 17 22 21 15.0040000  0  6G 8G13G19G27G28G10
  -4239348.41949  -3300855.17648  21716037.0274   21716033.5744
        75.9844
  15795500.98949  12299697.87847  23187725.6054   23187722.3594
     -4122.9064
    767620.65949    600621.36247  23505140.3794   23505135.1874
     -1854.6724
   2281024.18449   1774389.20648  21780839.1684   21780835.3204
     -1014.6874
  -7750073.74849  -6037940.90648  22984494.0664   22984490.0624
      1016.3594
   1713227.49249   1332441.10747  24720369.2934   24720367.7034
     -1720.6254
 04  9 17 22 21 30.0040000  0  6G 8G13G19G27G28G10
  -4240463.33949  -3301723.94548  21715824.8324   21715821.8914
        72.4224
  15857381.62049  12347916.50647  23199501.1054   23199498.6214
     -4127.9534
    795506.79049    622350.80047  23510446.6214   23510441.4614
     -1863.5944
   2296269.14149   1786268.38748  21783740.0434   21783736.9224
     -1018.0624
  -7765285.84949  -6049794.46848  22981599.5664   22981595.2624
      1011.7344
   1739097.31449   1352599.40047  24725292.7624   24725291.0474
     -1728.7974
 04  9 17 22 21 45.0040000  0  6G 8G13G19G27G28G10
  -4241524.27849  -3302550.64748  21715623.0904   21715619.7814
        69.0944
  15919338.94549  12396194.91547  23211291.1374   23211288.1374
     -4132.8444
    823526.11049    644184.02548  23515778.5514   23515774.2304
     -1872.2504
   2311564.93449   1798187.19448  21786650.5904   21786647.2424
     -1021.2344
  -7780428.05749  -6061593.57048  22978717.5194   22978714.1174
      1007.3284
   1765090.12749   1372853.50347  24730238.8014   24730236.7934
     -1736.8124
 04  9 17 22 22  0.0040000  0  6G 8G13G19G27G28G10
  -4242529.61849  -3303334.02048  21715431.9024   21715428.3984
        65.3594
  15981373.83149  12444533.74847  23223096.4884   23223093.0624
     -4138.1724
    851679.70749    666121.89148  23521136.3404   23521131.8594
     -1881.2344
   2326913.06449   1810146.77748  21789571.4964   21789568.2424
     -1024.7664
  -7795499.00349  -6073337.14548  22975849.5664   22975845.4654
      1002.4534
   1791207.04949   1393204.34147  24735209.2464   24735206.7934
     -1745.0624
 04  9 17 22 22 15.0040000  0  6G 8G13G19G27G28G10
  -4243478.71949  -3304073.57548  21715251.0354   21715247.9374
        61.4694
  16043486.44049  12492933.15247  23234915.4184   23234912.6764
     -4143.3444
    879968.04649    688164.73347  23526519.5904   23526514.4344
     -1890.3124
   2342314.13049   1822147.60648  21792502.3014   21792498.5394
     -1028.4224
  -7810498.16249  -6085024.78548  22972995.6844   22972991.8524
       997.6414
   1817448.51049   1413652.22247  24740202.5594   24740200.6174
     -1753.4374
 04  9 17 22 22 30.0040000  0  6G 8G13G19G27G28G10
  -4244371.67549  -3304769.38648  21715080.7624   21715077.8834
        57.5474
  16105676.87549  12541393.19847  23246750.3794   23246747.5274
     -4148.6874
    908391.27549    710312.69247  23531928.2774   23531923.4774
     -1899.3594
   2357768.41849   1834189.89948  21795443.0984   21795439.7274
     -1032.1254
  -7825425.28349  -6096656.29948  22970154.9804   22970151.3404
       992.6414
   1843814.47749   1434197.11447  24745219.7694   24745218.4144
     -1761.8914
 04  9 17 22 22 45.0040000  0  6G 8G13G19G27G28G10
  -4245205.32349  -3305418.98348  21714922.3164   21714918.9574
        54.2194
  16167947.57349  12589915.79347  23258600.2154   23258597.1914
     -4153.4534
    936952.09449    732567.87748  23537363.2074   23537358.4734
     -1908.0474
   2373278.79649   1846275.91248  21798394.5194   21798390.9774
     -1035.2664
  -7840277.53049  -6108229.44648  22967328.7624   22967324.8914
       988.2504
   1870307.50049   1454841.01647  24750261.0904   24750259.1724
     -1769.8284
 04  9 17 22 23  0.0040000  0  6G 8G13G19G27G28G10
  -4245983.92749  -3306025.68448  21714774.4024   21714771.1524
        49.9384
  16230293.98549  12638497.37847  23270463.9414   23270460.9844
     -4159.1094
    965646.01349    754926.74447  23542823.8484   23542818.6414
     -1917.4844
   2388841.14349   1858402.41048  21801355.8714   21801352.4024
     -1039.3594
  -7855059.24849  -6119747.66148  22964515.5274   22964512.1644
       982.8914
   1896923.03149   1475580.36747  24755325.5984   24755323.2154
     -1778.5624
 04  9 17 22 23 15.0040000  0  6G 8G13G19G27G28G10
  -4246704.15849  -3306586.90748  21714636.9654   21714634.1094
        46.0944
  16292718.99549  12687140.21447  23282343.2544   23282340.2974
     -4164.3284
    994476.17849    777391.80447  23548309.6054   23548304.6994
     -1926.6094
   2404458.60949   1870571.86948  21804327.6764   21804324.4964
     -1043.0164
  -7869767.14149  -6131208.34248  22961716.9264   22961713.4804
       978.0784
   1923664.16249   1496417.59347  24760414.8554   24760412.5474
     -1786.9534
 04  9 17 22 23 30.0040000  0  6G 8G13G19G27G28G10
  -4247367.36349  -3307103.67848  21714511.0664   21714507.7114
        42.2974
  16355221.20149  12735843.20547  23294236.8484   23294234.3094
     -4169.3594
   1023441.35549    799962.05748  23553821.8634   23553816.4884
     -1935.4694
   2420130.20349   1882783.48648  21807309.9184   21807306.2894
     -1046.6414
  -7884402.35349  -6142612.38148  22958932.0124   22958928.6764
       973.2664
   1950529.50649   1517351.60847  24765526.9414   24765525.1054
     -1795.1564
 04  9 17 22 23 45.0040000  0  6G 8G13G19G27G28G10
  -4247970.76449  -3307573.85548  21714396.2304   21714392.6914
        37.9694
  16417802.62549  12784607.92247  23306146.0354   23306142.8484
     -4174.9694
   1052543.73049    822639.21748  23559359.4804   23559354.7894
     -1944.9064
   2435858.37349   1895039.21848  21810302.9964   21810299.8944
     -1050.6414
  -7898962.51249  -6153957.94848  22956161.0824   22956157.6444
       967.9694
   1977521.09249   1538383.98947  24770662.6844   24770660.6874
     -1803.8594
 04  9 17 22 24  0.0040000  0  6G 8G13G19G27G28G10
  -4248512.32549  -3307995.85448  21714293.0904   21714289.7544
        34.3134
  16480465.10549  12833435.78547  23318070.2074   23318067.5944
     -4179.9224
   1081785.23249    845424.80047  23564924.2154   23564919.2194
     -1953.7344
   2451645.31149   1907340.71348  21813307.2234   21813303.3124
     -1054.1564
  -7913445.62049  -6165243.46148  22953405.2464   22953401.6844
       963.2664
   2004640.88549   1559516.27747  24775824.5514   24775821.9144
     -1811.9374
 04  9 17 22 24 15.0040000  0  6G 8G13G19G27G28G10
  -4248999.75149  -3308375.66648  21714200.3324   21714197.0904
        30.5314
  16543200.42849  12882320.43247  23330008.4574   23330005.2344
     -4184.9694
   1111157.83849    868312.53647  23570513.5044   23570508.6914
     -1962.6724
   2467483.01849   1919681.78148  21816320.8714   21816317.6414
     -1057.6874
  -7927859.41749  -6176474.97648  22950662.1914   22950658.4654
       958.3754
   2031880.69749   1580742.06647  24781007.2464   24781005.4734
     -1820.1414
 04  9 17 22 24 30.0040000  0  6G 8G13G19G27G28G10
  -4249426.69349  -3308708.35048  21714119.1844   21714115.6844
        26.5634
  16606014.61349  12931266.51847  23341961.5434   23341958.5084
     -4190.0944
   1140667.77149    891307.27848  23576128.9574   23576123.9694
     -1971.7194
   2483378.12049   1932067.57548  21819345.7854   21819342.3794
     -1061.4534
  -7942197.68049  -6187647.63048  22947933.7774   22947930.0044
       953.4844
   2059246.59549   1602066.12247  24786215.3324   24786212.9964
     -1828.5164
 04  9 17 22 24 45.0040000  0  6G 8G13G19G27G28G10
  -4249796.98249  -3308996.87948  21714048.5434   21714045.1484
        22.5784
  16668903.42549  12980270.76147  23353929.3014   23353926.1804
     -4195.3124
   1170310.91149    914405.81448  23581770.3094   23581765.2664
     -1980.8124
   2499326.66049   1944495.00048  21822380.9964   21822377.4024
     -1065.2344
  -7956464.25549  -6198764.42848  22945218.9494   22945214.8834
       948.5314
   2086734.46249   1623485.22547  24791446.3324   24791444.6374
     -1836.7034
 04  9 17 22 25  0.0040000  0  6G 8G13G19G27G28G10
  -4250106.46149  -3309238.02548  21713989.7854   21713986.5124
        18.7194
  16731870.77749  13029336.19347  23365911.2854   23365908.4694
     -4200.3284
   1200091.30449    937611.30348  23587436.9574   23587432.0784
     -1989.7814
   2515332.82949   1956967.34548  21825426.6844   21825422.7694
     -1068.8754
  -7970654.94849  -6209822.08748  22942518.5274   22942515.1524
       943.5784
   2114348.24249   1645002.43547  24796700.8944   24796698.3594
     -1844.9534
 04  9 17 22 25 15.0040000  0  6G 8G13G19G27G28G10
  -4250356.51649  -3309432.86848  21713942.0124   21713939.2344
        14.7974
  16794914.87449  13078461.43647  23377908.2154   23377905.1134
     -4205.3284
   1230007.23149    960922.40848  23593130.1214   23593125.0044
     -1998.7194
   2531395.13749   1969483.42748  21828483.1764   21828480.1844
     -1072.5944
  -7984771.46149  -6220821.95248  22939832.1054   22939828.2814
       938.8444
   2142086.11249   1666616.34447  24801979.3554   24801976.6484
     -1853.2344
 04  9 17 22 25 30.0040000  0  6G 8G13G19G27G28G10
  -4250549.27549  -3309583.07548  21713905.5044   21713902.4614
        10.6414
  16858033.32049  13127644.61547  23389918.9414   23389916.8554
     -4210.6724
   1260056.66749    984337.54248  23598847.8794   23598843.4264
     -2008.0624
   2547511.82349   1982041.89048  21831550.0354   21831546.6374
     -1076.5004
  -7998815.69649  -6231765.48848  22937159.5514   22937155.7114
       933.5944
   2169945.96549   1688325.32447  24807280.5514   24807278.9844
     -1861.6414
 04  9 17 22 25 45.0040000  0  6G 8G13G19G27G28G10
  -4250678.90549  -3309684.07348  21713880.6684   21713877.7464
         6.7974
  16921231.01449  13176889.54547  23401945.0194   23401941.9884
     -4215.6094
   1290244.61749   1007860.62548  23604592.5984   23604588.2424
     -2016.9224
   2563687.99149   1994646.69348  21834628.4494   21834625.2114
     -1080.0944
  -8012782.49049  -6242648.69548  22934501.9654   22934497.9654
       928.7344
   2197932.73949   1710133.18347  24812606.9494   24812604.9694
     -1869.7974
 04  9 17 22 26  0.0040000  0  6G 8G13G19G27G28G10
  -4250748.99449  -3309738.69148  21713867.6134   21713864.3364
         2.3754
  16984504.41549  13226193.45747  23413985.5514   23413983.1844
     -4221.1094
   1320567.64249   1031488.94748  23610362.5594   23610358.0704
     -2026.3594
   2579920.63649   2007295.49148  21837717.5274   21837713.6174
     -1084.4224
  -8026675.00749  -6253474.00148  22931858.0044   22931854.5664
       923.3594
   2226042.98049   1732037.23947  24817955.5904   24817953.2544
     -1878.4534
 04  9 17 22 26 15.0040000  0  6G 8G13G19G27G28G10
  -4250756.30049  -3309744.37648  21713865.9804   21713863.2234
        -1.3124
  17047856.48349  13275558.67447  23426041.5514   23426038.8054
     -4225.8284
   1351028.90049   1055224.97847  23616159.7384   23616154.4304
     -2035.1094
   2596212.98549   2019990.83648  21840818.0274   21840813.7194
     -1087.8914
  -8040489.96249  -6264238.89648  22929229.3014   22929225.5044
       918.6884
   2254279.69149   1754039.85447  24823328.8714   24823326.9494
     -1886.4374
 04  9 17 22 26 30.0040000  0  6G 8G13G19G27G28G10
  -4250701.89349  -3309701.98548  21713876.6134   21713873.0744
        -5.6414
  17111285.62649  13324983.96047  23438111.3244   23438108.9184
     -4231.0944
   1381626.81649   1079067.49548  23621982.0434   23621977.1254
     -2044.3754
   2612563.80649   2032731.72648  21843929.2934   21843925.6484
     -1091.9694
  -8054228.75549  -6274944.41948  22926614.6684   22926611.0474
       913.4844
   2282641.28249   1776139.77947  24828726.5044   24828723.9964
     -1894.8284
 04  9 17 22 26 45.0040000  0  6G 8G13G19G27G28G10
  -4250588.04349  -3309613.27048  21713898.4964   21713894.7274
        -9.2344
  17174789.09649  13374467.15447  23450195.8634   23450193.6484
     -4235.7034
   1412358.97149   1103014.62848  23627830.4574   23627825.2774
     -2052.9224
   2628970.77849   2045516.37748  21847051.1604   21847048.2934
     -1095.3284
  -8067893.75349  -6285592.45848  22924014.3094   22924010.3674
       908.8754
   2311124.99649   1798334.89847  24834146.7074   24834144.4304
     -1902.6094
 04  9 17 22 27  0.0040000  0  6G 8G13G19G27G28G10
  -4250414.07349  -3309477.69648  21713931.0984   21713927.6524
       -13.4694
  17238367.30649  13424008.57347  23462294.4344   23462291.7814
     -4240.7974
   1443225.76149   1127066.65948  23633704.0194   23633699.0354
     -2062.0944
   2645434.60949   2058345.34348  21850184.3014   21850180.8404
     -1099.3754
  -8081484.31449  -6296182.49148  22921428.2304   22921424.0354
       903.7194
   2339731.33549   1820625.51347  24839589.7934   24839587.9064
     -1911.0314
 04  9 17 22 27 15.0040000  0  6G 8G13G19G27G28G10
  -4250181.23449  -3309296.26248  21713975.3554   21713972.4344
       -17.8444
  17302018.64049  13473606.98547  23474407.5514   23474404.3634
     -4246.1874
   1474225.80349   1151222.53648  23639603.2624   23639598.4964
     -2071.4064
   2661954.11949   2071217.68048  21853327.3484   21853324.0944
     -1103.4844
  -8095001.80449  -6306715.58648  22918855.7074   22918852.4614
       898.3754
   2368458.72849   1843010.47847  24845056.6134   24845054.6644
     -1919.5624
 04  9 17 22 27 30.0040000  0  6G 8G13G19G27G28G10
  -4249884.38949  -3309064.95348  21714031.9184   21714028.7114
       -21.9694
  17365747.74049  13523265.99147  23486534.1374   23486531.4534
     -4251.2814
   1505363.89649   1175485.98648  23645528.6764   23645524.0434
     -2080.5004
   2678534.27449   2084137.28048  21856482.9494   21856479.2544
     -1107.4694
  -8108441.10749  -6317187.74848  22916298.8874   22916294.3554
       893.2344
   2397311.93949   1865493.48647  24850547.1684   24850545.1414
     -1927.8444
 04  9 17 22 27 45.0040000  0  6G 8G13G19G27G28G10
  -4249525.06649  -3308784.95948  21714100.5354   21714096.7504
       -25.9694
  17429552.81349  13572984.19247  23498676.0514   23498673.2544
     -4256.1414
   1536638.43049   1199855.74048  23651479.4414   23651474.8794
     -2089.4534
   2695173.69949   2097103.05648  21859649.4964   21859646.0594
     -1111.1874
  -8121803.84549  -6327600.25448  22913755.6764   22913751.6954
       888.3134
   2426289.24949   1888073.18447  24856060.7934   24856058.7694
     -1935.8594
 04  9 17 22 28  0.0040000  0  6G 8G13G19G27G28G10
  -4249106.74349  -3308458.99448  21714180.1134   21714176.4654
       -29.7344
  17493430.03149  13622758.62647  23510831.2544   23510828.6254
     -4260.7034
   1568045.60149   1224328.85748  23657456.0664   23657451.6994
     -2098.1724
   2711868.94849   2110112.34348  21862826.0044   21862822.6914
     -1114.7814
  -8135093.45849  -6337955.78248  22911227.0824   22911223.1294
       883.6724
   2455386.82249   1910746.61247  24861598.2234   24861596.3364
     -1943.7194
 04  9 17 22 28 15.0040000  0  6G 8G13G19G27G28G10
  -4248627.17849  -3308085.30548  21714271.5904   21714267.8284
       -33.8754
  17557381.10949  13672590.60547  23523000.5124   23522998.6604
     -4265.7194
   1599587.43649   1248906.90047  23663458.6684   23663454.2584
     -2107.2034
   2728622.26449   2123166.87748  21866014.3164   21866010.5864
     -1118.6874
  -8148308.06549  -6348252.86648  22908711.9964   22908708.5434
       878.5944
   2484606.59949   1933515.24547  24867159.1444   24867156.8324
     -1951.9374
 04  9 17 22 28 30.0040000  0  7G31G 8G13G19G27G28G10
   -136300.34259    -89090.64956  25317681.5274   25317681.6024
      2867.3754
  -4248086.84749  -3307664.26648  21714373.9804   21714370.9374
       -37.7034
  17621405.05149  13722479.36247  23535184.2694   23535181.8634
     -4270.3754
   1631263.02749   1273589.17147  23669486.0664   23669481.4104
     -2115.8444
   2745432.75349   2136265.95948  21869213.2774   21869210.1684
     -1122.1874
  -8161448.23249  -6358491.93748  22906211.3014   22906207.6954
       873.7344
   2513947.51849   1956378.29247  24872742.5274   24872739.3444
     -1959.8124
 04  9 17 22 28 45.0040000  0  7G31G 8G13G19G27G28G10
   -179303.46049   -122599.46146  25309497.6054   25309498.4374
      2866.5634
  -4247486.18049  -3307196.21448  21714488.2074   21714484.7694
       -42.2344
  17685501.11749  13772424.30847  23547381.3714   23547378.8094
     -4275.5944
   1663071.86549   1298375.26748  23675539.4184   23675534.7734
     -2125.1874
   2762300.29349   2149409.49048  21872423.0354   21872419.4884
     -1126.5624
  -8174514.39949  -6368673.35348  22903725.0904   22903721.2504
       868.4534
   2543408.91749   1979335.20747  24878348.4344   24878346.5864
     -1968.2194
 04  9 17 22 29  0.0040000  0  7G31G 8G13G19G27G28G10
   -222301.02649   -156103.94846  25301314.7234   25301316.5864
      2865.7814
  -4246822.42449  -3306678.99148  21714614.5744   21714611.3204
       -46.6724
  17749671.71249  13822427.33947  23559592.6524   23559590.6804
     -4280.8284
   1695016.36449   1323267.08548  23681618.1994   23681613.4884
     -2134.3914
   2779227.54449   2162599.55648  21875643.8554   21875640.9144
     -1130.8444
  -8187503.90849  -6378795.02848  22901253.1914   22901248.7154
       863.1564
   2572993.18649   2002387.85647  24883978.4184   24883975.7854
     -1976.6094
 04  9 17 22 29 15.0040000  0  7G31G 8G13G19G27G28G10
   -265291.32749   -189602.75146  25293135.2694   25293135.0624
      2866.0474
  -4246094.39849  -3306111.69048  21714753.2694   21714750.2424
       -50.5944
  17813917.85249  13872489.23247  23571818.4964   23571815.9414
     -4285.5004
   1727097.71849   1348265.52948  23687723.0984   23687718.3874
     -2143.1564
   2796215.92749   2175837.25148  21878877.0044   21878872.9844
     -1134.5624
  -8200415.43749  -6388855.94448  22898796.3094   22898792.1524
       858.2194
   2602701.45849   2025537.12847  24889631.7774   24889629.7194
     -1984.6094
 04  9 17 22 29 30.0040000  0  7G31G 8G13G19G27G28G10
   -308276.45049   -223097.57047  25284955.1914   25284955.3794
      2865.5474
  -4245304.33449  -3305496.05948  21714903.6214   21714900.2584
       -54.7034
  17878236.83249  13922607.89247  23584057.8944   23584055.0314
     -4290.3124
   1759313.33149   1373368.60248  23693853.9494   23693848.9614
     -2152.1094
   2813263.06249   2189120.72048  21882120.8714   21882117.2504
     -1138.4064
  -8213251.52249  -6398858.07348  22896353.6684   22896349.2894
       853.1884
   2632531.04049   2048780.95147  24895307.6764   24895306.1644
     -1992.6724
 04  9 17 22 29 45.0040000  0  7G31G 8G13G19G27G28G10
   -351258.19149   -256589.70647  25276775.7854   25276776.1294
      2865.2974
  -4244453.97549  -3304833.44348  21715065.6994   21715062.3014
       -58.7034
  17942626.24349  13972781.42047  23596310.9574   23596307.7464
     -4295.0004
   1791660.99349   1398574.57147  23700009.5044   23700004.6054
     -2160.9694
   2830366.92849   2202448.41748  21885375.7774   21885372.1764
     -1142.1874
  -8226014.04549  -6408802.87048  22893925.0434   22893921.1994
       848.3284
   2662479.62649   2072117.51147  24901006.6374   24901004.5664
     -2000.5474
 04  9 17 22 30  0.0040000  0  7G31G 8G13G19G27G28G10
   -394233.96749   -290077.22047  25268597.9734   25268597.8054
      2864.6254
  -4243541.23049  -3304122.20448  21715239.1214   21715235.6764
       -63.0944
  18007087.97349  14023011.32547  23608577.4734   23608575.0554
     -4299.9224
   1824142.78549   1423885.04347  23706189.8874   23706185.3794
     -2170.0624
   2847529.87449   2215822.13648  21888641.8244   21888638.3284
     -1146.3124
  -8238700.80249  -6418688.63848  22891510.6294   22891506.8634
       843.1094
   2692549.16349   2095548.29147  24906728.5664   24906727.0434
     -2008.8124
 04  9 17 22 30 15.0040000  0  7G31G 8G13G19G27G28G10
   -437205.27749   -323561.22447  25260419.8944   25260420.9574
      2864.6564
  -4242567.74649  -3303363.65248  21715424.4414   21715420.9614
       -66.8594
  18071620.01449  14073295.98847  23620857.3324   23620855.3284
     -4304.4534
   1856756.74649   1449298.51348  23712396.3094   23712391.7854
     -2178.5784
   2864750.25049   2229240.60648  21891918.5594   21891914.9574
     -1149.8594
  -8251313.57649  -6428516.75948  22889110.2774   22889106.8714
       838.4384
   2722737.57849   2119071.70447  24912473.9574   24912471.8094
     -2016.5314
 04  9 17 22 30 30.0040000  0  7G31G 8G13G19G27G28G10
   -480172.00949   -357041.73347  25252244.3014   25252244.3204
      2864.3444
  -4241533.40649  -3302557.66448  21715620.9024   21715618.0274
       -71.0944
  18136221.80349  14123635.01647  23633150.7544   23633147.9534
     -4309.1874
   1889502.44349   1474814.62648  23718627.7624   23718623.4414
     -2187.5314
   2882028.01349   2242703.79448  21895206.4734   21895203.0984
     -1153.8124
  -8263852.56049  -6438287.38448  22886724.8014   22886720.7814
       833.3444
   2753044.45449   2142687.43947  24918240.2854   24918239.3164
     -2024.5164
 04  9 17 22 30 45.0040000  0  7G31G 8G13G19G27G28G10
   -523131.54549   -390516.60147  25244069.5904   25244069.3094
      2863.7194
  -4240436.27549  -3301702.75448  21715829.7774   21715826.7894
       -75.2814
  18200895.22249  14174029.85847  23645457.7934   23645455.2664
     -4314.0164
   1922381.92749   1500434.99648  23724884.4104   23724879.8914
     -2196.5004
   2899365.30049   2256213.36648  21898505.1134   21898502.1024
     -1157.8124
  -8276315.73649  -6447998.92548  22884352.7624   22884348.5434
       828.2504
   2783471.78049   2166397.02147  24924031.1134   24924028.8984
     -2032.5164
 04  9 17 22 31  0.0040000  0  7G31G 8G13G19G27G28G10
   -566081.34349   -423983.86547  25235896.1604   25235895.6374
      2862.8594
  -4239273.73849  -3300796.87948  21716051.0904   21716047.5904
       -79.7974
  18265642.33749  14224482.11147  23657778.6844   23657776.8484
     -4319.0944
   1955397.48949   1526161.40147  23731167.2154   23731162.1954
     -2205.8444
   2916764.52849   2269771.19848  21901816.5434   21901812.9734
     -1162.1254
  -8288700.62949  -6457649.48148  22881996.2384   22881992.2694
       822.8914
   2814021.63549   2190202.11147  24929844.1444   24929842.5554
     -2040.8594
 04  9 17 22 31 15.0040000  0  7G31G 8G13G19G27G28G10
   -609022.77949   -457444.60746  25227724.2854   25227723.9924
      2862.6254
  -4238047.49049  -3299841.36248  21716284.1214   21716281.4064
       -83.7344
  18330461.18949  14274990.28647  23670113.2544   23670111.1254
     -4323.5624
   1988547.25049   1551992.37947  23737475.0904   23737470.2894
     -2214.4064
   2934224.28949   2283376.20348  21905139.0354   21905135.6174
     -1165.9224
  -8301008.94749  -6467240.35548  22879653.8944   22879650.2624
       818.0474
   2844692.14749   2214101.19447  24935681.1054   24935678.6764
     -2048.5944
 04  9 17 22 31 30.0040000  0  7G31G 8G13G19G27G28G10
   -651953.62149   -490897.15046  25219554.7694   25219554.2774
      2861.7344
  -4236755.70849  -3298834.77448  21716530.4494   21716527.3284
       -88.1874
  18395353.28549  14325555.50747  23682461.9494   23682459.8164
     -4328.4374
   2021832.84349   1577929.19347  23743809.6054   23743804.5824
     -2223.3914
   2951746.25249   2297029.67248  21908473.4104   21908470.1804
     -1170.1254
  -8313238.83749  -6476770.13848  22877326.6134   22877323.1764
       812.8134
   2875484.77649   2238095.44447  24941540.3484   24941538.9694
     -2056.7664
 04  9 17 22 31 45.0040000  0  7G31G 8G13G19G27G28G10
   -694876.32049   -524343.29946  25211387.0044   25211386.3124
      2861.1254
  -4235400.78749  -3297778.99248  21716787.9884   21716784.6764
       -92.4534
  18460315.66149  14376175.50747  23694824.2234   23694821.6294
     -4333.2034
   2055251.45849   1603969.66347  23750168.8404   23750164.0084
     -2232.3914
   2969327.98449   2310729.72448  21911819.2694   21911815.4374
     -1174.1094
  -8325393.01049  -6486240.89848  22875013.7544   22875010.4064
       807.7504
   2906396.71949   2262182.63247  24947422.4184   24947421.6024
     -2064.8284
 04  9 17 22 32  0.0040000  0  7G31G 8G13G19G27G28G10
   -737789.87849   -557782.36946  25203220.5044   25203220.1844
      2860.6254
  -4233981.91549  -3296673.36648  21717058.1844   21717054.7694
       -96.7194
  18525348.58049  14426850.48447  23707199.1524   23707196.8014
     -4337.8914
   2088803.50949   1630114.11147  23756553.9494   23756548.7154
     -2241.2974
   2986970.22349   2324476.91448  21915176.0434   21915172.4264
     -1178.2194
  -8337470.80649  -6495652.14748  22872715.1054   22872711.5394
       802.5944
   2937428.33149   2286363.07247  24953327.9414   24953325.8444
     -2072.7504
 04  9 17 22 32 15.0040000  0  7G31G 8G13G19G27G28G10
   -780691.77049   -591212.32047  25195056.0274   25195055.9654
      2859.6094
  -4232496.88149  -3295516.19248  21717340.5354   21717337.2894
      -101.3124
  18590453.97349  14477581.92247  23719588.7694   23719585.5824
     -4342.9064
   2122491.02749   1656364.12147  23762963.6764   23762959.0514
     -2250.5624
   3004675.14249   2338272.95048  21918545.4574   21918542.0704
     -1182.5944
  -8349470.04849  -6505002.19248  22870431.8554   22870428.3244
       797.1724
   2968581.37649   2310638.17547  24959256.5514   24959254.6844
     -2081.0784
 04  9 17 22 32 30.0040000  0  7G31G 8G13G19G27G28G10
   -823581.76549   -624633.02847  25186894.6374   25186894.1294
      2859.1094
  -4230945.62549  -3294307.41848  21717635.8324   21717632.8834
      -105.3914
  18655631.51449  14528369.60147  23731992.0664   23731988.5554
     -4347.3594
   2156313.80149   1682719.52047  23769400.1444   23769395.1564
     -2259.0784
   3022442.81049   2352117.88048  21921926.8244   21921923.0354
     -1186.3914
  -8361390.83349  -6514291.09648  22868163.4964   22868159.8364
       792.3284
   2999855.51549   2335007.59447  24965207.5664   24965206.6174
     -2088.7344
 04  9 17 22 32 45.0040000  0  7G31G 8G13G19G27G28G10
   -866463.24149   -658047.02447  25178734.7464   25178734.1294
      2858.4534
  -4229331.87149  -3293049.95448  21717942.9574   21717939.6564
      -109.7194
  18720877.15949  14579210.31947  23744407.4414   23744404.9414
     -4352.0784
   2190267.91349   1709177.26247  23775861.6684   23775856.7544
     -2267.9844
   3040269.57149   2366008.86348  21925318.6764   21925315.0004
     -1190.4844
  -8373236.84449  -6523521.73848  22865909.2774   22865905.0944
       787.1724
   3031246.91649   2359468.41947  24971181.3014   24971179.1844
     -2096.7664
 04  9 17 22 33  0.0040000  0  7G31G 8G13G19G27G28G10
   -909332.56049   -691451.60447  25170577.0594   25170577.0354
      2857.6884
  -4227652.10549  -3291741.03848  21718262.4344   21718259.3714
      -113.9844
  18786193.97449  14630106.51747  23756836.6684   23756834.3364
     -4356.6874
   2224356.50849   1735739.80248  23782348.5904   23782343.2584
     -2276.9224
   3058158.81049   2379948.52448  21928723.0354   21928719.1844
     -1194.5314
  -8385004.73649  -6532691.50448  22863670.0194   22863665.9574
       782.0944
   3062758.59549   2384022.95447  24977177.1214   24977175.5984
     -2104.5164
 04  9 17 22 33 15.0040000  0  7G31G 8G13G19G27G28G10
   -952189.27249   -724846.37647  25162421.6134   25162420.8284
      2856.7814
  -4225905.95049  -3290380.39348  21718594.7624   21718591.7734
      -118.4064
  18851581.66449  14681057.93847  23769279.6844   23769276.9804
     -4361.3124
   2258579.55549   1762407.09348  23788860.8484   23788856.0594
     -2285.7664
   3076110.83149   2393937.10748  21932138.9184   21932135.3594
     -1198.7034
  -8396694.34249  -6541800.27548  22861445.2464   22861442.1564
       776.9534
   3094390.55849   2408671.22847  24983197.0744   24983195.8164
     -2112.6564
 04  9 17 22 33 30.0040000  0  7G31G 8G13G19G27G28G10
   -995038.39349   -758235.22346  25154266.7624   25154267.4614
      2856.1094
  -4224099.04449  -3288972.41648  21718938.7774   21718935.0434
      -122.7664
  18917034.65049  14732060.23747  23781734.8094   23781731.7974
     -4366.0164
   2292931.49549   1789174.83647  23795397.8714   23795392.7234
     -2294.7194
   3094120.24849   2407970.41748  21935565.8484   21935562.5234
     -1202.8444
  -8408311.09349  -6550852.26948  22859234.6214   22859231.3484
       771.7194
   3126137.01249   2433408.72847  24989238.4734   24989236.1564
     -2120.5314
 04  9 17 22 33 45.0040000  0  7G31G 8G13G19G27G28G10
  -1037876.12749   -791615.20846  25146115.4654   25146115.1994
      2855.5004
  -4222227.52949  -3287514.08248  21719294.7154   21719291.2034
      -126.9064
  18982556.12649  14783115.89147  23794203.2774   23794201.0274
     -4370.4064
   2327415.76749   1816045.70348  23801959.6524   23801955.5004
     -2303.3284
   3112190.80349   2422051.36048  21939005.0044   21939001.9184
     -1206.7504
  -8419851.43849  -6559844.72948  22857038.5744   22857035.1844
       766.7974
   3158001.21449   2458237.92747  24995302.3094   24995300.4344
     -2128.1874
 04  9 17 22 34  0.0040000  0  7G31G 8G13G19G27G28G10
  -1080699.63349   -824984.06147  25137966.9654   25137966.3054
      2854.6724
  -4220289.19949  -3286003.69748  21719663.8794   21719660.2274
      -131.1874
  19048148.22949  14834226.59747  23806684.9344   23806682.1094
     -4374.9694
   2362034.59449   1843021.39047  23808547.5904   23808542.4734
     -2312.0314
   3130324.93349   2436181.84948  21942455.6294   21942451.7974
     -1210.8124
  -8431312.99249  -6568775.79248  22854857.6214   22854853.8874
       761.7344
   3189985.34649   2483160.64047  25001387.9264   25001386.6724
     -2136.0944
 04  9 17 22 34 15.0040000  0  7G31G 8G13G19G27G28G10
  -1123513.38049   -858345.35046  25129819.3094   25129818.9184
      2853.7504
  -4218288.38549  -3284444.61948  21720044.6524   21720041.4734
      -135.5164
  19113805.82449  14885388.32447  23819179.4264   23819177.0164
     -4379.4534
   2396782.99849   1870098.05448  23815159.4494   23815155.4184
     -2320.8914
   3148517.92949   2450358.20148  21945917.8794   21945914.7854
     -1214.9534
  -8442700.54949  -6577649.20748  22852690.4804   22852686.7234
       756.6254
   3222084.49349   2508172.91747  25007495.9884   25007494.8244
     -2143.8754
 04  9 17 22 34 30.0040000  0  7G31G 8G13G19G27G28G10
  -1166313.85349   -891696.28747  25121675.0984   25121673.6914
      2853.0314
  -4216221.79849  -3282834.29048  21720437.8634   21720434.4694
      -139.9374
  19179531.99449  14936603.47847  23831686.3714   23831684.4804
     -4384.0004
   2431664.00549   1897278.06647  23821797.7154   23821792.7664
     -2329.7194
   3166773.24549   2464583.12248  21949391.5124   21949387.9024
     -1219.0164
  -8454010.82549  -6586462.38648  22850538.5824   22850534.5084
       751.5164
   3254301.52049   2533277.10447  25013626.6844   25013625.6174
     -2151.7194
 04  9 17 22 34 45.0040000  0  7G31G 8G13G19G27G28G10
  -1209102.51449   -925038.00147  25113532.0274   25113531.8164
      2852.2194
  -4214091.17049  -3281174.05948  21720843.2384   21720839.9414
      -144.1414
  19245324.54149  14987870.36047  23844206.4884   23844203.9304
     -4388.3284
   2466675.69149   1924559.88347  23828460.4734   23828455.3914
     -2338.3444
   3185089.08749   2478855.19548  21952876.9884   21952873.0904
     -1222.9844
  -8465245.69049  -6595216.81248  22848400.6994   22848396.6604
       746.5314
   3286634.50549   2558471.60047  25019779.4734   25019778.1444
     -2159.3754
 04  9 17 22 35  0.0040000  0  8G31G 8G13G19G29G27G28G10
  -1251878.09449   -958369.54547  25105392.1684   25105392.1604
      2851.6094
  -4211895.45549  -3279463.11048  21721260.8094   21721257.9414
      -148.3444
  19311184.09349  15039189.45147  23856739.0434   23856736.8014
     -4392.5624
   2501818.83249   1951944.14047  23835147.2624   23835142.9734
     -2347.0624
    -98695.12059    -66994.24057  25565637.8874   25565635.2774
      2171.7664
   3203466.47749   2493175.24948  21956374.2464   21956370.7894
     -1226.9224
  -8476404.16649  -6603911.71748  22846277.2624   22846273.3554
       741.5944
   3319084.00349   2583756.92147  25025954.6994   25025953.0784
     -2167.0004
 04  9 17 22 35 15.0040000  0  8G31G 8G13G19G29G27G28G10
  -1294642.85849   -991692.64447  25097254.4964   25097254.2544
      2850.3914
  -4209637.06149  -3277703.31648  21721690.5514   21721687.8674
      -152.9534
  19377107.73649  15090558.49947  23869283.7774   23869281.9374
     -4397.2664
   2537090.57749   1979428.61748  23841859.9414   23841855.1374
     -2355.9694
   -131250.68949    -92362.17747  25559441.9804   25559439.8014
      2168.8914
   3221902.85449   2507541.25648  21959882.3164   21959878.9614
     -1231.3124
  -8487488.80049  -6612549.07248  22844167.7854   22844163.6684
       736.2974
   3351647.09049   2609130.74647  25032152.0984   25032149.5274
     -2174.8444
 04  9 17 22 35 30.0040000  0  8G31G 8G13G19G29G27G28G10
  -1337391.17649  -1025002.95747  25089119.5354   25089119.1874
      2849.4224
  -4207310.57949  -3275890.47748  21722133.4104   21722130.3754
      -157.2504
  19443100.53149  15141981.41247  23881841.7694   23881839.1054
     -4401.6874
   2572496.14449   2007017.36447  23848597.3014   23848592.3484
     -2364.6874
   -163763.33849   -117696.70046  25553255.2304   25553253.6804
      2166.1414
   3240403.68149   2521957.47948  21963403.1134   21963399.6254
     -1235.3444
  -8498494.35849  -6621124.82848  22842073.3324   22842069.7384
       731.2034
   3384328.93749   2634597.09547  25038370.9264   25038368.4374
     -2182.5944
 04  9 17 22 35 45.0040000  0  8G31G 8G13G19G29G27G28G10
  -1380126.33249  -1058302.98147  25080986.5984   25080986.6874
      2848.6884
  -4204919.54849  -3274027.33648  21722588.4104   21722585.6764
      -161.4064
  19509158.44749  15193455.08247  23894412.8404   23894410.2384
     -4405.9374
   2608031.78849   2034707.46948  23855359.3874   23855354.6374
     -2373.1724
   -196236.35749   -143000.36246  25547075.7464   25547073.3714
      2163.6564
   3258965.53449   2536421.25348  21966935.2934   21966931.4924
     -1239.2814
  -8509424.30149  -6629641.64248  22839993.3714   22839989.5784
       726.2664
   3417125.66449   2660152.97347  25044611.5744   25044609.4454
     -2190.0944
 04  9 17 22 36  0.0040000  0  8G31G 8G13G19G29G27G28G10
  -1422844.79649  -1091590.01847  25072858.6844   25072857.0314
      2847.0944
  -4202460.83449  -3272111.45848  21723056.3794   21723052.9964
      -166.3754
  19575284.39849  15244981.76647  23906995.7934   23906993.5594
     -4410.9064
   2643700.36249   2062501.14647  23862146.8164   23862142.1644
     -2382.4844
   -228666.37749   -168270.51247  25540905.0044   25540901.9964
      2160.3754
   3277591.55449   2550935.03148  21970479.9414   21970476.2504
     -1244.0624
  -8520275.60049  -6638097.19048  22837928.6374   22837924.9024
       720.5944
   3450039.99449   2685800.48847  25050875.1444   25050872.9534
     -2198.3754
 04  9 17 22 36 15.0040000  0  8G31G 8G13G19G29G27G28G10
  -1465544.08549  -1124862.13247  25064732.7854   25064731.9964
      2846.2664
  -4199931.90849  -3270140.85948  21723537.5274   21723534.1174
      -170.6724
  19641480.36549  15296562.99947  23919592.5664   23919590.0514
     -4415.0784
   2679503.99549   2090400.08147  23868960.8244   23868955.1094
     -2391.1094
   -261050.83449   -193505.15847  25534742.0514   25534739.9694
      2157.7664
   3296284.07949   2565500.63548  21974036.3944   21974033.2424
     -1248.0944
  -8531046.12549  -6646489.79448  22835878.9734   22835874.9884
       715.7034
   3483073.91849   2711541.17547  25057161.0354   25057159.7734
     -2205.9374
 04  9 17 22 36 30.0040000  0  8G31G 8G13G19G29G27G28G10
  -1508230.45049  -1158124.11847  25056609.9804   25056609.5904
      2845.0944
  -4197339.51749  -3268120.80848  21724030.7154   21724027.5234
      -175.1414
  19707739.42449  15348193.40847  23932201.2154   23932198.2694
     -4419.5784
   2715435.76749   2118398.85747  23875798.0434   23875792.4574
     -2399.9064
   -293396.12949   -218709.24147  25528586.8634   25528584.4454
      2154.8284
   3315036.54149   2580112.93748  21977605.1914   21977601.8594
     -1252.3914
  -8541742.37849  -6654824.51948  22833843.5354   22833839.4454
       710.3754
   3516220.58049   2737369.74947  25063469.0194   25063467.4694
     -2213.6874
 04  9 17 22 36 45.0040000  0  8G31G 8G13G19G29G27G28G10
  -1550900.15149  -1191373.17547  25048489.4964   25048489.5354
      2844.3284
  -4194679.93249  -3266048.40948  21724536.9574   21724533.5434
      -179.2814
  19774064.67349  15399875.39047  23944822.3714   23944819.8714
     -4423.6254
   2751498.93449   2146500.01447  23882659.9884   23882655.2074
     -2408.2504
   -325698.47649   -243879.88947  25522440.0434   25522437.7894
      2152.3914
   3333852.54649   2594774.75248  21981185.6604   21981182.6334
     -1256.2344
  -8552361.01549  -6663098.76948  22831823.0514   22831818.6604
       705.5784
   3549483.14049   2763288.60847  25069798.9024   25069796.8794
     -2221.0474
 04  9 17 22 37  0.0040000  0  8G31G 8G13G19G29G27G28G10
  -1593556.33949  -1224611.69346  25040372.5044   25040371.7344
      2843.2194
  -4191956.48649  -3263926.24048  21725054.9024   21725051.9064
      -183.7974
  19840452.25649  15451605.93847  23957455.8484   23957453.3244
     -4427.9844
   2787689.92049   2174700.78947  23889547.3634   23889542.5354
     -2417.1094
   -357961.13949   -269019.61147  25516300.6294   25516298.2734
      2149.3914
   3352728.59149   2609483.35548  21984777.9654   21984774.3714
     -1260.5624
  -8562905.49049  -6671315.22748  22829816.2464   22829811.8714
       700.3284
   3582857.86549   2789294.87447  25076150.1914   25076147.8714
     -2228.7814
 04  9 17 22 37 15.0040000  0  8G31G 8G13G19G29G27G28G10
  -1636198.46049  -1257839.21447  25032258.0354   25032257.1134
      2842.5314
  -4189169.23049  -3261754.33648  21725585.3634   21725582.5044
      -187.7344
  19906902.09749  15503384.99747  23970100.7304   23970098.0234
     -4431.8284
   2824008.57549   2203001.02547  23896458.9264   23896453.9304
     -2425.3284
   -390183.83749   -294128.22146  25510168.3094   25510166.2854
      2147.0164
   3371665.00049   2624238.99448  21988381.2934   21988378.0044
     -1264.2194
  -8573375.72049  -6679473.83348  22827823.8944   22827819.9924
       695.7344
   3616344.57949   2815388.39047  25082521.7074   25082520.4574
     -2235.9224
 04  9 17 22 37 30.0040000  0  8G31G 8G13G19G29G27G28G10
  -1678824.22749  -1291054.03247  25024146.3404   25024145.8714
      2841.1564
  -4186315.84249  -3259530.92948  21726128.5274   21726125.2274
      -192.4374
  19973415.86549  15555213.89947  23982757.7464   23982755.6804
     -4436.3914
   2860456.95549   2231402.35247  23903394.3014   23903389.3054
     -2434.2344
   -422363.90149   -319203.57247  25504045.3404   25504042.8124
      2143.8444
   3390663.93749   2639043.35448  21991996.6684   21991993.4224
     -1268.7194
  -8583769.48049  -6687572.85948  22825846.0124   22825841.9924
       690.3594
   3649945.17649   2841570.66347  25088916.2234   25088913.8244
     -2243.8444
 04  9 17 22 37 45.0040000  0  8G31G 8G13G19G29G27G28G10
  -1721434.21949  -1324256.55547  25016038.1374   25016037.7894
      2840.1884
  -4183397.12449  -3257256.59748  21726683.9414   21726680.6684
      -196.7034
  20039992.33549  15607091.63147  23995427.0124   23995424.8714
     -4440.4844
   2897033.76449   2259903.76247  23910354.9964   23910350.1914
     -2442.6724
   -454502.17549   -344246.33247  25497929.1374   25497926.9534
      2141.1094
   3409724.47749   2653895.71548  21995623.8484   21995620.7154
     -1272.6874
  -8594087.85249  -6695613.12548  22823882.3094   22823878.4494
       685.4064
   3683658.29549   2867840.63547  25095331.0354   25095328.9374
     -2251.2664
 04  9 17 22 38  0.0040000  0  8G31G 8G13G19G29G27G28G10
  -1764030.50449  -1357448.38547  25007931.9344   25007931.6994
      2839.0944
  -4180415.12449  -3254932.95748  21727251.5984   21727248.4144
      -201.0624
  20106628.83149  15659016.12947  24008107.8634   24008105.2424
     -4444.6254
   2933736.44549   2288503.24547  23917338.6764   23917333.9414
     -2451.2504
   -486600.67749   -369258.13847  25491820.6604   25491819.1804
      2138.3444
   3428844.46349   2668794.40548  21999262.3794   21999258.6254
     -1276.7814
  -8604333.20549  -6703596.51048  22821932.9804   22821928.9964
       680.3594
   3717481.45049   2894196.31747  25101768.6294   25101766.2734
     -2258.7034
 04  9 17 22 38 15.0040000  0  8G31G 8G13G19G29G27G28G10
  -1806608.73049  -1390626.14447  24999829.1844   24999828.8634
      2838.0784
  -4177366.10849  -3252557.09548  21727831.2624   21727828.4104
      -205.4844
  20173329.02249  15710990.28647  24020800.5904   24020797.8754
     -4448.7814
   2970568.67149   2317203.67447  23924347.5124   23924343.4654
     -2459.7664
   -518655.23349   -394235.71746  25485721.0664   25485719.3524
      2135.5944
   3448027.70749   2683742.38948  22002912.6684   22002909.6024
     -1280.9064
  -8614501.74149  -6711520.03148  22819997.8094   22819993.9104
       675.4064
   3751418.24649   2920640.54747  25108225.6994   25108223.5004
     -2266.2664
 04  9 17 22 38 30.0040000  0  8G31G 8G13G19G29G27G28G10
  -1849169.48149  -1423790.28847  24991730.5044   24991729.5904
      2836.6884
  -4174250.85649  -3250129.62448  21728424.6764   21728421.1564
      -210.0004
  20240091.78549  15763013.17547  24033504.2934   24033502.5744
     -4453.0624
   3007529.60449   2346004.38747  23931381.2464   23931376.5744
     -2468.5004
   -550666.40649   -419179.48847  25479629.4804   25479628.0434
      2132.5164
   3467273.62849   2698739.19748  22006575.1844   22006571.8204
     -1285.2814
  -8624594.17249  -6719384.25748  22818077.2694   22818073.4144
       670.1414
   3785467.45949   2947172.38447  25114704.9804   25114703.2854
     -2273.8754
 04  9 17 22 38 45.0040000  0  8G31G 8G13G19G29G27G28G10
  -1891709.96349  -1456938.63747  24983635.2384   24983634.9024
      2835.2504
  -4171066.74649  -3247648.49748  21729030.5434   21729027.1254
      -214.7974
  20306919.27949  15815086.50847  24046221.5904   24046219.6954
     -4457.5784
   3044621.42649   2374907.10647  23938439.9344   23938434.9574
     -2477.2974
   -582631.38949   -444087.22347  25473547.0824   25473544.4304
      2129.1724
   3486584.76949   2713786.84348  22010249.6914   22010246.3794
     -1289.7974
  -8634608.02149  -6727187.23348  22816171.4884   22816167.4804
       664.7814
   3819631.40849   2973793.60547  25121205.9804   25121204.6954
     -2281.7034
 04  9 17 22 39  0.0040000  0  8G31G 8G13G19G29G27G28G10
  -1934232.07749  -1490072.69447  24975543.4964   24975543.1604
      2834.2664
  -4167815.74649  -3245115.24748  21729649.1134   21729645.9064
      -218.9844
  20373808.80849  15867208.18247  24058950.3324   24058948.4494
     -4461.3754
   3081841.66149   2403909.87247  23945522.5984   23945517.9924
     -2485.5784
   -614552.26749   -468960.66947  25467472.8244   25467470.7694
      2126.6254
   3505958.83749   2728883.51348  22013936.7074   22013933.0784
     -1293.7504
  -8644545.62849  -6734930.80448  22814280.0194   22814276.3484
       659.9534
   3853907.41649   3000502.17747  25127728.3094   25127726.9574
     -2288.6874
 04  9 17 22 39 15.0040000  0  8G31G 8G13G19G29G27G28G10
  -1976736.43149  -1523192.87947  24967454.8324   24967454.2234
      2832.8914
  -4164498.94849  -3242530.72348  21730280.2694   21730277.3634
      -223.4064
  20440759.19549  15919377.28547  24071690.9024   24071688.4694
     -4465.5314
   3119189.11149   2433011.76547  23952629.1764   23952624.8484
     -2494.2344
   -646429.64849   -493800.16046  25461406.3094   25461404.3404
      2123.5004
   3525395.17249   2744028.70948  22017635.3244   22017631.7664
     -1298.0004
  -8654407.83749  -6742615.64048  22812404.1444   22812399.7974
       654.8284
   3888294.31249   3027297.17847  25134272.4654   25134270.6764
     -2296.3124
 04  9 17 22 39 30.0040000  0  8G31G 8G13G19G29G27G28G10
  -2019220.17249  -1556297.03647  24959370.6054   24959369.9224
      2831.8754
  -4161113.57849  -3239892.77048  21730924.6374   21730921.5904
      -227.6564
  20507772.72649  15971595.58447  24084442.6684   24084440.9804
     -4469.4064
   3156666.22949   2462214.71447  23959761.0594   23959756.5744
     -2502.4374
   -678260.72349   -518603.59046  25455349.7854   25455347.3754
      2120.7814
   3544896.23449   2759224.34048  22021346.0664   22021342.8364
     -1301.9064
  -8664192.13249  -6750239.74548  22810541.7544   22810538.7034
       649.9694
   3922794.45449   3054180.34647  25140837.2624   25140835.3404
     -2303.5624
 04  9 17 22 39 45.0050000  0  8G31G 8G13G19G29G27G28G10
  -2061689.33249  -1589389.82247  24951289.2904   24951288.0754
      2830.2974
  -4157662.93049  -3237203.95248  21731581.0564   21731577.7004
      -232.3594
  20574849.90049  16023863.47347  24097207.4314   24097204.9974
     -4473.6414
   3194271.62749   2491517.60448  23966917.2594   23966912.5244
     -2511.2664
   -710050.74849   -543375.00947  25449300.3214   25449297.6814
      2117.5944
   3564459.93749   2774468.77548  22025068.8454   22025065.7244
     -1306.4064
  -8673902.86349  -6757806.54048  22808694.4704   22808690.2084
       644.7344
   3957406.05149   3081150.45647  25147423.5174   25147422.2704
     -2311.0474
 04  9 17 22 40  0.0050000  0  8G31G 8G13G19G29G27G28G10
  -2104131.55649  -1622461.58647  24943212.5954   24943211.6574
      2829.1094
  -4154140.55949  -3234459.24648  21732251.2904   21732248.1534
      -236.9374
  20641987.90649  16076178.78447  24109983.4384   24109981.0994
     -4477.6874
   3232006.60349   2520921.47947  23974097.8994   23974093.3994
     -2519.7034
   -741788.84749   -568105.98447  25443261.1814   25443258.3214
      2114.5004
   3584090.21449   2789765.08648  22028804.4544   22028801.3334
     -1310.5944
  -8683532.21149  -6765309.91848  22806861.6424   22806857.8254
       639.5164
   3992131.00249   3108208.79347  25154032.1494   25154030.0444
     -2318.5784
 04  9 17 22 40 15.0050000  0  8G31G 8G13G19G29G27G28G10
  -2146555.41149  -1655519.05547  24935139.5324   24935139.0284
      2827.4064
  -4150552.49849  -3231663.35048  21732934.0404   21732930.8534
      -241.5474
  20709184.78649  16128539.95147  24122770.2744   24122768.1344
     -4481.9224
   3269867.30449   2550423.30747  23981302.8764   23981297.4274
     -2528.4374
   -773483.11349   -592802.80247  25437229.5484   25437227.0054
      2111.3134
   3603782.22749   2805109.50448  22032551.5634   22032548.3214
     -1315.0784
  -8693087.05849  -6772755.22948  22805043.5404   22805039.7984
       634.3284
   4026964.80049   3135351.99447  25160660.6344   25160658.8924
     -2325.9844
 04  9 17 22 40 30.0050000  0  8G31G 8G13G19G29G27G28G10
  -2188955.78449  -1688558.23447  24927070.7674   24927070.4504
      2825.5784
  -4146893.95949  -3228812.54648  21733629.9784   21733627.4154
      -246.4224
  20776445.13949  16180950.57947  24135569.9154   24135567.4354
     -4486.3444
   3307858.36249   2580026.71847  23988532.2594   23988527.2744
     -2537.2814
   -805128.37549   -617461.45847  25431207.2434   25431205.4354
      2107.8284
   3623540.94949   2820505.91548  22036311.3994   22036308.2284
     -1319.7194
  -8702562.51549  -6780138.69848  22803240.2354   22803236.2704
       628.8284
   4061912.15649   3162583.66947  25167310.3134   25167308.9074
     -2333.7194
 04  9 17 22 40 45.0050000  0  8G31G 8G13G19G29G27G28G10
  -2231333.66549  -1721579.90247  24919006.9314   24919006.4544
      2824.6094
  -4143166.33649  -3225907.90048  21734339.6574   21734336.3454
      -250.5624
  20843767.30249  16233409.36147  24148380.4854   24148378.1574
     -4489.9224
   3345978.24849   2609730.51547  23995786.0404   23995781.4234
     -2545.2664
   -836725.62849   -642082.62247  25425194.5094   25425192.3994
      2105.1724
   3643365.15949   2835953.34948  22040084.0714   22040081.2514
     -1323.5784
  -8711959.89949  -6787461.32248  22801452.2514   22801448.2554
       624.2034
   4096971.39549   3189902.54047  25173981.5564   25173980.5634
     -2340.6564
 04  9 17 22 41  0.0050000  0  8G31G 8G13G19G29G27G28G10
  -2273690.00149  -1754584.77147  24910945.8684   24910945.7554
      2822.8444
  -4139370.74249  -3222950.29848  21735062.0484   21735058.7634
      -255.4064
  20911149.56149  16285914.99547  24161202.9934   24161200.4784
     -4494.2194
   3384225.38149   2639533.47247  24003064.0324   24003059.4274
     -2554.1414
   -868275.91249   -666667.25547  25419190.7434   25419188.8214
      2101.6884
   3663253.60049   2851450.81948  22043868.5954   22043865.4664
     -1328.1254
  -8721280.67749  -6794724.26048  22799678.4464   22799674.2634
       618.7344
   4132140.90449   3217307.33747  25180675.1344   25180672.9664
     -2348.4694
 04  9 17 22 41 15.0050000  0  8G31G 8G13G19G29G27G28G10
  -2316026.46949  -1787574.14247  24902890.1964   24902889.3884
      2821.8444
  -4135508.70449  -3219940.91548  21735796.8294   21735793.2594
      -259.5944
  20978589.65749  16338465.68847  24174036.7744   24174034.3174
     -4497.8754
   3422597.68549   2669433.95847  24010366.1034   24010361.5524
     -2562.2974
   -899780.81349   -691216.52547  25413195.7824   25413193.7314
      2098.8754
   3683204.48249   2866996.95848  22047665.4544   22047662.1694
     -1332.1414
  -8730526.80549  -6801929.00248  22797919.0794   22797914.8954
       613.9534
   4167418.48049   3244796.36447  25187387.6424   25187385.9114
     -2355.3444
 04  9 17 22 41 30.0050000  0  8G31G 8G13G19G29G27G28G10
  -2358338.26949  -1820544.31347  24894838.1964   24894837.3844
      2819.7974
  -4131575.86549  -3216876.36248  21736545.2284   21736541.7044
      -264.7034
  21046091.62449  16391064.57547  24186881.8454   24186879.4664
     -4502.3124
   3461099.31649   2699435.21947  24017693.4234   24017687.8564
     -2571.1564
   -931235.80349   -715726.87047  25407209.7904   25407207.8294
      2095.1564
   3703222.21449   2882595.18648  22051474.5244   22051471.3494
     -1336.9224
  -8739693.85549  -6809072.16648  22796174.5244   22796170.6304
       608.4224
   4202808.27649   3272372.77147  25194122.2434   25194121.1224
     -2363.2194
 04  9 17 22 41 45.0050000  0  8G31G 8G13G19G29G27G28G10
  -2400622.42249  -1853492.90947  24886792.2044   24886790.8374
      2818.0784
  -4127569.51049  -3213754.52148  21737307.4074   21737303.9354
      -269.5314
  21113657.86549  16443713.57647  24199739.5874   24199736.8374
     -4506.5624
   3499732.63649   2729539.09547  24025044.6734   24025039.6924
     -2579.9844
   -962637.84649   -740195.98547  25401234.6264   25401232.0754
      2091.7034
   3723309.55149   2898247.65848  22055297.1034   22055293.7674
     -1341.4534
  -8748779.26849  -6816151.68248  22794445.4544   22794441.2674
       602.9694
   4238312.49749   3300038.41147  25200878.4854   25200876.9074
     -2370.8124
 04  9 17 22 42  0.0050000  0  8G31G 8G13G19G29G27G28G10
  -2442880.61849  -1886421.30247  24878749.5634   24878749.2044
      2816.4694
  -4123491.43849  -3210576.79748  21738083.5174   21738080.3174
      -274.0784
  21181286.14949  16496410.90047  24212608.4464   24212605.5994
     -4510.4224
   3538495.53149   2759743.94047  24032420.4234   24032416.1454
     -2588.2814
   -993988.75449   -764625.22847  25395268.3374   25395266.3454
      2088.4384
   3743464.58249   2913952.87548  22059132.5634   22059129.0364
     -1345.7814
  -8757784.97549  -6823169.09848  22792731.8214   22792727.4894
       597.8284
   4273928.99649   3327791.49547  25207656.1344   25207655.3104
     -2378.0624
 04  9 17 22 42 15.0050000  0  8G31G 8G13G19G29G27G28G10
  -2485112.74749  -1919329.34647  24870713.1884   24870713.0714
      2814.6414
  -4119341.98049  -3207343.45548  21738873.3134   21738870.2824
      -279.0164
  21248975.92749  16549156.16247  24225489.3374   24225487.2474
     -4514.6724
   3577387.58049   2790049.41947  24039821.8214   24039817.4424
     -2597.0784
  -1025288.27649   -789014.45247  25389312.3924   25389310.6034
      2084.9224
   3763687.13849   2929710.70048  22062980.7594   22062977.2904
     -1350.4374
  -8766711.23449  -6830124.61348  22791033.3374   22791028.9664
       592.3914
   4309657.16149   3355631.59647  25214455.0404   25214453.6884
     -2385.5164
 04  9 17 22 42 30.0050000  0  8G31G 8G13G19G29G27G28G10
  -2527319.03249  -1952217.30747  24862682.3064   24862681.3534
      2813.0314
  -4115121.26749  -3204054.59548  21739676.4314   21739672.9354
      -283.6254
  21316726.22949  16601948.56347  24238382.0174   24238380.0954
     -4518.5944
   3616407.95249   2820454.89847  24047247.4314   24047242.4664
     -2605.5474
  -1056536.84849   -813363.99047  25383366.7594   25383363.4744
      2081.5634
   3783976.90049   2945520.90148  22066841.8454   22066838.4934
     -1354.7344
  -8775558.56649  -6837018.61248  22789349.2204   22789345.7514
       587.2814
   4345496.34249   3383558.21947  25221274.9624   25221273.5714
     -2392.8754
 04  9 17 22 42 45.0050000  0  8G31G 8G13G19G29G27G28G10
  -2569500.06149  -1985085.55147  24854654.5714   24854654.3994
      2810.8284
  -4110830.31049  -3200710.99048  21740492.8294   21740489.5634
      -288.6874
  21384535.90549  16654787.22747  24251285.3994   24251283.4894
     -4523.0164
   3655555.54549   2850959.49847  24054696.6654   24054691.5324
     -2614.3914
  -1087735.02549   -837674.25847  25377429.6034   25377426.7314
      2077.9224
   3804332.95249   2961382.75448  22070715.3454   22070711.9624
     -1359.6414
  -8784327.86249  -6843851.82948  22787681.0244   22787676.8494
       581.7034
   4381445.20449   3411570.28347  25228115.6884   25228114.3644
     -2400.5784
 04  9 17 22 43  0.0050000  0  8G31G 8G13G19G29G27G28G10
  -2611654.13149  -2017932.78547  24846633.3684   24846632.7204
      2809.3754
  -4106467.64849  -3197311.50948  21741323.3604   21741320.1574
      -293.2034
  21452405.86449  16707672.87047  24264200.5014   24264198.7044
     -4526.6564
   3694831.41149   2881564.04947  24062170.3844   24062166.2904
     -2622.6564
  -1118881.13449   -861943.94147  25371501.8604   25371499.8724
      2074.6724
   3824756.72349   2977297.38048  22074602.0484   22074598.3644
     -1363.8594
  -8793017.88649  -6850623.26048  22786027.1734   22786022.9074
       576.7034
   4417504.67649   3439668.52247  25234978.1964   25234976.6494
     -2407.6724
 04  9 17 22 43 15.0050000  0  8G31G 8G13G19G29G27G28G10
  -2653781.27149  -2050759.04847  24838617.0564   24838615.5524
      2807.5314
  -4102033.62849  -3193856.43148  21742166.7434   21742163.3214
      -297.9844
  21520335.56049  16760605.06247  24277127.5954   24277125.3254
     -4530.6254
   3734235.06549   2912268.18947  24069669.1654   24069664.3414
     -2631.2034
  -1149975.27549   -886173.10747  25365585.0954   25365582.6964
      2071.2814
   3845247.97949   2993264.58748  22078501.0324   22078498.0754
     -1368.3284
  -8801629.01949  -6857333.22148  22784388.2744   22784384.0954
       571.4224
   4453674.15449   3467852.53047  25241860.9624   25241859.3174
     -2414.9694
 04  9 17 22 43 30.0050000  0  8G31G 8G13G19G29G27G28G10
  -2695881.51349  -2083564.35647  24830605.1034   24830604.5324
      2805.8754
  -4097528.31549  -3190345.79548  21743024.1884   21743020.8024
      -302.6094
  21588324.27249  16813583.23247  24290065.2674   24290063.6034
     -4534.4374
   3773765.93949   2943071.46547  24077191.3604   24077186.5524
     -2639.5624
  -1181017.53349   -910361.84047  25359677.5174   25359675.7204
      2067.7194
   3865806.38749   3009284.11448  22082413.1034   22082410.2004
     -1372.7034
  -8810161.63449  -6863981.99148  22782764.5794   22782760.5134
       566.3444
   4489952.98849   3496121.73247  25248764.4314   25248762.4464
     -2422.1874
 04  9 17 22 43 45.0050000  0  8G31G 8G13G19G29G27G28G10
  -2737954.32149  -2116348.27447  24822598.9934   24822598.3724
      2803.6724
  -4092951.43649  -3186779.38948  21743895.3374   21743891.4194
      -307.6874
  21656371.92949  16866607.34947  24303014.6814   24303012.1494
     -4538.7034
   3813424.04449   2973973.85847  24084738.1424   24084733.3294
     -2648.2814
  -1212007.44649   -934509.82847  25353780.9074   25353778.0284
      2064.2034
   3886432.33949   3025356.28948  22086338.5174   22086334.9424
     -1377.4844
  -8818615.57049  -6870569.46448  22781155.9934   22781152.0204
       560.8444
   4526341.14149   3524476.10447  25255689.0634   25255687.6034
     -2429.5624
 04  9 17 22 44  0.0050000  0  8G31G 8G13G19G29G27G28G10
  -2779998.68949  -2149110.04847  24814597.7744   24814597.2784
      2802.0944
  -4088302.27449  -3183156.66848  21744779.9624   21744776.8214
      -312.3124
  21724478.70049  16919677.52447  24315974.3064   24315972.8024
     -4542.3284
   3853209.74649   3004975.70947  24092309.1424   24092304.9544
     -2656.5314
  -1242944.02149   -958616.28147  25347894.1104   25347891.5244
      2060.7814
   3907126.41949   3041481.53748  22090276.3994   22090272.9854
     -1381.7814
  -8826990.21549  -6877095.13548  22779562.1034   22779558.5754
       555.7034
   4562838.87049   3552915.89247  25262634.4784   25262632.5094
     -2436.7814
